ftp/pub/palmer/observations_modified/2019/August/AR190811_AWS2.txt

Download

Sample DateTime	Unit Id	WS Avg 2min	WD Avg 2min	WGS 10min	WGD 10min	Air Temp	Rel Humidity	Dew Point	Pyranometer	Quantum	Air Pressure	Snow Level	Rainfall	PW Current	Visibility	CBase 1	CBase 2	CBase 3	Vert Vis
2019/08/11 00:00:00	AWS2	6.18	191	7.05	192	M	M	M	NA	NA	998.2	NA	NA		M	NA	NA	NA	NA
2019/08/11 00:01:00	AWS2	6.13	193	7.05	192	M	M	M	NA	NA	998.2	NA	NA		M	NA	NA	NA	NA
2019/08/11 00:02:00	AWS2	6.18	193	7.05	192	M	M	M	NA	NA	997.9	NA	NA		M	NA	NA	NA	NA
2019/08/11 00:03:00	AWS2	6.06	192	7.05	192	M	M	M	NA	NA	998.1	NA	NA		M	NA	NA	NA	NA
2019/08/11 00:04:00	AWS2	5.97	193	7.05	192	M	M	M	NA	NA	997.9	NA	NA		M	NA	NA	NA	NA
2019/08/11 00:05:00	AWS2	6.03	196	7.05	192	M	M	M	NA	NA	998.1	NA	NA		M	NA	NA	NA	NA
2019/08/11 00:06:00	AWS2	5.80	200	7.05	192	M	M	M	NA	NA	997.6	NA	NA		M	NA	NA	NA	NA
2019/08/11 00:07:00	AWS2	5.61	201	7.05	192	M	M	M	NA	NA	997.9	NA	NA		M	NA	NA	NA	NA
2019/08/11 00:08:00	AWS2	5.67	198	6.94	195	M	M	M	NA	NA	998.1	NA	NA		M	NA	NA	NA	NA
2019/08/11 00:09:00	AWS2	5.80	195	6.94	195	M	M	M	NA	NA	998.1	NA	NA		M	NA	NA	NA	NA
2019/08/11 00:10:00	AWS2	6.04	194	6.94	195	M	M	M	NA	NA	997.9	NA	NA		M	NA	NA	NA	NA
2019/08/11 00:11:00	AWS2	5.98	196	6.94	195	M	M	M	NA	NA	998.5	NA	NA		M	NA	NA	NA	NA
2019/08/11 00:12:00	AWS2	5.74	200	6.94	195	M	M	M	NA	NA	998.4	NA	NA		M	NA	NA	NA	NA
2019/08/11 00:13:00	AWS2	5.88	200	6.94	195	M	M	M	NA	NA	997.9	NA	NA		M	NA	NA	NA	NA
2019/08/11 00:14:00	AWS2	5.94	198	6.94	195	M	M	M	NA	NA	998.4	NA	NA		M	NA	NA	NA	NA
2019/08/11 00:15:00	AWS2	5.64	200	6.94	195	M	M	M	NA	NA	998.0	NA	NA		M	NA	NA	NA	NA
2019/08/11 00:16:00	AWS2	5.74	198	6.94	195	M	M	M	NA	NA	998.4	NA	NA		M	NA	NA	NA	NA
2019/08/11 00:17:00	AWS2	5.97	194	6.94	195	M	M	M	NA	NA	998.4	NA	NA		M	NA	NA	NA	NA
2019/08/11 00:18:00	AWS2	5.75	197	6.79	196	M	M	M	NA	NA	998.3	NA	NA		M	NA	NA	NA	NA
2019/08/11 00:19:00	AWS2	5.73	202	6.79	196	M	M	M	NA	NA	998.5	NA	NA		M	NA	NA	NA	NA
2019/08/11 00:20:00	AWS2	6.01	200	6.94	194	M	M	M	NA	NA	998.5	NA	NA		M	NA	NA	NA	NA
2019/08/11 00:21:00	AWS2	6.34	195	7.00	192	M	M	M	NA	NA	998.1	NA	NA		M	NA	NA	NA	NA
2019/08/11 00:22:00	AWS2	6.58	194	7.05	190	M	M	M	NA	NA	998.3	NA	NA		M	NA	NA	NA	NA
2019/08/11 00:23:00	AWS2	6.34	196	7.05	190	M	M	M	NA	NA	998.3	NA	NA		M	NA	NA	NA	NA
2019/08/11 00:24:00	AWS2	5.87	197	7.05	190	M	M	M	NA	NA	998.1	NA	NA		M	NA	NA	NA	NA
2019/08/11 00:25:00	AWS2	5.87	192	7.05	190	M	M	M	NA	NA	998.2	NA	NA		M	NA	NA	NA	NA
2019/08/11 00:26:00	AWS2	6.33	189	7.15	188	M	M	M	NA	NA	997.9	NA	NA		M	NA	NA	NA	NA
2019/08/11 00:27:00	AWS2	6.40	191	7.15	188	M	M	M	NA	NA	998.5	NA	NA		M	NA	NA	NA	NA
2019/08/11 00:28:00	AWS2	6.19	192	7.15	188	M	M	M	NA	NA	998.2	NA	NA		M	NA	NA	NA	NA
2019/08/11 00:29:00	AWS2	6.26	192	7.15	188	M	M	M	NA	NA	998.1	NA	NA		M	NA	NA	NA	NA
2019/08/11 00:30:00	AWS2	6.36	191	7.41	195	M	M	M	NA	NA	997.8	NA	NA		M	NA	NA	NA	NA
2019/08/11 00:31:00	AWS2	6.46	192	7.41	195	M	M	M	NA	NA	998.1	NA	NA		M	NA	NA	NA	NA
2019/08/11 00:32:00	AWS2	6.52	191	7.61	189	M	M	M	NA	NA	998.2	NA	NA		M	NA	NA	NA	NA
2019/08/11 00:33:00	AWS2	6.24	190	7.61	189	M	M	M	NA	NA	998.2	NA	NA		M	NA	NA	NA	NA
2019/08/11 00:34:00	AWS2	6.17	188	7.61	189	M	M	M	NA	NA	997.9	NA	NA		M	NA	NA	NA	NA
2019/08/11 00:35:00	AWS2	6.48	182	7.61	189	M	M	M	NA	NA	998.6	NA	NA		M	NA	NA	NA	NA
2019/08/11 00:36:00	AWS2	6.29	179	7.61	189	M	M	M	NA	NA	998.6	NA	NA		M	NA	NA	NA	NA
2019/08/11 00:37:00	AWS2	5.92	179	7.61	189	M	M	M	NA	NA	998.8	NA	NA		M	NA	NA	NA	NA
2019/08/11 00:38:00	AWS2	6.08	186	7.61	189	M	M	M	NA	NA	998.3	NA	NA		M	NA	NA	NA	NA
2019/08/11 00:39:00	AWS2	6.58	190	7.61	189	M	M	M	NA	NA	998.2	NA	NA		M	NA	NA	NA	NA
2019/08/11 00:40:00	AWS2	6.84	190	7.61	189	M	M	M	NA	NA	997.9	NA	NA		M	NA	NA	NA	NA
2019/08/11 00:41:00	AWS2	6.98	189	8.13	196	M	M	M	NA	NA	998.4	NA	NA		M	NA	NA	NA	NA
2019/08/11 00:42:00	AWS2	6.96	186	8.13	196	M	M	M	NA	NA	998.6	NA	NA		M	NA	NA	NA	NA
2019/08/11 00:43:00	AWS2	6.62	186	8.13	196	M	M	M	NA	NA	998.2	NA	NA		M	NA	NA	NA	NA
2019/08/11 00:44:00	AWS2	6.91	190	8.13	196	M	M	M	NA	NA	998.4	NA	NA		M	NA	NA	NA	NA
2019/08/11 00:45:00	AWS2	7.34	190	8.13	196	M	M	M	NA	NA	998.6	NA	NA		M	NA	NA	NA	NA
2019/08/11 00:46:00	AWS2	7.13	190	8.13	196	M	M	M	NA	NA	998.4	NA	NA		M	NA	NA	NA	NA
2019/08/11 00:47:00	AWS2	7.18	194	8.18	197	M	M	M	NA	NA	998.7	NA	NA		M	NA	NA	NA	NA
2019/08/11 00:48:00	AWS2	7.23	196	8.18	197	M	M	M	NA	NA	998.3	NA	NA		M	NA	NA	NA	NA
2019/08/11 00:49:00	AWS2	6.80	197	8.18	197	M	M	M	NA	NA	998.7	NA	NA		M	NA	NA	NA	NA
2019/08/11 00:50:00	AWS2	6.79	195	8.18	197	M	M	M	NA	NA	998.5	NA	NA		M	NA	NA	NA	NA
2019/08/11 00:51:00	AWS2	6.84	195	8.18	197	M	M	M	NA	NA	998.4	NA	NA		M	NA	NA	NA	NA
2019/08/11 00:52:00	AWS2	6.91	194	8.18	197	M	M	M	NA	NA	998.5	NA	NA		M	NA	NA	NA	NA
2019/08/11 00:53:00	AWS2	7.05	190	8.18	197	M	M	M	NA	NA	997.9	NA	NA		M	NA	NA	NA	NA
2019/08/11 00:54:00	AWS2	6.67	191	8.18	197	M	M	M	NA	NA	998.9	NA	NA		M	NA	NA	NA	NA
2019/08/11 00:55:00	AWS2	6.70	196	8.18	197	M	M	M	NA	NA	998.7	NA	NA		M	NA	NA	NA	NA
2019/08/11 00:56:00	AWS2	6.64	195	8.18	197	M	M	M	NA	NA	998.3	NA	NA		M	NA	NA	NA	NA
2019/08/11 00:57:00	AWS2	6.52	192	8.03	192	M	M	M	NA	NA	998.7	NA	NA		M	NA	NA	NA	NA
2019/08/11 00:58:00	AWS2	6.56	193	7.72	202	M	M	M	NA	NA	998.5	NA	NA		M	NA	NA	NA	NA
2019/08/11 00:59:00	AWS2	6.74	190	8.03	182	M	M	M	NA	NA	997.9	NA	NA		M	NA	NA	NA	NA
2019/08/11 01:00:00	AWS2	6.89	185	8.08	179	M	M	M	NA	NA	998.4	NA	NA		M	NA	NA	NA	NA
2019/08/11 01:01:00	AWS2	7.28	188	8.75	194	M	M	M	NA	NA	998.5	NA	NA		M	NA	NA	NA	NA
2019/08/11 01:02:00	AWS2	8.13	192	8.80	194	M	M	M	NA	NA	998.4	NA	NA		M	NA	NA	NA	NA
2019/08/11 01:03:00	AWS2	8.34	194	9.11	200	M	M	M	NA	NA	998.4	NA	NA		M	NA	NA	NA	NA
2019/08/11 01:04:00	AWS2	8.29	194	9.11	200	M	M	M	NA	NA	998.5	NA	NA		M	NA	NA	NA	NA
2019/08/11 01:05:00	AWS2	7.98	194	9.11	200	M	M	M	NA	NA	998.2	NA	NA		M	NA	NA	NA	NA
2019/08/11 01:06:00	AWS2	7.60	192	9.11	200	M	M	M	NA	NA	998.2	NA	NA		M	NA	NA	NA	NA
2019/08/11 01:07:00	AWS2	7.27	192	9.11	200	M	M	M	NA	NA	998.6	NA	NA		M	NA	NA	NA	NA
2019/08/11 01:08:00	AWS2	7.49	190	9.11	200	M	M	M	NA	NA	998.8	NA	NA		M	NA	NA	NA	NA
2019/08/11 01:09:00	AWS2	7.69	190	9.11	200	M	M	M	NA	NA	998.5	NA	NA		M	NA	NA	NA	NA
2019/08/11 01:10:00	AWS2	7.68	191	9.11	200	M	M	M	NA	NA	998.9	NA	NA		M	NA	NA	NA	NA
2019/08/11 01:11:00	AWS2	7.83	189	9.11	200	M	M	M	NA	NA	998.1	NA	NA		M	NA	NA	NA	NA
2019/08/11 01:12:00	AWS2	7.70	187	9.11	200	M	M	M	NA	NA	998.6	NA	NA		M	NA	NA	NA	NA
2019/08/11 01:13:00	AWS2	7.85	187	9.00	197	M	M	M	NA	NA	998.6	NA	NA		M	NA	NA	NA	NA
2019/08/11 01:14:00	AWS2	8.21	184	8.75	179	M	M	M	NA	NA	998.3	NA	NA		M	NA	NA	NA	NA
2019/08/11 01:15:00	AWS2	8.14	181	8.75	179	M	M	M	NA	NA	998.1	NA	NA		M	NA	NA	NA	NA
2019/08/11 01:16:00	AWS2	7.67	182	8.75	179	M	M	M	NA	NA	998.6	NA	NA		M	NA	NA	NA	NA
2019/08/11 01:17:00	AWS2	7.77	184	8.85	188	M	M	M	NA	NA	997.5	NA	NA		M	NA	NA	NA	NA
2019/08/11 01:18:00	AWS2	8.07	186	8.85	188	M	M	M	NA	NA	998.6	NA	NA		M	NA	NA	NA	NA
2019/08/11 01:19:00	AWS2	8.02	185	8.85	188	M	M	M	NA	NA	998.2	NA	NA		M	NA	NA	NA	NA
2019/08/11 01:20:00	AWS2	8.14	185	8.85	186	M	M	M	NA	NA	998.5	NA	NA		M	NA	NA	NA	NA
2019/08/11 01:21:00	AWS2	8.20	186	8.85	186	M	M	M	NA	NA	998.6	NA	NA		M	NA	NA	NA	NA
2019/08/11 01:22:00	AWS2	8.15	187	8.85	186	M	M	M	NA	NA	997.8	NA	NA		M	NA	NA	NA	NA
2019/08/11 01:23:00	AWS2	8.31	185	8.85	186	M	M	M	NA	NA	998.3	NA	NA		M	NA	NA	NA	NA
2019/08/11 01:24:00	AWS2	8.48	185	8.85	186	M	M	M	NA	NA	998.4	NA	NA		M	NA	NA	NA	NA
2019/08/11 01:25:00	AWS2	8.50	185	9.11	180	M	M	M	NA	NA	997.7	NA	NA		M	NA	NA	NA	NA
2019/08/11 01:26:00	AWS2	8.40	189	9.31	192	M	M	M	NA	NA	997.6	NA	NA		M	NA	NA	NA	NA
2019/08/11 01:27:00	AWS2	8.65	192	9.41	183	M	M	M	NA	NA	998.3	NA	NA		M	NA	NA	NA	NA
2019/08/11 01:28:00	AWS2	8.40	189	9.41	183	M	M	M	NA	NA	997.8	NA	NA		M	NA	NA	NA	NA
2019/08/11 01:29:00	AWS2	8.01	189	9.41	183	M	M	M	NA	NA	998.5	NA	NA		M	NA	NA	NA	NA
2019/08/11 01:30:00	AWS2	8.18	190	9.41	183	M	M	M	NA	NA	998.2	NA	NA		M	NA	NA	NA	NA
2019/08/11 01:31:00	AWS2	8.07	192	9.41	183	M	M	M	NA	NA	998.3	NA	NA		M	NA	NA	NA	NA
2019/08/11 01:32:00	AWS2	7.93	191	9.41	183	M	M	M	NA	NA	998.8	NA	NA		M	NA	NA	NA	NA
2019/08/11 01:33:00	AWS2	7.78	190	9.41	183	M	M	M	NA	NA	997.9	NA	NA		M	NA	NA	NA	NA
2019/08/11 01:34:00	AWS2	7.73	192	9.41	183	M	M	M	NA	NA	998.6	NA	NA		M	NA	NA	NA	NA
2019/08/11 01:35:00	AWS2	7.83	187	9.41	183	M	M	M	NA	NA	998.3	NA	NA		M	NA	NA	NA	NA
2019/08/11 01:36:00	AWS2	7.59	187	9.41	183	M	M	M	NA	NA	998.9	NA	NA		M	NA	NA	NA	NA
2019/08/11 01:37:00	AWS2	7.43	189	9.05	194	M	M	M	NA	NA	998.9	NA	NA		M	NA	NA	NA	NA
2019/08/11 01:38:00	AWS2	7.40	187	9.05	194	M	M	M	NA	NA	998.4	NA	NA		M	NA	NA	NA	NA
2019/08/11 01:39:00	AWS2	7.28	189	9.05	194	M	M	M	NA	NA	997.8	NA	NA		M	NA	NA	NA	NA
2019/08/11 01:40:00	AWS2	7.41	188	8.64	193	M	M	M	NA	NA	998.7	NA	NA		M	NA	NA	NA	NA
2019/08/11 01:41:00	AWS2	7.56	188	8.59	191	M	M	M	NA	NA	997.9	NA	NA		M	NA	NA	NA	NA
2019/08/11 01:42:00	AWS2	7.58	190	8.59	191	M	M	M	NA	NA	998.6	NA	NA		M	NA	NA	NA	NA
2019/08/11 01:43:00	AWS2	7.87	193	8.90	196	M	M	M	NA	NA	998.7	NA	NA		M	NA	NA	NA	NA
2019/08/11 01:44:00	AWS2	8.20	195	8.90	189	M	M	M	NA	NA	998.6	NA	NA		M	NA	NA	NA	NA
2019/08/11 01:45:00	AWS2	8.01	192	8.90	189	M	M	M	NA	NA	998.1	NA	NA		M	NA	NA	NA	NA
2019/08/11 01:46:00	AWS2	7.69	190	8.90	189	M	M	M	NA	NA	998.5	NA	NA		M	NA	NA	NA	NA
2019/08/11 01:47:00	AWS2	7.53	192	8.90	189	M	M	M	NA	NA	998.7	NA	NA		M	NA	NA	NA	NA
2019/08/11 01:48:00	AWS2	7.67	190	8.90	189	M	M	M	NA	NA	998.1	NA	NA		M	NA	NA	NA	NA
2019/08/11 01:49:00	AWS2	7.60	186	8.90	189	M	M	M	NA	NA	998.3	NA	NA		M	NA	NA	NA	NA
2019/08/11 01:50:00	AWS2	7.23	188	8.90	189	M	M	M	NA	NA	997.8	NA	NA		M	NA	NA	NA	NA
2019/08/11 01:51:00	AWS2	7.42	189	8.90	189	M	M	M	NA	NA	998.2	NA	NA		M	NA	NA	NA	NA
2019/08/11 01:52:01	AWS2	7.38	189	8.90	189	M	M	M	NA	NA	998.6	NA	NA		M	NA	NA	NA	NA
2019/08/11 01:53:00	AWS2	7.06	192	8.90	189	M	M	M	NA	NA	998.7	NA	NA		M	NA	NA	NA	NA
2019/08/11 01:54:00	AWS2	7.24	192	8.54	191	M	M	M	NA	NA	998.1	NA	NA		M	NA	NA	NA	NA
2019/08/11 01:55:00	AWS2	7.32	193	8.54	191	M	M	M	NA	NA	997.8	NA	NA		M	NA	NA	NA	NA
2019/08/11 01:56:00	AWS2	7.61	197	8.69	195	M	M	M	NA	NA	998.3	NA	NA		M	NA	NA	NA	NA
2019/08/11 01:57:00	AWS2	7.83	193	8.69	195	M	M	M	NA	NA	998.5	NA	NA		M	NA	NA	NA	NA
2019/08/11 01:58:00	AWS2	7.67	188	8.69	195	M	M	M	NA	NA	998.8	NA	NA		M	NA	NA	NA	NA
2019/08/11 01:59:00	AWS2	7.26	192	8.69	195	M	M	M	NA	NA	998.0	NA	NA		M	NA	NA	NA	NA
2019/08/11 02:00:00	AWS2	6.63	199	8.69	195	M	M	M	NA	NA	998.7	NA	NA		M	NA	NA	NA	NA
2019/08/11 02:01:00	AWS2	6.96	200	8.69	195	M	M	M	NA	NA	998.4	NA	NA		M	NA	NA	NA	NA
2019/08/11 02:02:00	AWS2	7.51	201	8.69	195	M	M	M	NA	NA	998.5	NA	NA		M	NA	NA	NA	NA
2019/08/11 02:03:00	AWS2	7.21	201	8.69	195	M	M	M	NA	NA	998.3	NA	NA		M	NA	NA	NA	NA
2019/08/11 02:04:00	AWS2	7.41	201	8.85	203	M	M	M	NA	NA	997.6	NA	NA		M	NA	NA	NA	NA
2019/08/11 02:05:00	AWS2	8.12	203	9.26	203	M	M	M	NA	NA	997.8	NA	NA		M	NA	NA	NA	NA
2019/08/11 02:06:00	AWS2	8.53	202	9.77	200	M	M	M	NA	NA	997.7	NA	NA		M	NA	NA	NA	NA
2019/08/11 02:07:00	AWS2	8.42	204	9.77	200	M	M	M	NA	NA	999.0	NA	NA		M	NA	NA	NA	NA
2019/08/11 02:08:00	AWS2	8.57	207	9.77	200	M	M	M	NA	NA	998.3	NA	NA		M	NA	NA	NA	NA
2019/08/11 02:09:00	AWS2	8.50	204	9.77	200	M	M	M	NA	NA	998.4	NA	NA		M	NA	NA	NA	NA
2019/08/11 02:10:00	AWS2	7.64	204	9.77	200	M	M	M	NA	NA	998.9	NA	NA		M	NA	NA	NA	NA
2019/08/11 02:11:00	AWS2	7.45	203	9.77	200	M	M	M	NA	NA	998.4	NA	NA		M	NA	NA	NA	NA
2019/08/11 02:12:00	AWS2	7.81	202	9.77	200	M	M	M	NA	NA	998.3	NA	NA		M	NA	NA	NA	NA
2019/08/11 02:13:00	AWS2	7.73	200	9.77	200	M	M	M	NA	NA	998.3	NA	NA		M	NA	NA	NA	NA
2019/08/11 02:14:00	AWS2	7.06	200	9.77	200	M	M	M	NA	NA	998.8	NA	NA		M	NA	NA	NA	NA
2019/08/11 02:15:00	AWS2	6.83	198	9.77	200	M	M	M	NA	NA	999.5	NA	NA		M	NA	NA	NA	NA
2019/08/11 02:16:00	AWS2	7.27	199	9.31	202	M	M	M	NA	NA	999.2	NA	NA		M	NA	NA	NA	NA
2019/08/11 02:17:00	AWS2	7.51	200	9.31	202	M	M	M	NA	NA	999.6	NA	NA		M	NA	NA	NA	NA
2019/08/11 02:18:00	AWS2	7.31	194	9.05	205	M	M	M	NA	NA	999.9	NA	NA		M	NA	NA	NA	NA
2019/08/11 02:19:00	AWS2	7.31	196	9.11	204	M	M	M	NA	NA	999.7	NA	NA		M	NA	NA	NA	NA
2019/08/11 02:20:00	AWS2	8.21	202	9.21	204	M	M	M	NA	NA	999.8	NA	NA		M	NA	NA	NA	NA
2019/08/11 02:21:00	AWS2	8.40	201	9.21	204	M	M	M	NA	NA	999.3	NA	NA		M	NA	NA	NA	NA
2019/08/11 02:22:00	AWS2	7.82	199	9.21	204	M	M	M	NA	NA	999.8	NA	NA		M	NA	NA	NA	NA
2019/08/11 02:23:00	AWS2	7.76	199	9.21	204	M	M	M	NA	NA	999.9	NA	NA		M	NA	NA	NA	NA
2019/08/11 02:24:00	AWS2	7.89	200	9.21	204	M	M	M	NA	NA	999.9	NA	NA		M	NA	NA	NA	NA
2019/08/11 02:25:00	AWS2	7.73	200	9.21	204	M	M	M	NA	NA	1000.3	NA	NA		M	NA	NA	NA	NA
2019/08/11 02:26:00	AWS2	7.28	198	9.21	204	M	M	M	NA	NA	999.7	NA	NA		M	NA	NA	NA	NA
2019/08/11 02:27:00	AWS2	7.20	197	9.21	204	M	M	M	NA	NA	999.8	NA	NA		M	NA	NA	NA	NA
2019/08/11 02:28:00	AWS2	7.78	196	9.21	204	M	M	M	NA	NA	999.1	NA	NA		M	NA	NA	NA	NA
2019/08/11 02:29:00	AWS2	8.22	196	9.21	197	M	M	M	NA	NA	999.3	NA	NA		M	NA	NA	NA	NA
2019/08/11 02:30:00	AWS2	8.15	197	9.21	197	M	M	M	NA	NA	999.1	NA	NA		M	NA	NA	NA	NA
2019/08/11 02:31:00	AWS2	8.35	196	9.26	196	M	M	M	NA	NA	998.9	NA	NA		M	NA	NA	NA	NA
2019/08/11 02:32:00	AWS2	8.26	195	9.26	196	M	M	M	NA	NA	999.6	NA	NA		M	NA	NA	NA	NA
2019/08/11 02:33:00	AWS2	7.86	198	9.36	203	M	M	M	NA	NA	999.7	NA	NA		M	NA	NA	NA	NA
2019/08/11 02:34:00	AWS2	8.02	200	9.47	201	M	M	M	NA	NA	999.2	NA	NA		M	NA	NA	NA	NA
2019/08/11 02:35:00	AWS2	8.23	201	9.47	201	M	M	M	NA	NA	999.5	NA	NA		M	NA	NA	NA	NA
2019/08/11 02:36:00	AWS2	8.22	203	9.47	201	M	M	M	NA	NA	999.4	NA	NA		M	NA	NA	NA	NA
2019/08/11 02:37:00	AWS2	8.52	204	9.47	204	M	M	M	NA	NA	999.2	NA	NA		M	NA	NA	NA	NA
2019/08/11 02:38:00	AWS2	8.99	203	10.34	206	M	M	M	NA	NA	999.2	NA	NA		M	NA	NA	NA	NA
2019/08/11 02:39:00	AWS2	9.23	201	10.34	206	M	M	M	NA	NA	999.8	NA	NA		M	NA	NA	NA	NA
2019/08/11 02:40:00	AWS2	8.87	198	10.34	206	M	M	M	NA	NA	999.2	NA	NA		M	NA	NA	NA	NA
2019/08/11 02:41:00	AWS2	8.41	196	10.34	206	M	M	M	NA	NA	999.3	NA	NA		M	NA	NA	NA	NA
2019/08/11 02:42:00	AWS2	8.52	197	10.34	206	M	M	M	NA	NA	999.7	NA	NA		M	NA	NA	NA	NA
2019/08/11 02:43:00	AWS2	8.95	198	10.34	206	M	M	M	NA	NA	999.1	NA	NA		M	NA	NA	NA	NA
2019/08/11 02:44:00	AWS2	8.95	197	10.34	206	M	M	M	NA	NA	999.5	NA	NA		M	NA	NA	NA	NA
2019/08/11 02:45:00	AWS2	8.51	199	10.34	206	M	M	M	NA	NA	999.5	NA	NA		M	NA	NA	NA	NA
2019/08/11 02:46:00	AWS2	8.14	201	10.34	206	M	M	M	NA	NA	999.8	NA	NA		M	NA	NA	NA	NA
2019/08/11 02:47:00	AWS2	8.11	201	10.34	206	M	M	M	NA	NA	999.8	NA	NA		M	NA	NA	NA	NA
2019/08/11 02:48:00	AWS2	8.30	200	9.93	200	M	M	M	NA	NA	999.5	NA	NA		M	NA	NA	NA	NA
2019/08/11 02:49:00	AWS2	8.28	200	10.19	203	M	M	M	NA	NA	999.6	NA	NA		M	NA	NA	NA	NA
2019/08/11 02:50:00	AWS2	8.32	200	10.19	203	M	M	M	NA	NA	999.5	NA	NA		M	NA	NA	NA	NA
2019/08/11 02:51:00	AWS2	8.15	200	10.19	203	M	M	M	NA	NA	1000.0	NA	NA		M	NA	NA	NA	NA
2019/08/11 02:52:00	AWS2	8.27	203	10.19	203	M	M	M	NA	NA	999.6	NA	NA		M	NA	NA	NA	NA
2019/08/11 02:53:00	AWS2	8.00	203	10.19	203	M	M	M	NA	NA	999.6	NA	NA		M	NA	NA	NA	NA
2019/08/11 02:54:00	AWS2	7.60	200	10.19	203	M	M	M	NA	NA	999.8	NA	NA		M	NA	NA	NA	NA
2019/08/11 02:55:00	AWS2	7.80	200	10.19	203	M	M	M	NA	NA	999.5	NA	NA		M	NA	NA	NA	NA
2019/08/11 02:56:00	AWS2	8.03	203	10.19	203	M	M	M	NA	NA	999.8	NA	NA		M	NA	NA	NA	NA
2019/08/11 02:57:00	AWS2	8.42	202	10.19	203	M	M	M	NA	NA	999.7	NA	NA		M	NA	NA	NA	NA
2019/08/11 02:58:00	AWS2	8.59	203	10.19	203	M	M	M	NA	NA	999.8	NA	NA		M	NA	NA	NA	NA
2019/08/11 02:59:00	AWS2	8.76	205	10.19	203	M	M	M	NA	NA	999.8	NA	NA		M	NA	NA	NA	NA
2019/08/11 03:00:00	AWS2	8.95	205	9.67	206	M	M	M	NA	NA	999.4	NA	NA		M	NA	NA	NA	NA
2019/08/11 03:01:00	AWS2	8.79	207	9.67	206	M	M	M	NA	NA	999.6	NA	NA		M	NA	NA	NA	NA
2019/08/11 03:02:00	AWS2	8.95	208	10.19	202	M	M	M	NA	NA	999.7	NA	NA		M	NA	NA	NA	NA
2019/08/11 03:03:00	AWS2	9.17	201	10.19	202	M	M	M	NA	NA	999.5	NA	NA		M	NA	NA	NA	NA
2019/08/11 03:04:00	AWS2	8.43	198	10.19	202	M	M	M	NA	NA	1000.0	NA	NA		M	NA	NA	NA	NA
2019/08/11 03:05:00	AWS2	7.76	200	10.19	202	M	M	M	NA	NA	999.7	NA	NA		M	NA	NA	NA	NA
2019/08/11 03:06:00	AWS2	7.71	200	10.19	202	M	M	M	NA	NA	1000.1	NA	NA		M	NA	NA	NA	NA
2019/08/11 03:07:00	AWS2	8.03	201	10.19	202	M	M	M	NA	NA	999.8	NA	NA		M	NA	NA	NA	NA
2019/08/11 03:08:00	AWS2	8.14	200	10.19	202	M	M	M	NA	NA	1000.2	NA	NA		M	NA	NA	NA	NA
2019/08/11 03:09:00	AWS2	7.28	200	10.19	202	M	M	M	NA	NA	1000.0	NA	NA		M	NA	NA	NA	NA
2019/08/11 03:10:00	AWS2	6.68	199	10.19	202	M	M	M	NA	NA	1000.1	NA	NA		M	NA	NA	NA	NA
2019/08/11 03:11:00	AWS2	7.25	198	10.19	202	M	M	M	NA	NA	1000.2	NA	NA		M	NA	NA	NA	NA
2019/08/11 03:12:00	AWS2	7.41	199	9.83	203	M	M	M	NA	NA	999.9	NA	NA		M	NA	NA	NA	NA
2019/08/11 03:13:00	AWS2	6.97	197	9.16	208	M	M	M	NA	NA	1000.5	NA	NA		M	NA	NA	NA	NA
2019/08/11 03:14:00	AWS2	7.36	194	9.16	208	M	M	M	NA	NA	999.9	NA	NA		M	NA	NA	NA	NA
2019/08/11 03:15:00	AWS2	7.73	197	9.16	208	M	M	M	NA	NA	1000.0	NA	NA		M	NA	NA	NA	NA
2019/08/11 03:16:00	AWS2	7.16	201	9.16	208	M	M	M	NA	NA	999.7	NA	NA		M	NA	NA	NA	NA
2019/08/11 03:17:00	AWS2	6.99	201	9.16	208	M	M	M	NA	NA	999.9	NA	NA		M	NA	NA	NA	NA
2019/08/11 03:18:00	AWS2	7.13	198	8.64	194	M	M	M	NA	NA	999.9	NA	NA		M	NA	NA	NA	NA
2019/08/11 03:19:00	AWS2	7.05	197	8.64	194	M	M	M	NA	NA	1000.0	NA	NA		M	NA	NA	NA	NA
2019/08/11 03:20:00	AWS2	7.38	197	8.64	194	M	M	M	NA	NA	1000.4	NA	NA		M	NA	NA	NA	NA
2019/08/11 03:21:00	AWS2	7.25	196	8.49	202	M	M	M	NA	NA	1000.0	NA	NA		M	NA	NA	NA	NA
2019/08/11 03:22:00	AWS2	6.73	198	8.49	202	M	M	M	NA	NA	1000.1	NA	NA		M	NA	NA	NA	NA
2019/08/11 03:23:00	AWS2	7.01	199	8.49	202	M	M	M	NA	NA	999.9	NA	NA		M	NA	NA	NA	NA
2019/08/11 03:24:00	AWS2	6.97	198	8.49	202	M	M	M	NA	NA	999.7	NA	NA		M	NA	NA	NA	NA
2019/08/11 03:25:00	AWS2	6.63	198	8.28	199	M	M	M	NA	NA	1000.2	NA	NA		M	NA	NA	NA	NA
2019/08/11 03:26:00	AWS2	6.88	201	8.28	199	M	M	M	NA	NA	999.9	NA	NA		M	NA	NA	NA	NA
2019/08/11 03:27:00	AWS2	7.07	200	8.28	199	M	M	M	NA	NA	1000.2	NA	NA		M	NA	NA	NA	NA
2019/08/11 03:28:00	AWS2	6.88	198	8.28	199	M	M	M	NA	NA	1000.1	NA	NA		M	NA	NA	NA	NA
2019/08/11 03:29:00	AWS2	6.67	199	8.28	199	M	M	M	NA	NA	1000.1	NA	NA		M	NA	NA	NA	NA
2019/08/11 03:30:00	AWS2	6.36	199	8.28	199	M	M	M	NA	NA	1000.1	NA	NA		M	NA	NA	NA	NA
2019/08/11 03:31:00	AWS2	6.62	198	8.28	199	M	M	M	NA	NA	1000.1	NA	NA		M	NA	NA	NA	NA
2019/08/11 03:32:00	AWS2	6.98	200	8.28	199	M	M	M	NA	NA	1000.3	NA	NA		M	NA	NA	NA	NA
2019/08/11 03:33:00	AWS2	6.78	198	8.03	196	M	M	M	NA	NA	1000.4	NA	NA		M	NA	NA	NA	NA
2019/08/11 03:34:00	AWS2	6.72	197	8.03	196	M	M	M	NA	NA	1000.1	NA	NA		M	NA	NA	NA	NA
2019/08/11 03:35:00	AWS2	6.87	203	8.03	196	M	M	M	NA	NA	1000.2	NA	NA		M	NA	NA	NA	NA
2019/08/11 03:36:00	AWS2	7.09	206	8.03	196	M	M	M	NA	NA	999.9	NA	NA		M	NA	NA	NA	NA
2019/08/11 03:37:00	AWS2	6.88	203	8.03	196	M	M	M	NA	NA	1000.0	NA	NA		M	NA	NA	NA	NA
2019/08/11 03:38:00	AWS2	6.51	201	8.03	196	M	M	M	NA	NA	1000.2	NA	NA		M	NA	NA	NA	NA
2019/08/11 03:39:00	AWS2	6.35	202	8.03	196	M	M	M	NA	NA	1000.4	NA	NA		M	NA	NA	NA	NA
2019/08/11 03:40:00	AWS2	6.45	203	8.03	196	M	M	M	NA	NA	1000.4	NA	NA		M	NA	NA	NA	NA
2019/08/11 03:41:00	AWS2	6.84	199	7.92	207	M	M	M	NA	NA	1000.0	NA	NA		M	NA	NA	NA	NA
2019/08/11 03:42:00	AWS2	6.90	198	7.92	207	M	M	M	NA	NA	1000.1	NA	NA		M	NA	NA	NA	NA
2019/08/11 03:43:00	AWS2	6.65	202	7.92	207	M	M	M	NA	NA	1000.0	NA	NA		M	NA	NA	NA	NA
2019/08/11 03:44:00	AWS2	6.35	205	7.92	207	M	M	M	NA	NA	1000.2	NA	NA		M	NA	NA	NA	NA
2019/08/11 03:45:00	AWS2	6.29	203	7.92	207	M	M	M	NA	NA	1000.1	NA	NA		M	NA	NA	NA	NA
2019/08/11 03:46:00	AWS2	6.62	202	7.92	207	M	M	M	NA	NA	999.8	NA	NA		M	NA	NA	NA	NA
2019/08/11 03:47:00	AWS2	6.70	201	7.92	207	M	M	M	NA	NA	1000.5	NA	NA		M	NA	NA	NA	NA
2019/08/11 03:48:00	AWS2	6.83	200	7.92	207	M	M	M	NA	NA	1000.0	NA	NA		M	NA	NA	NA	NA
2019/08/11 03:49:00	AWS2	6.73	202	7.92	207	M	M	M	NA	NA	999.6	NA	NA		M	NA	NA	NA	NA
2019/08/11 03:50:00	AWS2	6.35	201	7.92	207	M	M	M	NA	NA	1000.6	NA	NA		M	NA	NA	NA	NA
2019/08/11 03:51:00	AWS2	6.60	199	7.92	207	M	M	M	NA	NA	1000.4	NA	NA		M	NA	NA	NA	NA
2019/08/11 03:52:00	AWS2	6.74	200	7.72	200	M	M	M	NA	NA	1000.2	NA	NA		M	NA	NA	NA	NA
2019/08/11 03:53:00	AWS2	6.66	209	7.72	200	M	M	M	NA	NA	999.9	NA	NA		M	NA	NA	NA	NA
2019/08/11 03:54:00	AWS2	6.94	213	8.49	198	M	M	M	NA	NA	1000.2	NA	NA		M	NA	NA	NA	NA
2019/08/11 03:55:00	AWS2	7.40	205	8.49	198	M	M	M	NA	NA	1000.1	NA	NA		M	NA	NA	NA	NA
2019/08/11 03:56:00	AWS2	7.47	203	8.49	198	M	M	M	NA	NA	1000.1	NA	NA		M	NA	NA	NA	NA
2019/08/11 03:57:00	AWS2	7.35	204	8.49	198	M	M	M	NA	NA	1000.2	NA	NA		M	NA	NA	NA	NA
2019/08/11 03:58:00	AWS2	7.16	202	8.49	198	M	M	M	NA	NA	1000.0	NA	NA		M	NA	NA	NA	NA
2019/08/11 03:59:00	AWS2	7.08	196	8.49	198	M	M	M	NA	NA	999.9	NA	NA		M	NA	NA	NA	NA
2019/08/11 04:00:00	AWS2	6.79	196	8.49	198	M	M	M	NA	NA	1000.4	NA	NA		M	NA	NA	NA	NA
2019/08/11 04:01:00	AWS2	5.89	202	8.49	198	M	M	M	NA	NA	1000.2	NA	NA		M	NA	NA	NA	NA
2019/08/11 04:02:00	AWS2	5.83	204	8.49	198	M	M	M	NA	NA	1000.1	NA	NA		M	NA	NA	NA	NA
2019/08/11 04:03:00	AWS2	6.57	208	8.49	198	M	M	M	NA	NA	1000.1	NA	NA		M	NA	NA	NA	NA
2019/08/11 04:04:00	AWS2	7.07	211	8.49	198	M	M	M	NA	NA	1000.3	NA	NA		M	NA	NA	NA	NA
2019/08/11 04:05:00	AWS2	7.11	212	8.13	218	M	M	M	NA	NA	1000.0	NA	NA		M	NA	NA	NA	NA
2019/08/11 04:06:00	AWS2	7.25	214	8.13	218	M	M	M	NA	NA	999.8	NA	NA		M	NA	NA	NA	NA
2019/08/11 04:07:00	AWS2	7.10	211	8.13	218	M	M	M	NA	NA	1000.2	NA	NA		M	NA	NA	NA	NA
2019/08/11 04:08:00	AWS2	6.93	211	8.13	218	M	M	M	NA	NA	1000.2	NA	NA		M	NA	NA	NA	NA
2019/08/11 04:09:00	AWS2	7.30	211	8.85	213	M	M	M	NA	NA	1000.4	NA	NA		M	NA	NA	NA	NA
2019/08/11 04:10:00	AWS2	7.40	209	8.85	213	M	M	M	NA	NA	1000.1	NA	NA		M	NA	NA	NA	NA
2019/08/11 04:11:00	AWS2	7.34	211	8.85	213	M	M	M	NA	NA	999.9	NA	NA		M	NA	NA	NA	NA
2019/08/11 04:12:00	AWS2	7.51	213	8.85	213	M	M	M	NA	NA	1000.4	NA	NA		M	NA	NA	NA	NA
2019/08/11 04:13:00	AWS2	7.28	213	8.85	213	M	M	M	NA	NA	1000.3	NA	NA		M	NA	NA	NA	NA
2019/08/11 04:14:00	AWS2	6.78	212	8.85	213	M	M	M	NA	NA	1000.2	NA	NA		M	NA	NA	NA	NA
2019/08/11 04:15:00	AWS2	6.56	209	8.85	213	M	M	M	NA	NA	1000.2	NA	NA		M	NA	NA	NA	NA
2019/08/11 04:16:00	AWS2	6.63	209	8.85	213	M	M	M	NA	NA	1000.1	NA	NA		M	NA	NA	NA	NA
2019/08/11 04:17:00	AWS2	6.81	209	8.85	213	M	M	M	NA	NA	1000.3	NA	NA		M	NA	NA	NA	NA
2019/08/11 04:18:00	AWS2	6.87	208	8.85	213	M	M	M	NA	NA	1000.0	NA	NA		M	NA	NA	NA	NA
2019/08/11 04:19:00	AWS2	6.73	208	8.18	210	M	M	M	NA	NA	1000.1	NA	NA		M	NA	NA	NA	NA
2019/08/11 04:20:00	AWS2	6.48	206	8.18	210	M	M	M	NA	NA	1000.1	NA	NA		M	NA	NA	NA	NA
2019/08/11 04:21:00	AWS2	6.55	205	8.13	214	M	M	M	NA	NA	1000.3	NA	NA		M	NA	NA	NA	NA
2019/08/11 04:22:00	AWS2	6.77	206	7.92	208	M	M	M	NA	NA	1000.0	NA	NA		M	NA	NA	NA	NA
2019/08/11 04:23:00	AWS2	6.62	207	7.92	208	M	M	M	NA	NA	1000.2	NA	NA		M	NA	NA	NA	NA
2019/08/11 04:24:00	AWS2	6.48	208	7.92	208	M	M	M	NA	NA	1000.2	NA	NA		M	NA	NA	NA	NA
2019/08/11 04:25:00	AWS2	6.83	213	7.61	214	M	M	M	NA	NA	1000.6	NA	NA		M	NA	NA	NA	NA
2019/08/11 04:26:00	AWS2	7.08	213	7.61	214	M	M	M	NA	NA	1000.1	NA	NA		M	NA	NA	NA	NA
2019/08/11 04:27:00	AWS2	6.86	212	7.61	214	M	M	M	NA	NA	1000.3	NA	NA		M	NA	NA	NA	NA
2019/08/11 04:28:00	AWS2	6.85	213	7.61	214	M	M	M	NA	NA	1000.4	NA	NA		M	NA	NA	NA	NA
2019/08/11 04:29:00	AWS2	7.11	212	7.72	211	M	M	M	NA	NA	1000.1	NA	NA		M	NA	NA	NA	NA
2019/08/11 04:30:00	AWS2	7.47	214	8.39	216	M	M	M	NA	NA	1000.6	NA	NA		M	NA	NA	NA	NA
2019/08/11 04:31:00	AWS2	7.62	217	8.39	216	M	M	M	NA	NA	1000.3	NA	NA		M	NA	NA	NA	NA
2019/08/11 04:32:00	AWS2	7.55	214	8.44	216	M	M	M	NA	NA	1000.8	NA	NA		M	NA	NA	NA	NA
2019/08/11 04:33:00	AWS2	7.67	212	8.44	216	M	M	M	NA	NA	1000.3	NA	NA		M	NA	NA	NA	NA
2019/08/11 04:34:00	AWS2	7.36	215	8.44	216	M	M	M	NA	NA	1000.4	NA	NA		M	NA	NA	NA	NA
2019/08/11 04:35:00	AWS2	7.72	219	8.95	213	M	M	M	NA	NA	1000.0	NA	NA		M	NA	NA	NA	NA
2019/08/11 04:36:00	AWS2	8.10	218	8.95	213	M	M	M	NA	NA	1000.0	NA	NA		M	NA	NA	NA	NA
2019/08/11 04:37:00	AWS2	7.75	218	8.95	213	M	M	M	NA	NA	1000.3	NA	NA		M	NA	NA	NA	NA
2019/08/11 04:38:00	AWS2	7.45	219	8.95	213	M	M	M	NA	NA	1000.6	NA	NA		M	NA	NA	NA	NA
2019/08/11 04:39:00	AWS2	7.39	212	8.95	213	M	M	M	NA	NA	1000.4	NA	NA		M	NA	NA	NA	NA
2019/08/11 04:40:00	AWS2	7.50	211	8.95	213	M	M	M	NA	NA	1000.2	NA	NA		M	NA	NA	NA	NA
2019/08/11 04:41:00	AWS2	7.73	214	9.05	207	M	M	M	NA	NA	1000.4	NA	NA		M	NA	NA	NA	NA
2019/08/11 04:42:00	AWS2	8.22	211	9.11	201	M	M	M	NA	NA	1000.4	NA	NA		M	NA	NA	NA	NA
2019/08/11 04:43:00	AWS2	7.76	210	9.11	201	M	M	M	NA	NA	1000.2	NA	NA		M	NA	NA	NA	NA
2019/08/11 04:44:00	AWS2	7.47	214	9.11	201	M	M	M	NA	NA	1000.3	NA	NA		M	NA	NA	NA	NA
2019/08/11 04:45:00	AWS2	7.51	213	9.11	201	M	M	M	NA	NA	999.9	NA	NA		M	NA	NA	NA	NA
2019/08/11 04:46:00	AWS2	7.40	214	9.11	201	M	M	M	NA	NA	1000.1	NA	NA		M	NA	NA	NA	NA
2019/08/11 04:47:00	AWS2	7.32	217	9.11	201	M	M	M	NA	NA	1001.2	NA	NA		M	NA	NA	NA	NA
2019/08/11 04:48:00	AWS2	7.13	215	9.11	201	M	M	M	NA	NA	1001.3	NA	NA		M	NA	NA	NA	NA
2019/08/11 04:49:00	AWS2	7.33	216	9.11	201	M	M	M	NA	NA	1001.1	NA	NA		M	NA	NA	NA	NA
2019/08/11 04:50:00	AWS2	7.52	219	9.11	201	M	M	M	NA	NA	1001.0	NA	NA		M	NA	NA	NA	NA
2019/08/11 04:51:00	AWS2	7.23	219	9.11	201	M	M	M	NA	NA	1001.5	NA	NA		M	NA	NA	NA	NA
2019/08/11 04:52:00	AWS2	7.29	217	8.80	224	M	M	M	NA	NA	1001.4	NA	NA		M	NA	NA	NA	NA
2019/08/11 04:53:00	AWS2	7.22	220	8.80	224	M	M	M	NA	NA	1001.7	NA	NA		M	NA	NA	NA	NA
2019/08/11 04:54:00	AWS2	6.72	222	8.80	224	M	M	M	NA	NA	1001.3	NA	NA		M	NA	NA	NA	NA
2019/08/11 04:55:00	AWS2	7.42	216	8.95	218	M	M	M	NA	NA	1001.0	NA	NA		M	NA	NA	NA	NA
2019/08/11 04:56:00	AWS2	7.86	219	8.95	218	M	M	M	NA	NA	1001.7	NA	NA		M	NA	NA	NA	NA
2019/08/11 04:57:00	AWS2	6.99	221	8.95	218	M	M	M	NA	NA	1001.9	NA	NA		M	NA	NA	NA	NA
2019/08/11 04:58:00	AWS2	6.94	218	8.95	218	M	M	M	NA	NA	1001.5	NA	NA		M	NA	NA	NA	NA
2019/08/11 04:59:00	AWS2	7.49	216	8.95	218	M	M	M	NA	NA	1001.3	NA	NA		M	NA	NA	NA	NA
2019/08/11 05:00:00	AWS2	7.18	212	8.95	218	M	M	M	NA	NA	1001.5	NA	NA		M	NA	NA	NA	NA
2019/08/11 05:01:00	AWS2	7.06	211	8.95	218	M	M	M	NA	NA	1001.6	NA	NA		M	NA	NA	NA	NA
2019/08/11 05:02:00	AWS2	7.20	216	8.95	218	M	M	M	NA	NA	1001.5	NA	NA		M	NA	NA	NA	NA
2019/08/11 05:03:00	AWS2	7.42	217	8.95	218	M	M	M	NA	NA	1001.9	NA	NA		M	NA	NA	NA	NA
2019/08/11 05:04:00	AWS2	7.00	218	8.95	218	M	M	M	NA	NA	1001.6	NA	NA		M	NA	NA	NA	NA
2019/08/11 05:05:00	AWS2	6.39	220	8.64	224	M	M	M	NA	NA	1001.8	NA	NA		M	NA	NA	NA	NA
2019/08/11 05:06:00	AWS2	6.25	218	8.44	216	M	M	M	NA	NA	1001.8	NA	NA		M	NA	NA	NA	NA
2019/08/11 05:07:00	AWS2	6.53	217	8.44	216	M	M	M	NA	NA	1001.4	NA	NA		M	NA	NA	NA	NA
2019/08/11 05:08:00	AWS2	6.71	216	8.18	215	M	M	M	NA	NA	1001.4	NA	NA		M	NA	NA	NA	NA
2019/08/11 05:09:00	AWS2	6.74	214	8.13	215	M	M	M	NA	NA	1002.1	NA	NA		M	NA	NA	NA	NA
2019/08/11 05:10:00	AWS2	6.74	213	8.13	215	M	M	M	NA	NA	1001.8	NA	NA		M	NA	NA	NA	NA
2019/08/11 05:11:00	AWS2	6.81	213	8.13	215	M	M	M	NA	NA	1001.4	NA	NA		M	NA	NA	NA	NA
2019/08/11 05:12:00	AWS2	6.64	213	8.08	214	M	M	M	NA	NA	1001.6	NA	NA		M	NA	NA	NA	NA
2019/08/11 05:13:00	AWS2	6.31	214	8.08	214	M	M	M	NA	NA	1001.4	NA	NA		M	NA	NA	NA	NA
2019/08/11 05:14:00	AWS2	6.61	212	8.08	214	M	M	M	NA	NA	1001.0	NA	NA		M	NA	NA	NA	NA
2019/08/11 05:15:00	AWS2	6.79	206	8.08	214	M	M	M	NA	NA	1001.4	NA	NA		M	NA	NA	NA	NA
2019/08/11 05:16:00	AWS2	6.96	204	8.08	214	M	M	M	NA	NA	1001.3	NA	NA		M	NA	NA	NA	NA
2019/08/11 05:17:00	AWS2	7.18	203	8.23	201	M	M	M	NA	NA	1001.9	NA	NA		M	NA	NA	NA	NA
2019/08/11 05:18:00	AWS2	6.90	207	8.23	201	M	M	M	NA	NA	1001.4	NA	NA		M	NA	NA	NA	NA
2019/08/11 05:19:00	AWS2	6.49	209	8.23	201	M	M	M	NA	NA	1001.8	NA	NA		M	NA	NA	NA	NA
2019/08/11 05:20:00	AWS2	6.51	206	8.23	201	M	M	M	NA	NA	1001.2	NA	NA		M	NA	NA	NA	NA
2019/08/11 05:21:00	AWS2	6.42	204	8.23	201	M	M	M	NA	NA	1001.4	NA	NA		M	NA	NA	NA	NA
2019/08/11 05:22:00	AWS2	5.96	210	8.23	201	M	M	M	NA	NA	1001.7	NA	NA		M	NA	NA	NA	NA
2019/08/11 05:23:00	AWS2	5.69	214	8.23	201	M	M	M	NA	NA	1000.8	NA	NA		M	NA	NA	NA	NA
2019/08/11 05:24:00	AWS2	5.82	212	8.23	201	M	M	M	NA	NA	1001.6	NA	NA		M	NA	NA	NA	NA
2019/08/11 05:25:00	AWS2	5.71	212	8.23	201	M	M	M	NA	NA	1001.8	NA	NA		M	NA	NA	NA	NA
2019/08/11 05:26:00	AWS2	5.49	207	8.23	201	M	M	M	NA	NA	1001.9	NA	NA		M	NA	NA	NA	NA
2019/08/11 05:27:00	AWS2	5.68	201	7.20	204	M	M	M	NA	NA	1001.8	NA	NA		M	NA	NA	NA	NA
2019/08/11 05:28:00	AWS2	6.08	202	7.20	204	M	M	M	NA	NA	1001.7	NA	NA		M	NA	NA	NA	NA
2019/08/11 05:29:00	AWS2	6.37	205	7.20	204	M	M	M	NA	NA	1001.6	NA	NA		M	NA	NA	NA	NA
2019/08/11 05:30:00	AWS2	6.70	209	7.41	216	M	M	M	NA	NA	1001.6	NA	NA		M	NA	NA	NA	NA
2019/08/11 05:31:00	AWS2	6.41	210	7.41	216	M	M	M	NA	NA	1001.7	NA	NA		M	NA	NA	NA	NA
2019/08/11 05:32:00	AWS2	6.19	209	7.41	216	M	M	M	NA	NA	1001.4	NA	NA		M	NA	NA	NA	NA
2019/08/11 05:33:00	AWS2	6.46	208	7.61	211	M	M	M	NA	NA	1001.5	NA	NA		M	NA	NA	NA	NA
2019/08/11 05:34:00	AWS2	6.65	208	7.61	211	M	M	M	NA	NA	1000.7	NA	NA		M	NA	NA	NA	NA
2019/08/11 05:35:00	AWS2	6.63	207	7.61	211	M	M	M	NA	NA	1001.3	NA	NA		M	NA	NA	NA	NA
2019/08/11 05:36:00	AWS2	6.19	203	7.61	211	M	M	M	NA	NA	1000.9	NA	NA		M	NA	NA	NA	NA
2019/08/11 05:37:00	AWS2	6.21	204	7.61	211	M	M	M	NA	NA	1001.0	NA	NA		M	NA	NA	NA	NA
2019/08/11 05:38:00	AWS2	6.51	208	7.61	211	M	M	M	NA	NA	1000.8	NA	NA		M	NA	NA	NA	NA
2019/08/11 05:39:00	AWS2	6.78	208	7.61	211	M	M	M	NA	NA	1000.1	NA	NA		M	NA	NA	NA	NA
2019/08/11 05:40:00	AWS2	6.75	206	7.61	211	M	M	M	NA	NA	1001.4	NA	NA		M	NA	NA	NA	NA
2019/08/11 05:41:00	AWS2	6.18	203	7.61	211	M	M	M	NA	NA	1001.1	NA	NA		M	NA	NA	NA	NA
2019/08/11 05:42:00	AWS2	6.10	206	7.61	211	M	M	M	NA	NA	1001.6	NA	NA		M	NA	NA	NA	NA
2019/08/11 05:43:00	AWS2	6.55	208	7.46	201	M	M	M	NA	NA	1000.9	NA	NA		M	NA	NA	NA	NA
2019/08/11 05:44:00	AWS2	6.81	204	7.46	201	M	M	M	NA	NA	1001.4	NA	NA		M	NA	NA	NA	NA
2019/08/11 05:45:00	AWS2	6.56	205	7.46	201	M	M	M	NA	NA	1001.5	NA	NA		M	NA	NA	NA	NA
2019/08/11 05:46:00	AWS2	6.18	202	7.46	201	M	M	M	NA	NA	1001.4	NA	NA		M	NA	NA	NA	NA
2019/08/11 05:47:00	AWS2	5.82	199	7.46	201	M	M	M	NA	NA	1001.4	NA	NA		M	NA	NA	NA	NA
2019/08/11 05:48:00	AWS2	6.10	199	7.46	201	M	M	M	NA	NA	1001.5	NA	NA		M	NA	NA	NA	NA
2019/08/11 05:49:00	AWS2	6.56	203	7.36	204	M	M	M	NA	NA	1001.2	NA	NA		M	NA	NA	NA	NA
2019/08/11 05:50:00	AWS2	6.11	205	7.36	204	M	M	M	NA	NA	1001.8	NA	NA		M	NA	NA	NA	NA
2019/08/11 05:51:00	AWS2	5.90	202	7.36	204	M	M	M	NA	NA	1001.5	NA	NA		M	NA	NA	NA	NA
2019/08/11 05:52:00	AWS2	6.00	201	7.36	204	M	M	M	NA	NA	1001.9	NA	NA		M	NA	NA	NA	NA
2019/08/11 05:53:00	AWS2	6.12	205	7.15	213	M	M	M	NA	NA	1001.1	NA	NA		M	NA	NA	NA	NA
2019/08/11 05:54:00	AWS2	6.40	205	7.15	213	M	M	M	NA	NA	1000.9	NA	NA		M	NA	NA	NA	NA
2019/08/11 05:55:00	AWS2	6.60	203	7.31	200	M	M	M	NA	NA	1001.7	NA	NA		M	NA	NA	NA	NA
2019/08/11 05:56:00	AWS2	6.67	204	7.31	203	M	M	M	NA	NA	1001.9	NA	NA		M	NA	NA	NA	NA
2019/08/11 05:57:00	AWS2	6.61	207	7.31	203	M	M	M	NA	NA	1000.5	NA	NA		M	NA	NA	NA	NA
2019/08/11 05:58:00	AWS2	6.60	205	7.31	203	M	M	M	NA	NA	1001.5	NA	NA		M	NA	NA	NA	NA
2019/08/11 05:59:00	AWS2	6.68	207	7.61	204	M	M	M	NA	NA	1001.7	NA	NA		M	NA	NA	NA	NA
2019/08/11 06:00:00	AWS2	6.72	211	7.61	204	M	M	M	NA	NA	1001.8	NA	NA		M	NA	NA	NA	NA
2019/08/11 06:01:00	AWS2	6.48	208	7.61	204	M	M	M	NA	NA	1001.2	NA	NA		M	NA	NA	NA	NA
2019/08/11 06:02:00	AWS2	6.65	205	7.61	204	M	M	M	NA	NA	1001.5	NA	NA		M	NA	NA	NA	NA
2019/08/11 06:03:00	AWS2	6.56	204	7.61	204	M	M	M	NA	NA	1001.6	NA	NA		M	NA	NA	NA	NA
2019/08/11 06:04:00	AWS2	6.12	204	7.61	204	M	M	M	NA	NA	1002.0	NA	NA		M	NA	NA	NA	NA
2019/08/11 06:05:00	AWS2	5.96	202	7.61	204	M	M	M	NA	NA	1001.9	NA	NA		M	NA	NA	NA	NA
2019/08/11 06:06:00	AWS2	5.99	203	7.61	204	M	M	M	NA	NA	1001.7	NA	NA		M	NA	NA	NA	NA
2019/08/11 06:07:00	AWS2	6.38	210	7.61	204	M	M	M	NA	NA	1001.8	NA	NA		M	NA	NA	NA	NA
2019/08/11 06:08:00	AWS2	6.35	210	7.61	204	M	M	M	NA	NA	1001.8	NA	NA		M	NA	NA	NA	NA
2019/08/11 06:09:00	AWS2	6.31	212	7.31	209	M	M	M	NA	NA	1001.5	NA	NA		M	NA	NA	NA	NA
2019/08/11 06:10:00	AWS2	6.38	213	7.31	209	M	M	M	NA	NA	1001.6	NA	NA		M	NA	NA	NA	NA
2019/08/11 06:11:00	AWS2	6.44	211	7.92	213	M	M	M	NA	NA	1001.3	NA	NA		M	NA	NA	NA	NA
2019/08/11 06:12:00	AWS2	6.47	209	7.92	213	M	M	M	NA	NA	1001.0	NA	NA		M	NA	NA	NA	NA
2019/08/11 06:13:00	AWS2	6.25	207	7.92	213	M	M	M	NA	NA	1001.8	NA	NA		M	NA	NA	NA	NA
2019/08/11 06:14:00	AWS2	6.16	206	7.92	213	M	M	M	NA	NA	1001.9	NA	NA		M	NA	NA	NA	NA
2019/08/11 06:15:00	AWS2	6.43	207	7.92	213	M	M	M	NA	NA	1002.1	NA	NA		M	NA	NA	NA	NA
2019/08/11 06:16:00	AWS2	6.37	209	7.92	213	M	M	M	NA	NA	1001.7	NA	NA		M	NA	NA	NA	NA
2019/08/11 06:17:00	AWS2	5.85	209	7.92	213	M	M	M	NA	NA	1001.2	NA	NA		M	NA	NA	NA	NA
2019/08/11 06:18:00	AWS2	5.89	208	7.92	213	M	M	M	NA	NA	1002.4	NA	NA		M	NA	NA	NA	NA
2019/08/11 06:19:00	AWS2	6.06	206	7.92	213	M	M	M	NA	NA	1001.4	NA	NA		M	NA	NA	NA	NA
2019/08/11 06:20:00	AWS2	5.95	206	7.92	213	M	M	M	NA	NA	1001.6	NA	NA		M	NA	NA	NA	NA
2019/08/11 06:21:00	AWS2	5.54	209	7.20	217	M	M	M	NA	NA	1001.6	NA	NA		M	NA	NA	NA	NA
2019/08/11 06:22:00	AWS2	5.27	210	7.20	217	M	M	M	NA	NA	1001.0	NA	NA		M	NA	NA	NA	NA
2019/08/11 06:23:00	AWS2	5.95	211	7.31	212	M	M	M	NA	NA	1001.5	NA	NA		M	NA	NA	NA	NA
2019/08/11 06:24:00	AWS2	6.23	213	7.31	212	M	M	M	NA	NA	1001.5	NA	NA		M	NA	NA	NA	NA
2019/08/11 06:25:00	AWS2	5.98	215	7.31	212	M	M	M	NA	NA	1002.2	NA	NA		M	NA	NA	NA	NA
2019/08/11 06:26:00	AWS2	6.00	214	7.31	212	M	M	M	NA	NA	1002.1	NA	NA		M	NA	NA	NA	NA
2019/08/11 06:27:00	AWS2	5.99	209	7.31	212	M	M	M	NA	NA	1001.1	NA	NA		M	NA	NA	NA	NA
2019/08/11 06:28:00	AWS2	5.99	208	7.31	212	M	M	M	NA	NA	1001.9	NA	NA		M	NA	NA	NA	NA
2019/08/11 06:29:00	AWS2	5.97	209	7.31	212	M	M	M	NA	NA	1002.0	NA	NA		M	NA	NA	NA	NA
2019/08/11 06:30:00	AWS2	6.08	208	7.31	212	M	M	M	NA	NA	1002.2	NA	NA		M	NA	NA	NA	NA
2019/08/11 06:31:00	AWS2	6.33	208	7.31	212	M	M	M	NA	NA	1001.2	NA	NA		M	NA	NA	NA	NA
2019/08/11 06:32:00	AWS2	6.36	208	7.31	212	M	M	M	NA	NA	1001.3	NA	NA		M	NA	NA	NA	NA
2019/08/11 06:33:00	AWS2	6.18	209	7.05	205	M	M	M	NA	NA	1001.3	NA	NA		M	NA	NA	NA	NA
2019/08/11 06:34:00	AWS2	6.60	213	7.46	215	M	M	M	NA	NA	1001.5	NA	NA		M	NA	NA	NA	NA
2019/08/11 06:35:00	AWS2	6.95	214	7.82	211	M	M	M	NA	NA	1001.3	NA	NA		M	NA	NA	NA	NA
2019/08/11 06:36:00	AWS2	6.66	210	7.82	211	M	M	M	NA	NA	1001.4	NA	NA		M	NA	NA	NA	NA
2019/08/11 06:37:00	AWS2	6.45	206	7.82	211	M	M	M	NA	NA	1001.6	NA	NA		M	NA	NA	NA	NA
2019/08/11 06:38:00	AWS2	6.48	208	7.82	211	M	M	M	NA	NA	1001.9	NA	NA		M	NA	NA	NA	NA
2019/08/11 06:39:00	AWS2	6.63	214	7.82	211	M	M	M	NA	NA	1001.2	NA	NA		M	NA	NA	NA	NA
2019/08/11 06:40:00	AWS2	6.82	215	7.82	211	M	M	M	NA	NA	1001.7	NA	NA		M	NA	NA	NA	NA
2019/08/11 06:41:00	AWS2	6.59	215	7.82	211	M	M	M	NA	NA	1001.4	NA	NA		M	NA	NA	NA	NA
2019/08/11 06:42:00	AWS2	6.76	216	7.97	211	M	M	M	NA	NA	1002.0	NA	NA		M	NA	NA	NA	NA
2019/08/11 06:43:00	AWS2	7.08	217	7.97	211	M	M	M	NA	NA	1001.9	NA	NA		M	NA	NA	NA	NA
2019/08/11 06:44:00	AWS2	6.89	219	7.97	211	M	M	M	NA	NA	1001.3	NA	NA		M	NA	NA	NA	NA
2019/08/11 06:45:00	AWS2	6.59	216	7.97	211	M	M	M	NA	NA	1001.5	NA	NA		M	NA	NA	NA	NA
2019/08/11 06:46:00	AWS2	6.42	208	7.97	211	M	M	M	NA	NA	1002.3	NA	NA		M	NA	NA	NA	NA
2019/08/11 06:47:00	AWS2	7.06	207	8.03	206	M	M	M	NA	NA	1002.0	NA	NA		M	NA	NA	NA	NA
2019/08/11 06:48:00	AWS2	7.55	209	8.23	207	M	M	M	NA	NA	1001.7	NA	NA		M	NA	NA	NA	NA
2019/08/11 06:49:00	AWS2	7.22	208	8.23	207	M	M	M	NA	NA	1001.6	NA	NA		M	NA	NA	NA	NA
2019/08/11 06:50:00	AWS2	7.23	207	8.23	207	M	M	M	NA	NA	1001.8	NA	NA		M	NA	NA	NA	NA
2019/08/11 06:51:00	AWS2	7.37	211	8.23	207	M	M	M	NA	NA	1002.3	NA	NA		M	NA	NA	NA	NA
2019/08/11 06:52:00	AWS2	7.17	215	8.28	214	M	M	M	NA	NA	1002.0	NA	NA		M	NA	NA	NA	NA
2019/08/11 06:53:00	AWS2	7.30	214	8.28	214	M	M	M	NA	NA	1001.6	NA	NA		M	NA	NA	NA	NA
2019/08/11 06:54:00	AWS2	7.57	209	8.28	214	M	M	M	NA	NA	1001.2	NA	NA		M	NA	NA	NA	NA
2019/08/11 06:55:00	AWS2	7.50	207	8.28	214	M	M	M	NA	NA	1001.5	NA	NA		M	NA	NA	NA	NA
2019/08/11 06:56:00	AWS2	7.44	207	8.28	214	M	M	M	NA	NA	1002.1	NA	NA		M	NA	NA	NA	NA
2019/08/11 06:57:00	AWS2	7.20	206	8.28	214	M	M	M	NA	NA	1002.0	NA	NA		M	NA	NA	NA	NA
2019/08/11 06:58:00	AWS2	7.24	208	8.44	208	M	M	M	NA	NA	1001.9	NA	NA		M	NA	NA	NA	NA
2019/08/11 06:59:00	AWS2	7.90	209	9.41	207	M	M	M	NA	NA	1001.4	NA	NA		M	NA	NA	NA	NA
2019/08/11 07:00:00	AWS2	8.07	207	9.41	207	M	M	M	NA	NA	1001.3	NA	NA		M	NA	NA	NA	NA
2019/08/11 07:01:00	AWS2	7.89	206	9.41	207	M	M	M	NA	NA	1002.1	NA	NA		M	NA	NA	NA	NA
2019/08/11 07:02:00	AWS2	7.58	203	9.41	207	M	M	M	NA	NA	1002.2	NA	NA		M	NA	NA	NA	NA
2019/08/11 07:03:00	AWS2	7.45	202	9.41	207	M	M	M	NA	NA	1002.0	NA	NA		M	NA	NA	NA	NA
2019/08/11 07:04:00	AWS2	7.39	202	9.41	207	M	M	M	NA	NA	1002.4	NA	NA		M	NA	NA	NA	NA
2019/08/11 07:05:00	AWS2	7.05	204	9.41	207	M	M	M	NA	NA	1001.4	NA	NA		M	NA	NA	NA	NA
2019/08/11 07:06:00	AWS2	7.19	205	9.41	207	M	M	M	NA	NA	1001.6	NA	NA		M	NA	NA	NA	NA
2019/08/11 07:07:00	AWS2	7.83	204	9.41	207	M	M	M	NA	NA	1001.9	NA	NA		M	NA	NA	NA	NA
2019/08/11 07:08:00	AWS2	8.27	205	9.41	207	M	M	M	NA	NA	1001.3	NA	NA		M	NA	NA	NA	NA
2019/08/11 07:09:00	AWS2	8.29	210	9.11	209	M	M	M	NA	NA	1001.9	NA	NA		M	NA	NA	NA	NA
2019/08/11 07:10:00	AWS2	8.32	212	9.11	209	M	M	M	NA	NA	1001.4	NA	NA		M	NA	NA	NA	NA
2019/08/11 07:11:00	AWS2	8.26	209	9.11	209	M	M	M	NA	NA	1001.3	NA	NA		M	NA	NA	NA	NA
2019/08/11 07:12:00	AWS2	8.03	206	9.11	209	M	M	M	NA	NA	1001.5	NA	NA		M	NA	NA	NA	NA
2019/08/11 07:13:00	AWS2	7.46	204	9.11	209	M	M	M	NA	NA	1002.4	NA	NA		M	NA	NA	NA	NA
2019/08/11 07:14:00	AWS2	6.88	207	9.11	209	M	M	M	NA	NA	1001.6	NA	NA		M	NA	NA	NA	NA
2019/08/11 07:15:00	AWS2	6.70	206	9.11	209	M	M	M	NA	NA	1001.2	NA	NA		M	NA	NA	NA	NA
2019/08/11 07:16:00	AWS2	6.96	198	9.11	209	M	M	M	NA	NA	1001.9	NA	NA		M	NA	NA	NA	NA
2019/08/11 07:17:00	AWS2	7.14	203	9.11	209	M	M	M	NA	NA	1001.8	NA	NA		M	NA	NA	NA	NA
2019/08/11 07:18:00	AWS2	7.09	211	9.11	209	M	M	M	NA	NA	1001.9	NA	NA		M	NA	NA	NA	NA
2019/08/11 07:19:00	AWS2	7.49	213	9.05	206	M	M	M	NA	NA	1001.8	NA	NA		M	NA	NA	NA	NA
2019/08/11 07:20:00	AWS2	7.74	214	8.90	213	M	M	M	NA	NA	1001.9	NA	NA		M	NA	NA	NA	NA
2019/08/11 07:21:00	AWS2	7.50	214	8.54	202	M	M	M	NA	NA	1002.4	NA	NA		M	NA	NA	NA	NA
2019/08/11 07:22:01	AWS2	7.52	210	8.49	208	M	M	M	NA	NA	1001.9	NA	NA		M	NA	NA	NA	NA
2019/08/11 07:23:00	AWS2	7.50	205	8.49	208	M	M	M	NA	NA	1001.9	NA	NA		M	NA	NA	NA	NA
2019/08/11 07:24:00	AWS2	7.38	207	8.49	208	M	M	M	NA	NA	1002.2	NA	NA		M	NA	NA	NA	NA
2019/08/11 07:25:00	AWS2	7.53	210	8.54	212	M	M	M	NA	NA	1002.1	NA	NA		M	NA	NA	NA	NA
2019/08/11 07:26:00	AWS2	7.54	207	8.54	212	M	M	M	NA	NA	1002.3	NA	NA		M	NA	NA	NA	NA
2019/08/11 07:27:00	AWS2	7.71	204	8.54	212	M	M	M	NA	NA	1002.1	NA	NA		M	NA	NA	NA	NA
2019/08/11 07:28:00	AWS2	7.63	208	8.54	212	M	M	M	NA	NA	1002.5	NA	NA		M	NA	NA	NA	NA
2019/08/11 07:29:00	AWS2	7.80	209	9.21	214	M	M	M	NA	NA	1002.4	NA	NA		M	NA	NA	NA	NA
2019/08/11 07:30:00	AWS2	8.06	208	9.21	214	M	M	M	NA	NA	1002.4	NA	NA		M	NA	NA	NA	NA
2019/08/11 07:31:00	AWS2	7.80	207	9.21	214	M	M	M	NA	NA	1002.3	NA	NA		M	NA	NA	NA	NA
2019/08/11 07:32:00	AWS2	7.71	204	9.21	214	M	M	M	NA	NA	1002.7	NA	NA		M	NA	NA	NA	NA
2019/08/11 07:33:00	AWS2	7.19	202	9.21	214	M	M	M	NA	NA	1002.2	NA	NA		M	NA	NA	NA	NA
2019/08/11 07:34:00	AWS2	6.94	200	9.21	214	M	M	M	NA	NA	1002.4	NA	NA		M	NA	NA	NA	NA
2019/08/11 07:35:00	AWS2	6.90	198	9.21	214	M	M	M	NA	NA	1002.3	NA	NA		M	NA	NA	NA	NA
2019/08/11 07:36:00	AWS2	6.59	196	9.21	214	M	M	M	NA	NA	1002.5	NA	NA		M	NA	NA	NA	NA
2019/08/11 07:37:00	AWS2	6.23	200	9.21	214	M	M	M	NA	NA	1002.8	NA	NA		M	NA	NA	NA	NA
2019/08/11 07:38:00	AWS2	6.17	202	9.21	214	M	M	M	NA	NA	1002.6	NA	NA		M	NA	NA	NA	NA
2019/08/11 07:39:00	AWS2	6.28	198	8.28	207	M	M	M	NA	NA	1002.2	NA	NA		M	NA	NA	NA	NA
2019/08/11 07:40:00	AWS2	6.21	197	8.18	208	M	M	M	NA	NA	1001.9	NA	NA		M	NA	NA	NA	NA
2019/08/11 07:41:00	AWS2	6.00	200	8.08	208	M	M	M	NA	NA	1002.6	NA	NA		M	NA	NA	NA	NA
2019/08/11 07:42:00	AWS2	5.74	201	7.56	196	M	M	M	NA	NA	1002.5	NA	NA		M	NA	NA	NA	NA
2019/08/11 07:43:00	AWS2	5.85	203	7.51	210	M	M	M	NA	NA	1002.5	NA	NA		M	NA	NA	NA	NA
2019/08/11 07:44:00	AWS2	5.89	205	7.25	196	M	M	M	NA	NA	1002.8	NA	NA		M	NA	NA	NA	NA
2019/08/11 07:45:00	AWS2	5.55	210	7.25	196	M	M	M	NA	NA	1002.8	NA	NA		M	NA	NA	NA	NA
2019/08/11 07:46:00	AWS2	5.25	214	7.20	205	M	M	M	NA	NA	1002.5	NA	NA		M	NA	NA	NA	NA
2019/08/11 07:47:01	AWS2	5.79	209	7.20	205	M	M	M	NA	NA	1002.1	NA	NA		M	NA	NA	NA	NA
2019/08/11 07:48:00	AWS2	6.00	208	7.05	210	M	M	M	NA	NA	1002.6	NA	NA		M	NA	NA	NA	NA
2019/08/11 07:49:00	AWS2	5.38	215	7.05	210	M	M	M	NA	NA	1002.9	NA	NA		M	NA	NA	NA	NA
2019/08/11 07:50:00	AWS2	5.74	225	7.20	239	M	M	M	NA	NA	1002.8	NA	NA		M	NA	NA	NA	NA
2019/08/11 07:51:00	AWS2	6.06	226	7.20	239	M	M	M	NA	NA	1002.3	NA	NA		M	NA	NA	NA	NA
2019/08/11 07:52:00	AWS2	5.76	222	7.20	239	M	M	M	NA	NA	1002.6	NA	NA		M	NA	NA	NA	NA
2019/08/11 07:53:00	AWS2	6.07	221	7.20	239	M	M	M	NA	NA	1002.7	NA	NA		M	NA	NA	NA	NA
2019/08/11 07:54:00	AWS2	5.78	218	7.20	239	M	M	M	NA	NA	1002.1	NA	NA		M	NA	NA	NA	NA
2019/08/11 07:55:00	AWS2	5.65	216	7.20	239	M	M	M	NA	NA	1002.6	NA	NA		M	NA	NA	NA	NA
2019/08/11 07:56:00	AWS2	5.80	220	7.20	239	M	M	M	NA	NA	1002.9	NA	NA		M	NA	NA	NA	NA
2019/08/11 07:57:00	AWS2	5.23	228	7.20	239	M	M	M	NA	NA	1002.3	NA	NA		M	NA	NA	NA	NA
2019/08/11 07:58:00	AWS2	4.97	224	7.20	239	M	M	M	NA	NA	1002.3	NA	NA		M	NA	NA	NA	NA
2019/08/11 07:59:00	AWS2	5.48	218	7.20	239	M	M	M	NA	NA	1002.3	NA	NA		M	NA	NA	NA	NA
2019/08/11 08:00:00	AWS2	5.33	221	6.79	222	M	M	M	NA	NA	1002.8	NA	NA		M	NA	NA	NA	NA
2019/08/11 08:01:00	AWS2	4.53	221	6.79	222	M	M	M	NA	NA	1002.4	NA	NA		M	NA	NA	NA	NA
2019/08/11 08:02:00	AWS2	4.73	211	6.79	222	M	M	M	NA	NA	1002.3	NA	NA		M	NA	NA	NA	NA
2019/08/11 08:03:00	AWS2	5.06	204	6.48	220	M	M	M	NA	NA	1002.6	NA	NA		M	NA	NA	NA	NA
2019/08/11 08:04:00	AWS2	5.03	206	6.48	220	M	M	M	NA	NA	1002.4	NA	NA		M	NA	NA	NA	NA
2019/08/11 08:05:00	AWS2	5.26	210	6.48	220	M	M	M	NA	NA	1002.5	NA	NA		M	NA	NA	NA	NA
2019/08/11 08:06:00	AWS2	5.61	213	6.48	220	M	M	M	NA	NA	1002.4	NA	NA		M	NA	NA	NA	NA
2019/08/11 08:07:00	AWS2	5.79	216	7.51	214	M	M	M	NA	NA	1001.7	NA	NA		M	NA	NA	NA	NA
2019/08/11 08:08:00	AWS2	6.22	217	7.51	214	M	M	M	NA	NA	1002.3	NA	NA		M	NA	NA	NA	NA
2019/08/11 08:09:00	AWS2	6.39	219	7.51	214	M	M	M	NA	NA	1002.5	NA	NA		M	NA	NA	NA	NA
2019/08/11 08:10:00	AWS2	5.40	226	7.51	214	M	M	M	NA	NA	1002.7	NA	NA		M	NA	NA	NA	NA
2019/08/11 08:11:00	AWS2	5.20	232	7.51	214	M	M	M	NA	NA	1002.6	NA	NA		M	NA	NA	NA	NA
2019/08/11 08:12:00	AWS2	5.93	227	7.51	214	M	M	M	NA	NA	1002.3	NA	NA		M	NA	NA	NA	NA
2019/08/11 08:13:00	AWS2	6.33	218	7.51	214	M	M	M	NA	NA	1002.3	NA	NA		M	NA	NA	NA	NA
2019/08/11 08:14:00	AWS2	6.31	217	7.51	214	M	M	M	NA	NA	1002.7	NA	NA		M	NA	NA	NA	NA
2019/08/11 08:15:00	AWS2	6.72	218	8.03	218	M	M	M	NA	NA	1002.8	NA	NA		M	NA	NA	NA	NA
2019/08/11 08:16:00	AWS2	6.61	216	8.03	218	M	M	M	NA	NA	1002.5	NA	NA		M	NA	NA	NA	NA
2019/08/11 08:17:00	AWS2	6.32	213	8.03	218	M	M	M	NA	NA	1002.5	NA	NA		M	NA	NA	NA	NA
2019/08/11 08:18:00	AWS2	6.61	213	8.03	218	M	M	M	NA	NA	1002.2	NA	NA		M	NA	NA	NA	NA
2019/08/11 08:19:00	AWS2	6.31	217	8.03	218	M	M	M	NA	NA	1002.0	NA	NA		M	NA	NA	NA	NA
2019/08/11 08:20:00	AWS2	6.13	222	8.03	218	M	M	M	NA	NA	1002.5	NA	NA		M	NA	NA	NA	NA
2019/08/11 08:21:00	AWS2	6.06	224	8.03	218	M	M	M	NA	NA	1002.5	NA	NA		M	NA	NA	NA	NA
2019/08/11 08:22:00	AWS2	6.42	230	8.03	218	M	M	M	NA	NA	1002.3	NA	NA		M	NA	NA	NA	NA
2019/08/11 08:23:00	AWS2	6.66	230	8.03	218	M	M	M	NA	NA	1002.1	NA	NA		M	NA	NA	NA	NA
2019/08/11 08:24:00	AWS2	6.12	226	8.03	218	M	M	M	NA	NA	1002.6	NA	NA		M	NA	NA	NA	NA
2019/08/11 08:25:00	AWS2	6.17	228	7.51	233	M	M	M	NA	NA	1002.9	NA	NA		M	NA	NA	NA	NA
2019/08/11 08:26:00	AWS2	6.33	230	7.51	233	M	M	M	NA	NA	1002.3	NA	NA		M	NA	NA	NA	NA
2019/08/11 08:27:00	AWS2	6.40	231	7.51	237	M	M	M	NA	NA	1002.0	NA	NA		M	NA	NA	NA	NA
2019/08/11 08:28:00	AWS2	6.98	229	9.11	218	M	M	M	NA	NA	1002.5	NA	NA		M	NA	NA	NA	NA
2019/08/11 08:29:00	AWS2	7.58	220	9.11	218	M	M	M	NA	NA	1002.3	NA	NA		M	NA	NA	NA	NA
2019/08/11 08:30:00	AWS2	7.50	209	9.11	218	M	M	M	NA	NA	1002.5	NA	NA		M	NA	NA	NA	NA
2019/08/11 08:31:00	AWS2	6.99	205	9.11	218	M	M	M	NA	NA	1002.1	NA	NA		M	NA	NA	NA	NA
2019/08/11 08:32:00	AWS2	6.86	205	9.11	218	M	M	M	NA	NA	1002.8	NA	NA		M	NA	NA	NA	NA
2019/08/11 08:33:00	AWS2	6.74	210	9.11	218	M	M	M	NA	NA	1002.4	NA	NA		M	NA	NA	NA	NA
2019/08/11 08:34:00	AWS2	6.25	214	9.11	218	M	M	M	NA	NA	1002.4	NA	NA		M	NA	NA	NA	NA
2019/08/11 08:35:00	AWS2	5.64	209	9.11	218	M	M	M	NA	NA	1003.0	NA	NA		M	NA	NA	NA	NA
2019/08/11 08:36:00	AWS2	5.80	207	9.11	218	M	M	M	NA	NA	1002.3	NA	NA		M	NA	NA	NA	NA
2019/08/11 08:37:00	AWS2	5.84	210	9.11	218	M	M	M	NA	NA	1002.7	NA	NA		M	NA	NA	NA	NA
2019/08/11 08:38:00	AWS2	5.72	208	9.11	218	M	M	M	NA	NA	1002.2	NA	NA		M	NA	NA	NA	NA
2019/08/11 08:39:00	AWS2	5.93	208	8.64	211	M	M	M	NA	NA	1002.7	NA	NA		M	NA	NA	NA	NA
2019/08/11 08:40:00	AWS2	6.23	213	7.97	209	M	M	M	NA	NA	1002.4	NA	NA		M	NA	NA	NA	NA
2019/08/11 08:41:00	AWS2	6.13	213	7.77	205	M	M	M	NA	NA	1002.6	NA	NA		M	NA	NA	NA	NA
2019/08/11 08:42:00	AWS2	6.11	209	7.25	213	M	M	M	NA	NA	1002.4	NA	NA		M	NA	NA	NA	NA
2019/08/11 08:43:00	AWS2	6.21	207	7.25	213	M	M	M	NA	NA	1002.6	NA	NA		M	NA	NA	NA	NA
2019/08/11 08:44:00	AWS2	5.78	208	7.25	213	M	M	M	NA	NA	1002.8	NA	NA		M	NA	NA	NA	NA
2019/08/11 08:45:00	AWS2	5.42	213	7.25	213	M	M	M	NA	NA	1003.1	NA	NA		M	NA	NA	NA	NA
2019/08/11 08:46:00	AWS2	5.23	214	7.25	213	M	M	M	NA	NA	1002.4	NA	NA		M	NA	NA	NA	NA
2019/08/11 08:47:00	AWS2	5.48	208	7.25	213	M	M	M	NA	NA	1002.5	NA	NA		M	NA	NA	NA	NA
2019/08/11 08:48:00	AWS2	5.54	203	7.25	213	M	M	M	NA	NA	1002.8	NA	NA		M	NA	NA	NA	NA
2019/08/11 08:49:00	AWS2	5.04	205	7.25	213	M	M	M	NA	NA	1002.8	NA	NA		M	NA	NA	NA	NA
2019/08/11 08:50:00	AWS2	5.12	215	7.25	213	M	M	M	NA	NA	1002.8	NA	NA		M	NA	NA	NA	NA
2019/08/11 08:51:00	AWS2	5.61	229	7.25	213	M	M	M	NA	NA	1002.4	NA	NA		M	NA	NA	NA	NA
2019/08/11 08:52:00	AWS2	6.04	233	7.25	230	M	M	M	NA	NA	1002.6	NA	NA		M	NA	NA	NA	NA
2019/08/11 08:53:00	AWS2	6.10	231	7.25	230	M	M	M	NA	NA	1002.9	NA	NA		M	NA	NA	NA	NA
2019/08/11 08:54:00	AWS2	5.93	228	7.25	230	M	M	M	NA	NA	1002.7	NA	NA		M	NA	NA	NA	NA
2019/08/11 08:55:00	AWS2	5.71	221	7.25	230	M	M	M	NA	NA	1002.7	NA	NA		M	NA	NA	NA	NA
2019/08/11 08:56:00	AWS2	5.88	218	7.61	228	M	M	M	NA	NA	1002.7	NA	NA		M	NA	NA	NA	NA
2019/08/11 08:57:00	AWS2	6.50	224	7.61	228	M	M	M	NA	NA	1002.5	NA	NA		M	NA	NA	NA	NA
2019/08/11 08:58:00	AWS2	6.73	230	8.28	235	M	M	M	NA	NA	1002.4	NA	NA		M	NA	NA	NA	NA
2019/08/11 08:59:00	AWS2	6.40	228	8.28	235	M	M	M	NA	NA	1002.3	NA	NA		M	NA	NA	NA	NA
2019/08/11 09:00:00	AWS2	6.77	230	8.33	233	M	M	M	NA	NA	1002.9	NA	NA		M	NA	NA	NA	NA
2019/08/11 09:01:00	AWS2	7.27	232	8.33	233	M	M	M	NA	NA	1003.0	NA	NA		M	NA	NA	NA	NA
2019/08/11 09:02:00	AWS2	6.74	231	8.33	233	M	M	M	NA	NA	1002.5	NA	NA		M	NA	NA	NA	NA
2019/08/11 09:03:00	AWS2	6.62	228	8.33	233	M	M	M	NA	NA	1002.4	NA	NA		M	NA	NA	NA	NA
2019/08/11 09:04:00	AWS2	6.65	230	8.33	233	M	M	M	NA	NA	1003.0	NA	NA		M	NA	NA	NA	NA
2019/08/11 09:05:00	AWS2	6.27	241	8.33	233	M	M	M	NA	NA	1002.5	NA	NA		M	NA	NA	NA	NA
2019/08/11 09:06:00	AWS2	5.73	244	8.33	233	M	M	M	NA	NA	1002.5	NA	NA		M	NA	NA	NA	NA
2019/08/11 09:07:00	AWS2	5.94	238	8.33	233	M	M	M	NA	NA	1002.8	NA	NA		M	NA	NA	NA	NA
2019/08/11 09:08:00	AWS2	6.62	234	8.33	233	M	M	M	NA	NA	1002.3	NA	NA		M	NA	NA	NA	NA
2019/08/11 09:09:00	AWS2	6.13	229	8.33	233	M	M	M	NA	NA	1002.8	NA	NA		M	NA	NA	NA	NA
2019/08/11 09:10:00	AWS2	5.75	221	8.08	229	M	M	M	NA	NA	1002.3	NA	NA		M	NA	NA	NA	NA
2019/08/11 09:11:00	AWS2	6.23	226	7.77	238	M	M	M	NA	NA	1003.0	NA	NA		M	NA	NA	NA	NA
2019/08/11 09:12:00	AWS2	6.54	233	7.72	244	M	M	M	NA	NA	1003.1	NA	NA		M	NA	NA	NA	NA
2019/08/11 09:13:00	AWS2	6.80	236	7.72	244	M	M	M	NA	NA	1002.9	NA	NA		M	NA	NA	NA	NA
2019/08/11 09:14:00	AWS2	7.09	236	8.64	230	M	M	M	NA	NA	1003.2	NA	NA		M	NA	NA	NA	NA
2019/08/11 09:15:00	AWS2	7.17	230	8.64	230	M	M	M	NA	NA	1002.8	NA	NA		M	NA	NA	NA	NA
2019/08/11 09:16:00	AWS2	6.92	228	8.64	230	M	M	M	NA	NA	1002.5	NA	NA		M	NA	NA	NA	NA
2019/08/11 09:17:00	AWS2	6.92	229	8.64	230	M	M	M	NA	NA	1002.1	NA	NA		M	NA	NA	NA	NA
2019/08/11 09:18:00	AWS2	7.06	224	8.64	230	M	M	M	NA	NA	1002.4	NA	NA		M	NA	NA	NA	NA
2019/08/11 09:19:00	AWS2	6.82	223	8.64	230	M	M	M	NA	NA	1002.5	NA	NA		M	NA	NA	NA	NA
2019/08/11 09:20:00	AWS2	6.81	230	8.64	230	M	M	M	NA	NA	1002.6	NA	NA		M	NA	NA	NA	NA
2019/08/11 09:21:00	AWS2	7.05	232	8.64	230	M	M	M	NA	NA	1002.6	NA	NA		M	NA	NA	NA	NA
2019/08/11 09:22:00	AWS2	6.38	227	8.64	230	M	M	M	NA	NA	1003.1	NA	NA		M	NA	NA	NA	NA
2019/08/11 09:23:00	AWS2	6.32	227	8.64	230	M	M	M	NA	NA	1002.2	NA	NA		M	NA	NA	NA	NA
2019/08/11 09:24:00	AWS2	6.92	235	8.64	230	M	M	M	NA	NA	1002.5	NA	NA		M	NA	NA	NA	NA
2019/08/11 09:25:00	AWS2	7.21	240	8.39	231	M	M	M	NA	NA	1002.1	NA	NA		M	NA	NA	NA	NA
2019/08/11 09:26:00	AWS2	7.01	238	8.39	231	M	M	M	NA	NA	1002.6	NA	NA		M	NA	NA	NA	NA
2019/08/11 09:27:00	AWS2	7.07	229	8.54	229	M	M	M	NA	NA	1002.8	NA	NA		M	NA	NA	NA	NA
2019/08/11 09:28:00	AWS2	7.25	221	8.54	229	M	M	M	NA	NA	1002.6	NA	NA		M	NA	NA	NA	NA
2019/08/11 09:29:00	AWS2	6.68	225	8.54	229	M	M	M	NA	NA	1002.5	NA	NA		M	NA	NA	NA	NA
2019/08/11 09:30:00	AWS2	5.98	230	8.54	229	M	M	M	NA	NA	1002.5	NA	NA		M	NA	NA	NA	NA
2019/08/11 09:31:00	AWS2	6.39	232	8.54	229	M	M	M	NA	NA	1002.5	NA	NA		M	NA	NA	NA	NA
2019/08/11 09:32:00	AWS2	7.09	230	8.54	229	M	M	M	NA	NA	1003.0	NA	NA		M	NA	NA	NA	NA
2019/08/11 09:33:00	AWS2	6.90	222	8.54	229	M	M	M	NA	NA	1002.5	NA	NA		M	NA	NA	NA	NA
2019/08/11 09:34:00	AWS2	6.48	222	8.54	229	M	M	M	NA	NA	1002.4	NA	NA		M	NA	NA	NA	NA
2019/08/11 09:35:00	AWS2	6.13	229	8.54	229	M	M	M	NA	NA	1002.7	NA	NA		M	NA	NA	NA	NA
2019/08/11 09:36:00	AWS2	6.61	228	8.54	229	M	M	M	NA	NA	1002.6	NA	NA		M	NA	NA	NA	NA
2019/08/11 09:37:00	AWS2	7.29	220	8.44	235	M	M	M	NA	NA	1002.5	NA	NA		M	NA	NA	NA	NA
2019/08/11 09:38:00	AWS2	7.21	215	8.44	235	M	M	M	NA	NA	1002.8	NA	NA		M	NA	NA	NA	NA
2019/08/11 09:39:00	AWS2	6.71	219	8.44	235	M	M	M	NA	NA	1002.6	NA	NA		M	NA	NA	NA	NA
2019/08/11 09:40:00	AWS2	6.14	225	8.44	235	M	M	M	NA	NA	1002.3	NA	NA		M	NA	NA	NA	NA
2019/08/11 09:41:00	AWS2	5.94	225	8.44	235	M	M	M	NA	NA	1002.4	NA	NA		M	NA	NA	NA	NA
2019/08/11 09:42:00	AWS2	6.44	226	8.44	235	M	M	M	NA	NA	1002.8	NA	NA		M	NA	NA	NA	NA
2019/08/11 09:43:00	AWS2	6.39	228	8.44	235	M	M	M	NA	NA	1003.0	NA	NA		M	NA	NA	NA	NA
2019/08/11 09:44:00	AWS2	6.06	220	8.44	235	M	M	M	NA	NA	1002.6	NA	NA		M	NA	NA	NA	NA
2019/08/11 09:45:00	AWS2	6.38	221	8.44	235	M	M	M	NA	NA	1002.8	NA	NA		M	NA	NA	NA	NA
2019/08/11 09:46:00	AWS2	7.02	230	8.23	228	M	M	M	NA	NA	1003.0	NA	NA		M	NA	NA	NA	NA
2019/08/11 09:47:00	AWS2	7.09	230	8.23	228	M	M	M	NA	NA	1003.0	NA	NA		M	NA	NA	NA	NA
2019/08/11 09:48:00	AWS2	6.29	224	8.23	228	M	M	M	NA	NA	1003.2	NA	NA		M	NA	NA	NA	NA
2019/08/11 09:49:00	AWS2	6.14	220	8.23	228	M	M	M	NA	NA	1002.6	NA	NA		M	NA	NA	NA	NA
2019/08/11 09:50:00	AWS2	7.18	218	8.64	219	M	M	M	NA	NA	1002.9	NA	NA		M	NA	NA	NA	NA
2019/08/11 09:51:00	AWS2	7.05	217	8.64	219	M	M	M	NA	NA	1003.9	NA	NA		M	NA	NA	NA	NA
2019/08/11 09:52:00	AWS2	6.44	218	8.64	219	M	M	M	NA	NA	1003.0	NA	NA		M	NA	NA	NA	NA
2019/08/11 09:53:00	AWS2	6.04	222	8.64	219	M	M	M	NA	NA	1003.2	NA	NA		M	NA	NA	NA	NA
2019/08/11 09:54:00	AWS2	5.55	222	8.64	219	M	M	M	NA	NA	1003.1	NA	NA		M	NA	NA	NA	NA
2019/08/11 09:55:00	AWS2	5.62	217	8.64	219	M	M	M	NA	NA	1003.4	NA	NA		M	NA	NA	NA	NA
2019/08/11 09:56:00	AWS2	6.00	218	8.64	219	M	M	M	NA	NA	1003.4	NA	NA		M	NA	NA	NA	NA
2019/08/11 09:57:00	AWS2	6.28	223	8.64	219	M	M	M	NA	NA	1003.4	NA	NA		M	NA	NA	NA	NA
2019/08/11 09:58:00	AWS2	6.98	217	8.75	218	M	M	M	NA	NA	1002.9	NA	NA		M	NA	NA	NA	NA
2019/08/11 09:59:00	AWS2	7.23	216	8.75	218	M	M	M	NA	NA	1003.4	NA	NA		M	NA	NA	NA	NA
2019/08/11 10:00:00	AWS2	6.43	222	8.75	218	M	M	M	NA	NA	1002.9	NA	NA		M	NA	NA	NA	NA
2019/08/11 10:01:00	AWS2	6.10	222	8.75	218	M	M	M	NA	NA	1003.1	NA	NA		M	NA	NA	NA	NA
2019/08/11 10:02:00	AWS2	6.55	225	8.75	218	M	M	M	NA	NA	1003.2	NA	NA		M	NA	NA	NA	NA
2019/08/11 10:03:00	AWS2	7.24	228	9.00	228	M	M	M	NA	NA	1003.1	NA	NA		M	NA	NA	NA	NA
2019/08/11 10:04:00	AWS2	6.89	225	9.00	228	M	M	M	NA	NA	1003.1	NA	NA		M	NA	NA	NA	NA
2019/08/11 10:05:00	AWS2	6.30	229	9.00	228	M	M	M	NA	NA	1003.4	NA	NA		M	NA	NA	NA	NA
2019/08/11 10:06:00	AWS2	6.41	231	9.00	228	M	M	M	NA	NA	1003.2	NA	NA		M	NA	NA	NA	NA
2019/08/11 10:07:00	AWS2	6.88	226	9.00	228	M	M	M	NA	NA	1003.3	NA	NA		M	NA	NA	NA	NA
2019/08/11 10:08:00	AWS2	6.93	224	9.00	228	M	M	M	NA	NA	1003.3	NA	NA		M	NA	NA	NA	NA
2019/08/11 10:09:00	AWS2	6.50	227	9.00	228	M	M	M	NA	NA	1003.2	NA	NA		M	NA	NA	NA	NA
2019/08/11 10:10:00	AWS2	6.18	229	9.00	228	M	M	M	NA	NA	1003.5	NA	NA		M	NA	NA	NA	NA
2019/08/11 10:11:00	AWS2	6.48	226	9.00	228	M	M	M	NA	NA	1003.0	NA	NA		M	NA	NA	NA	NA
2019/08/11 10:12:00	AWS2	6.85	221	9.00	228	M	M	M	NA	NA	1003.0	NA	NA		M	NA	NA	NA	NA
2019/08/11 10:13:00	AWS2	6.32	219	7.82	216	M	M	M	NA	NA	1003.3	NA	NA		M	NA	NA	NA	NA
2019/08/11 10:14:00	AWS2	6.07	219	7.82	216	M	M	M	NA	NA	1003.0	NA	NA		M	NA	NA	NA	NA
2019/08/11 10:15:00	AWS2	5.92	217	7.82	216	M	M	M	NA	NA	1003.1	NA	NA		M	NA	NA	NA	NA
2019/08/11 10:16:00	AWS2	5.67	217	7.82	216	M	M	M	NA	NA	1003.2	NA	NA		M	NA	NA	NA	NA
2019/08/11 10:17:00	AWS2	5.60	220	7.82	216	M	M	M	NA	NA	1003.4	NA	NA		M	NA	NA	NA	NA
2019/08/11 10:18:00	AWS2	6.09	220	7.72	220	M	M	M	NA	NA	1003.3	NA	NA		M	NA	NA	NA	NA
2019/08/11 10:19:00	AWS2	6.01	223	7.72	220	M	M	M	NA	NA	1003.5	NA	NA		M	NA	NA	NA	NA
2019/08/11 10:20:00	AWS2	5.49	230	7.72	220	M	M	M	NA	NA	1003.6	NA	NA		M	NA	NA	NA	NA
2019/08/11 10:21:00	AWS2	5.94	232	7.72	220	M	M	M	NA	NA	1003.5	NA	NA		M	NA	NA	NA	NA
2019/08/11 10:22:00	AWS2	6.04	228	7.72	220	M	M	M	NA	NA	1002.9	NA	NA		M	NA	NA	NA	NA
2019/08/11 10:23:00	AWS2	5.93	227	7.72	220	M	M	M	NA	NA	1003.3	NA	NA		M	NA	NA	NA	NA
2019/08/11 10:24:00	AWS2	6.00	228	7.72	220	M	M	M	NA	NA	1003.1	NA	NA		M	NA	NA	NA	NA
2019/08/11 10:25:00	AWS2	6.11	223	7.72	220	M	M	M	NA	NA	1003.1	NA	NA		M	NA	NA	NA	NA
2019/08/11 10:26:00	AWS2	6.21	222	7.72	220	M	M	M	NA	NA	1003.0	NA	NA		M	NA	NA	NA	NA
2019/08/11 10:27:00	AWS2	6.13	225	7.72	220	M	M	M	NA	NA	1003.0	NA	NA		M	NA	NA	NA	NA
2019/08/11 10:28:00	AWS2	6.63	230	7.72	239	M	M	M	NA	NA	1003.4	NA	NA		M	NA	NA	NA	NA
2019/08/11 10:29:00	AWS2	7.41	235	8.39	238	M	M	M	NA	NA	1002.9	NA	NA		M	NA	NA	NA	NA
2019/08/11 10:30:00	AWS2	7.05	229	8.39	238	M	M	M	NA	NA	1003.1	NA	NA		M	NA	NA	NA	NA
2019/08/11 10:31:00	AWS2	6.63	225	8.39	238	M	M	M	NA	NA	1002.9	NA	NA		M	NA	NA	NA	NA
2019/08/11 10:32:00	AWS2	7.19	229	8.54	234	M	M	M	NA	NA	1003.2	NA	NA		M	NA	NA	NA	NA
2019/08/11 10:33:00	AWS2	8.02	231	9.11	233	M	M	M	NA	NA	1003.2	NA	NA		M	NA	NA	NA	NA
2019/08/11 10:34:00	AWS2	8.57	230	9.57	229	M	M	M	NA	NA	1003.2	NA	NA		M	NA	NA	NA	NA
2019/08/11 10:35:00	AWS2	8.27	232	9.57	229	M	M	M	NA	NA	1003.1	NA	NA		M	NA	NA	NA	NA
2019/08/11 10:36:00	AWS2	7.67	229	9.57	229	M	M	M	NA	NA	1003.1	NA	NA		M	NA	NA	NA	NA
2019/08/11 10:37:00	AWS2	6.30	223	9.57	229	M	M	M	NA	NA	1003.0	NA	NA		M	NA	NA	NA	NA
2019/08/11 10:38:00	AWS2	5.85	226	9.57	229	M	M	M	NA	NA	1003.2	NA	NA		M	NA	NA	NA	NA
2019/08/11 10:39:00	AWS2	6.84	233	9.57	229	M	M	M	NA	NA	1003.1	NA	NA		M	NA	NA	NA	NA
2019/08/11 10:40:00	AWS2	6.78	232	9.57	229	M	M	M	NA	NA	1003.1	NA	NA		M	NA	NA	NA	NA
2019/08/11 10:41:00	AWS2	6.20	221	9.57	229	M	M	M	NA	NA	1003.4	NA	NA		M	NA	NA	NA	NA
2019/08/11 10:42:00	AWS2	6.42	211	9.57	229	M	M	M	NA	NA	1002.9	NA	NA		M	NA	NA	NA	NA
2019/08/11 10:43:00	AWS2	6.98	207	9.57	229	M	M	M	NA	NA	1003.2	NA	NA		M	NA	NA	NA	NA
2019/08/11 10:44:00	AWS2	6.56	206	9.52	229	M	M	M	NA	NA	1003.1	NA	NA		M	NA	NA	NA	NA
2019/08/11 10:45:00	AWS2	5.86	209	9.52	229	M	M	M	NA	NA	1003.1	NA	NA		M	NA	NA	NA	NA
2019/08/11 10:46:00	AWS2	5.50	215	7.87	212	M	M	M	NA	NA	1003.2	NA	NA		M	NA	NA	NA	NA
2019/08/11 10:47:00	AWS2	5.28	217	7.87	212	M	M	M	NA	NA	1002.8	NA	NA		M	NA	NA	NA	NA
2019/08/11 10:48:00	AWS2	5.18	213	7.87	212	M	M	M	NA	NA	1003.1	NA	NA		M	NA	NA	NA	NA
2019/08/11 10:49:00	AWS2	5.45	214	7.87	212	M	M	M	NA	NA	1003.1	NA	NA		M	NA	NA	NA	NA
2019/08/11 10:50:00	AWS2	6.08	214	7.87	212	M	M	M	NA	NA	1003.1	NA	NA		M	NA	NA	NA	NA
2019/08/11 10:51:00	AWS2	5.95	214	7.87	212	M	M	M	NA	NA	1003.1	NA	NA		M	NA	NA	NA	NA
2019/08/11 10:52:00	AWS2	5.25	222	7.61	206	M	M	M	NA	NA	1002.8	NA	NA		M	NA	NA	NA	NA
2019/08/11 10:53:00	AWS2	5.07	222	7.36	217	M	M	M	NA	NA	1003.2	NA	NA		M	NA	NA	NA	NA
2019/08/11 10:54:00	AWS2	5.79	219	7.41	220	M	M	M	NA	NA	1003.1	NA	NA		M	NA	NA	NA	NA
2019/08/11 10:55:00	AWS2	6.46	216	7.56	213	M	M	M	NA	NA	1003.1	NA	NA		M	NA	NA	NA	NA
2019/08/11 10:56:00	AWS2	6.46	210	7.56	213	M	M	M	NA	NA	1003.3	NA	NA		M	NA	NA	NA	NA
2019/08/11 10:57:00	AWS2	5.87	210	7.56	213	M	M	M	NA	NA	1003.1	NA	NA		M	NA	NA	NA	NA
2019/08/11 10:58:00	AWS2	5.04	211	7.56	213	M	M	M	NA	NA	1003.3	NA	NA		M	NA	NA	NA	NA
2019/08/11 10:59:00	AWS2	4.80	218	7.56	213	M	M	M	NA	NA	1003.4	NA	NA		M	NA	NA	NA	NA
2019/08/11 11:00:00	AWS2	5.03	215	7.56	213	M	M	M	NA	NA	1003.3	NA	NA		M	NA	NA	NA	NA
2019/08/11 11:01:00	AWS2	5.61	203	7.56	213	M	M	M	NA	NA	1003.2	NA	NA		M	NA	NA	NA	NA
2019/08/11 11:02:00	AWS2	6.03	209	7.56	213	M	M	M	NA	NA	1003.3	NA	NA		M	NA	NA	NA	NA
2019/08/11 11:03:00	AWS2	5.98	215	7.56	213	M	M	M	NA	NA	1003.3	NA	NA		M	NA	NA	NA	NA
2019/08/11 11:04:00	AWS2	5.25	217	7.56	213	M	M	M	NA	NA	1003.4	NA	NA		M	NA	NA	NA	NA
2019/08/11 11:05:00	AWS2	4.88	224	7.25	213	M	M	M	NA	NA	1003.4	NA	NA		M	NA	NA	NA	NA
2019/08/11 11:06:00	AWS2	5.55	232	7.15	218	M	M	M	NA	NA	1003.3	NA	NA		M	NA	NA	NA	NA
2019/08/11 11:07:00	AWS2	6.08	240	7.36	239	M	M	M	NA	NA	1003.1	NA	NA		M	NA	NA	NA	NA
2019/08/11 11:08:00	AWS2	6.45	242	7.36	239	M	M	M	NA	NA	1003.1	NA	NA		M	NA	NA	NA	NA
2019/08/11 11:09:00	AWS2	6.50	240	7.36	239	M	M	M	NA	NA	1003.0	NA	NA		M	NA	NA	NA	NA
2019/08/11 11:10:00	AWS2	6.65	240	8.03	239	M	M	M	NA	NA	1003.2	NA	NA		M	NA	NA	NA	NA
2019/08/11 11:11:00	AWS2	6.58	236	8.03	239	M	M	M	NA	NA	1003.2	NA	NA		M	NA	NA	NA	NA
2019/08/11 11:12:00	AWS2	5.39	235	8.03	239	M	M	M	NA	NA	1003.0	NA	NA		M	NA	NA	NA	NA
2019/08/11 11:13:00	AWS2	5.46	239	8.03	239	M	M	M	NA	NA	1003.1	NA	NA		M	NA	NA	NA	NA
2019/08/11 11:14:00	AWS2	6.47	235	8.03	239	M	M	M	NA	NA	1003.1	NA	NA		M	NA	NA	NA	NA
2019/08/11 11:15:00	AWS2	6.84	223	8.28	220	M	M	M	NA	NA	1003.0	NA	NA		M	NA	NA	NA	NA
2019/08/11 11:16:00	AWS2	6.68	219	8.28	220	M	M	M	NA	NA	1003.0	NA	NA		M	NA	NA	NA	NA
2019/08/11 11:17:00	AWS2	6.18	226	8.28	220	M	M	M	NA	NA	1002.9	NA	NA		M	NA	NA	NA	NA
2019/08/11 11:18:00	AWS2	5.43	229	8.28	220	M	M	M	NA	NA	1003.0	NA	NA		M	NA	NA	NA	NA
2019/08/11 11:19:00	AWS2	5.39	223	8.28	220	M	M	M	NA	NA	1003.2	NA	NA		M	NA	NA	NA	NA
2019/08/11 11:20:00	AWS2	6.53	219	8.28	220	M	M	M	NA	NA	1003.0	NA	NA		M	NA	NA	NA	NA
2019/08/11 11:21:00	AWS2	7.01	215	8.28	220	M	M	M	NA	NA	1002.9	NA	NA		M	NA	NA	NA	NA
2019/08/11 11:22:00	AWS2	6.67	214	8.28	220	M	M	M	NA	NA	1003.0	NA	NA		M	NA	NA	NA	NA
2019/08/11 11:23:00	AWS2	5.57	215	8.28	220	M	M	M	NA	NA	1003.1	NA	NA		M	NA	NA	NA	NA
2019/08/11 11:24:00	AWS2	5.40	221	8.28	220	M	M	M	NA	NA	1003.0	NA	NA		M	NA	NA	NA	NA
2019/08/11 11:25:00	AWS2	6.30	228	7.92	221	M	M	M	NA	NA	1003.2	NA	NA		M	NA	NA	NA	NA
2019/08/11 11:26:00	AWS2	6.12	231	7.92	221	M	M	M	NA	NA	1003.3	NA	NA		M	NA	NA	NA	NA
2019/08/11 11:27:00	AWS2	5.39	233	7.92	221	M	M	M	NA	NA	1003.0	NA	NA		M	NA	NA	NA	NA
2019/08/11 11:28:00	AWS2	5.04	237	7.92	221	M	M	M	NA	NA	1003.3	NA	NA		M	NA	NA	NA	NA
2019/08/11 11:29:00	AWS2	5.27	235	7.92	221	M	M	M	NA	NA	1003.2	NA	NA		M	NA	NA	NA	NA
2019/08/11 11:30:00	AWS2	5.71	228	7.72	216	M	M	M	NA	NA	1003.2	NA	NA		M	NA	NA	NA	NA
2019/08/11 11:31:00	AWS2	5.93	224	7.31	225	M	M	M	NA	NA	1003.2	NA	NA		M	NA	NA	NA	NA
2019/08/11 11:32:00	AWS2	5.62	227	7.31	225	M	M	M	NA	NA	1003.4	NA	NA		M	NA	NA	NA	NA
2019/08/11 11:33:00	AWS2	5.38	230	7.31	225	M	M	M	NA	NA	1003.2	NA	NA		M	NA	NA	NA	NA
2019/08/11 11:34:00	AWS2	5.29	227	7.31	225	M	M	M	NA	NA	1003.3	NA	NA		M	NA	NA	NA	NA
2019/08/11 11:35:00	AWS2	5.67	225	7.31	225	M	M	M	NA	NA	1003.0	NA	NA		M	NA	NA	NA	NA
2019/08/11 11:36:00	AWS2	6.54	226	7.77	228	M	M	M	NA	NA	1003.2	NA	NA		M	NA	NA	NA	NA
2019/08/11 11:37:00	AWS2	6.08	224	7.77	228	M	M	M	NA	NA	1002.7	NA	NA		M	NA	NA	NA	NA
2019/08/11 11:38:00	AWS2	4.89	226	7.77	228	M	M	M	NA	NA	1003.2	NA	NA		M	NA	NA	NA	NA
2019/08/11 11:39:00	AWS2	4.67	224	7.77	228	M	M	M	NA	NA	1003.4	NA	NA		M	NA	NA	NA	NA
2019/08/11 11:40:00	AWS2	5.44	216	7.77	228	M	M	M	NA	NA	1003.3	NA	NA		M	NA	NA	NA	NA
2019/08/11 11:41:00	AWS2	5.97	210	7.77	228	M	M	M	NA	NA	1003.2	NA	NA		M	NA	NA	NA	NA
2019/08/11 11:42:00	AWS2	5.58	210	7.77	228	M	M	M	NA	NA	1003.2	NA	NA		M	NA	NA	NA	NA
2019/08/11 11:43:00	AWS2	4.98	215	7.77	228	M	M	M	NA	NA	1003.2	NA	NA		M	NA	NA	NA	NA
2019/08/11 11:44:00	AWS2	4.58	219	7.77	228	M	M	M	NA	NA	1003.4	NA	NA		M	NA	NA	NA	NA
2019/08/11 11:45:00	AWS2	4.72	223	7.77	228	M	M	M	NA	NA	1003.1	NA	NA		M	NA	NA	NA	NA
2019/08/11 11:46:00	AWS2	4.96	225	6.38	210	M	M	M	NA	NA	1003.3	NA	NA		M	NA	NA	NA	NA
2019/08/11 11:47:00	AWS2	4.93	232	6.38	210	M	M	M	NA	NA	1002.8	NA	NA		M	NA	NA	NA	NA
2019/08/11 11:48:00	AWS2	4.59	233	6.38	210	M	M	M	NA	NA	1003.3	NA	NA		M	NA	NA	NA	NA
2019/08/11 11:49:00	AWS2	5.16	224	7.67	218	M	M	M	NA	NA	1003.1	NA	NA		M	NA	NA	NA	NA
2019/08/11 11:50:00	AWS2	6.21	220	7.67	218	M	M	M	NA	NA	1003.2	NA	NA		M	NA	NA	NA	NA
2019/08/11 11:51:00	AWS2	6.42	226	7.67	218	M	M	M	NA	NA	1003.0	NA	NA		M	NA	NA	NA	NA
2019/08/11 11:52:00	AWS2	6.31	230	7.67	218	M	M	M	NA	NA	1002.9	NA	NA		M	NA	NA	NA	NA
2019/08/11 11:53:00	AWS2	5.59	221	7.67	218	M	M	M	NA	NA	1003.1	NA	NA		M	NA	NA	NA	NA
2019/08/11 11:54:00	AWS2	5.47	210	7.67	218	M	M	M	NA	NA	1003.1	NA	NA		M	NA	NA	NA	NA
2019/08/11 11:55:00	AWS2	5.35	203	7.67	218	M	M	M	NA	NA	1003.2	NA	NA		M	NA	NA	NA	NA
2019/08/11 11:56:00	AWS2	4.59	200	7.67	218	M	M	M	NA	NA	1003.3	NA	NA		M	NA	NA	NA	NA
2019/08/11 11:57:01	AWS2	4.69	205	7.67	218	M	M	M	NA	NA	1003.2	NA	NA		M	NA	NA	NA	NA
2019/08/11 11:58:00	AWS2	5.71	209	7.67	218	M	M	M	NA	NA	1003.2	NA	NA		M	NA	NA	NA	NA
2019/08/11 11:59:00	AWS2	6.32	213	7.67	218	M	M	M	NA	NA	1002.9	NA	NA		M	NA	NA	NA	NA
2019/08/11 12:00:00	AWS2	6.41	216	7.36	208	M	M	M	NA	NA	1003.0	NA	NA		M	NA	NA	NA	NA
2019/08/11 12:01:00	AWS2	5.56	214	7.36	208	M	M	M	NA	NA	1003.4	NA	NA		M	NA	NA	NA	NA
2019/08/11 12:02:01	AWS2	4.43	213	7.36	208	M	M	M	NA	NA	1003.2	NA	NA		M	NA	NA	NA	NA
2019/08/11 12:03:00	AWS2	3.77	211	7.36	208	M	M	M	NA	NA	1003.0	NA	NA		M	NA	NA	NA	NA
2019/08/11 12:04:00	AWS2	4.15	212	7.36	208	M	M	M	NA	NA	1003.1	NA	NA		M	NA	NA	NA	NA
2019/08/11 12:05:00	AWS2	4.57	215	7.36	208	M	M	M	NA	NA	1003.4	NA	NA		M	NA	NA	NA	NA
2019/08/11 12:06:00	AWS2	4.03	212	7.36	208	M	M	M	NA	NA	1003.0	NA	NA		M	NA	NA	NA	NA
2019/08/11 12:07:00	AWS2	4.07	211	7.36	208	M	M	M	NA	NA	1002.9	NA	NA		M	NA	NA	NA	NA
2019/08/11 12:08:00	AWS2	5.12	211	7.31	205	M	M	M	NA	NA	1003.0	NA	NA		M	NA	NA	NA	NA
2019/08/11 12:09:00	AWS2	6.29	212	7.97	198	M	M	M	NA	NA	1002.9	NA	NA		M	NA	NA	NA	NA
2019/08/11 12:10:00	AWS2	6.86	216	7.97	198	M	M	M	NA	NA	1003.2	NA	NA		M	NA	NA	NA	NA
2019/08/11 12:11:00	AWS2	6.93	218	7.97	198	M	M	M	NA	NA	1003.0	NA	NA		M	NA	NA	NA	NA
2019/08/11 12:12:00	AWS2	6.27	221	7.97	198	M	M	M	NA	NA	1002.8	NA	NA		M	NA	NA	NA	NA
2019/08/11 12:13:00	AWS2	5.65	226	7.97	198	M	M	M	NA	NA	1003.1	NA	NA		M	NA	NA	NA	NA
2019/08/11 12:14:00	AWS2	6.16	216	7.97	198	M	M	M	NA	NA	1002.8	NA	NA		M	NA	NA	NA	NA
2019/08/11 12:15:00	AWS2	7.00	206	7.97	198	M	M	M	NA	NA	1003.2	NA	NA		M	NA	NA	NA	NA
2019/08/11 12:16:00	AWS2	7.03	210	7.97	198	M	M	M	NA	NA	1003.4	NA	NA		M	NA	NA	NA	NA
2019/08/11 12:17:00	AWS2	6.43	216	7.97	198	M	M	M	NA	NA	1003.2	NA	NA		M	NA	NA	NA	NA
2019/08/11 12:18:00	AWS2	5.97	220	7.97	198	M	M	M	NA	NA	1003.0	NA	NA		M	NA	NA	NA	NA
2019/08/11 12:19:00	AWS2	5.71	224	7.77	225	M	M	M	NA	NA	1003.1	NA	NA		M	NA	NA	NA	NA
2019/08/11 12:20:00	AWS2	4.93	222	7.72	205	M	M	M	NA	NA	1003.0	NA	NA		M	NA	NA	NA	NA
2019/08/11 12:21:00	AWS2	5.24	214	7.72	205	M	M	M	NA	NA	1003.3	NA	NA		M	NA	NA	NA	NA
2019/08/11 12:22:00	AWS2	6.44	211	7.72	205	M	M	M	NA	NA	1003.1	NA	NA		M	NA	NA	NA	NA
2019/08/11 12:23:00	AWS2	6.42	215	7.72	205	M	M	M	NA	NA	1003.1	NA	NA		M	NA	NA	NA	NA
2019/08/11 12:24:00	AWS2	6.24	211	7.72	205	M	M	M	NA	NA	1003.2	NA	NA		M	NA	NA	NA	NA
2019/08/11 12:25:00	AWS2	6.75	204	7.72	206	M	M	M	NA	NA	1003.1	NA	NA		M	NA	NA	NA	NA
2019/08/11 12:26:00	AWS2	6.51	205	7.72	206	M	M	M	NA	NA	1003.2	NA	NA		M	NA	NA	NA	NA
2019/08/11 12:27:00	AWS2	5.53	206	7.72	206	M	M	M	NA	NA	1003.1	NA	NA		M	NA	NA	NA	NA
2019/08/11 12:28:00	AWS2	5.15	209	7.72	206	M	M	M	NA	NA	1003.2	NA	NA		M	NA	NA	NA	NA
2019/08/11 12:29:00	AWS2	5.64	214	7.72	206	M	M	M	NA	NA	1003.3	NA	NA		M	NA	NA	NA	NA
2019/08/11 12:30:00	AWS2	5.49	217	7.72	206	M	M	M	NA	NA	1003.4	NA	NA		M	NA	NA	NA	NA
2019/08/11 12:31:00	AWS2	5.13	219	7.72	206	M	M	M	NA	NA	1003.3	NA	NA		M	NA	NA	NA	NA
2019/08/11 12:32:00	AWS2	5.17	216	7.72	206	M	M	M	NA	NA	1003.0	NA	NA		M	NA	NA	NA	NA
2019/08/11 12:33:00	AWS2	5.81	209	7.82	200	M	M	M	NA	NA	1003.2	NA	NA		M	NA	NA	NA	NA
2019/08/11 12:34:00	AWS2	6.32	202	7.82	200	M	M	M	NA	NA	1003.3	NA	NA		M	NA	NA	NA	NA
2019/08/11 12:35:00	AWS2	5.72	201	7.82	200	M	M	M	NA	NA	1003.6	NA	NA		M	NA	NA	NA	NA
2019/08/11 12:36:00	AWS2	5.25	204	7.82	200	M	M	M	NA	NA	1003.2	NA	NA		M	NA	NA	NA	NA
2019/08/11 12:37:00	AWS2	5.03	211	7.82	200	M	M	M	NA	NA	1003.1	NA	NA		M	NA	NA	NA	NA
2019/08/11 12:38:00	AWS2	5.85	218	7.87	222	M	M	M	NA	NA	1003.0	NA	NA		M	NA	NA	NA	NA
2019/08/11 12:39:00	AWS2	6.68	219	7.87	222	M	M	M	NA	NA	1003.1	NA	NA		M	NA	NA	NA	NA
2019/08/11 12:40:00	AWS2	6.58	213	7.87	222	M	M	M	NA	NA	1003.0	NA	NA		M	NA	NA	NA	NA
2019/08/11 12:41:00	AWS2	6.22	214	7.87	222	M	M	M	NA	NA	1003.0	NA	NA		M	NA	NA	NA	NA
2019/08/11 12:42:00	AWS2	5.53	219	7.87	222	M	M	M	NA	NA	1003.0	NA	NA		M	NA	NA	NA	NA
2019/08/11 12:43:00	AWS2	5.62	227	7.87	222	M	M	M	NA	NA	1002.9	NA	NA		M	NA	NA	NA	NA
2019/08/11 12:44:00	AWS2	5.27	237	7.87	222	M	M	M	NA	NA	1003.0	NA	NA		M	NA	NA	NA	NA
2019/08/11 12:45:00	AWS2	4.19	239	7.87	222	M	M	M	NA	NA	1002.9	NA	NA		M	NA	NA	NA	NA
2019/08/11 12:46:00	AWS2	4.75	229	7.87	222	M	M	M	NA	NA	1002.8	NA	NA		M	NA	NA	NA	NA
2019/08/11 12:47:00	AWS2	6.32	216	7.87	222	M	M	M	NA	NA	1002.6	NA	NA		M	NA	NA	NA	NA
2019/08/11 12:48:00	AWS2	6.61	221	7.56	214	M	M	M	NA	NA	1002.7	NA	NA		M	NA	NA	NA	NA
2019/08/11 12:49:00	AWS2	5.98	229	7.56	214	M	M	M	NA	NA	1002.8	NA	NA		M	NA	NA	NA	NA
2019/08/11 12:50:00	AWS2	5.48	228	7.56	214	M	M	M	NA	NA	1002.9	NA	NA		M	NA	NA	NA	NA
2019/08/11 12:51:00	AWS2	5.78	225	7.56	214	M	M	M	NA	NA	1002.8	NA	NA		M	NA	NA	NA	NA
2019/08/11 12:52:00	AWS2	6.27	226	7.56	214	M	M	M	NA	NA	1002.7	NA	NA		M	NA	NA	NA	NA
2019/08/11 12:53:00	AWS2	6.03	227	7.56	214	M	M	M	NA	NA	1003.0	NA	NA		M	NA	NA	NA	NA
2019/08/11 12:54:00	AWS2	6.31	222	7.56	214	M	M	M	NA	NA	1002.6	NA	NA		M	NA	NA	NA	NA
2019/08/11 12:55:00	AWS2	6.14	217	7.56	214	M	M	M	NA	NA	1002.9	NA	NA		M	NA	NA	NA	NA
2019/08/11 12:56:00	AWS2	5.19	215	7.56	214	M	M	M	NA	NA	1002.9	NA	NA		M	NA	NA	NA	NA
2019/08/11 12:57:00	AWS2	4.80	222	7.31	215	M	M	M	NA	NA	1002.9	NA	NA		M	NA	NA	NA	NA
2019/08/11 12:58:00	AWS2	5.15	215	7.31	215	M	M	M	NA	NA	1002.9	NA	NA		M	NA	NA	NA	NA
2019/08/11 12:59:00	AWS2	5.59	197	7.31	215	M	M	M	NA	NA	1002.7	NA	NA		M	NA	NA	NA	NA
2019/08/11 13:00:00	AWS2	5.10	196	7.31	215	M	M	M	NA	NA	1002.9	NA	NA		M	NA	NA	NA	NA
2019/08/11 13:01:00	AWS2	4.28	205	7.31	215	M	M	M	NA	NA	1003.0	NA	NA		M	NA	NA	NA	NA
2019/08/11 13:02:00	AWS2	4.13	211	7.31	215	M	M	M	NA	NA	1002.9	NA	NA		M	NA	NA	NA	NA
2019/08/11 13:03:00	AWS2	5.11	223	7.31	215	M	M	M	NA	NA	1003.0	NA	NA		M	NA	NA	NA	NA
2019/08/11 13:04:00	AWS2	5.91	233	6.89	236	M	M	M	NA	NA	1003.1	NA	NA		M	NA	NA	NA	NA
2019/08/11 13:05:00	AWS2	4.98	231	6.89	236	M	M	M	NA	NA	1003.0	NA	NA		M	NA	NA	NA	NA
2019/08/11 13:06:00	AWS2	4.26	236	6.89	236	M	M	M	NA	NA	1002.8	NA	NA		M	NA	NA	NA	NA
2019/08/11 13:07:00	AWS2	4.91	239	6.89	236	M	M	M	NA	NA	1002.6	NA	NA		M	NA	NA	NA	NA
2019/08/11 13:08:00	AWS2	5.44	229	6.89	236	M	M	M	NA	NA	1002.8	NA	NA		M	NA	NA	NA	NA
2019/08/11 13:09:00	AWS2	6.00	228	7.51	223	M	M	M	NA	NA	1003.1	NA	NA		M	NA	NA	NA	NA
2019/08/11 13:10:00	AWS2	6.29	230	7.51	223	M	M	M	NA	NA	1003.0	NA	NA		M	NA	NA	NA	NA
2019/08/11 13:11:00	AWS2	6.06	220	7.51	223	M	M	M	NA	NA	1002.9	NA	NA		M	NA	NA	NA	NA
2019/08/11 13:12:00	AWS2	6.50	211	7.51	223	M	M	M	NA	NA	1003.0	NA	NA		M	NA	NA	NA	NA
2019/08/11 13:13:00	AWS2	6.71	213	7.51	223	M	M	M	NA	NA	1002.7	NA	NA		M	NA	NA	NA	NA
2019/08/11 13:14:00	AWS2	6.52	215	7.51	223	M	M	M	NA	NA	1003.0	NA	NA		M	NA	NA	NA	NA
2019/08/11 13:15:00	AWS2	6.66	218	7.92	226	M	M	M	NA	NA	1002.9	NA	NA		M	NA	NA	NA	NA
2019/08/11 13:16:00	AWS2	6.54	222	7.92	226	M	M	M	NA	NA	1002.9	NA	NA		M	NA	NA	NA	NA
2019/08/11 13:17:00	AWS2	6.51	226	7.92	226	M	M	M	NA	NA	1003.0	NA	NA		M	NA	NA	NA	NA
2019/08/11 13:18:00	AWS2	5.98	228	7.92	226	M	M	M	NA	NA	1002.9	NA	NA		M	NA	NA	NA	NA
2019/08/11 13:19:00	AWS2	5.86	220	7.92	226	M	M	M	NA	NA	1002.8	NA	NA		M	NA	NA	NA	NA
2019/08/11 13:20:00	AWS2	6.14	212	7.92	226	M	M	M	NA	NA	1002.9	NA	NA		M	NA	NA	NA	NA
2019/08/11 13:21:00	AWS2	5.09	214	7.92	226	M	M	M	NA	NA	1003.1	NA	NA		M	NA	NA	NA	NA
2019/08/11 13:22:00	AWS2	5.14	213	7.92	226	M	M	M	NA	NA	1002.8	NA	NA		M	NA	NA	NA	NA
2019/08/11 13:23:00	AWS2	5.96	211	7.92	226	M	M	M	NA	NA	1002.8	NA	NA		M	NA	NA	NA	NA
2019/08/11 13:24:00	AWS2	5.92	214	7.92	226	M	M	M	NA	NA	1002.7	NA	NA		M	NA	NA	NA	NA
2019/08/11 13:25:00	AWS2	5.32	215	7.36	230	M	M	M	NA	NA	1002.7	NA	NA		M	NA	NA	NA	NA
2019/08/11 13:26:00	AWS2	4.72	217	7.36	230	M	M	M	NA	NA	1002.9	NA	NA		M	NA	NA	NA	NA
2019/08/11 13:27:00	AWS2	4.99	220	7.25	212	M	M	M	NA	NA	1002.9	NA	NA		M	NA	NA	NA	NA
2019/08/11 13:28:00	AWS2	5.41	220	7.25	212	M	M	M	NA	NA	1002.9	NA	NA		M	NA	NA	NA	NA
2019/08/11 13:29:00	AWS2	5.55	221	6.94	204	M	M	M	NA	NA	1002.6	NA	NA		M	NA	NA	NA	NA
2019/08/11 13:30:00	AWS2	5.50	223	6.94	204	M	M	M	NA	NA	1002.7	NA	NA		M	NA	NA	NA	NA
2019/08/11 13:31:00	AWS2	5.60	233	6.94	204	M	M	M	NA	NA	1002.8	NA	NA		M	NA	NA	NA	NA
2019/08/11 13:32:00	AWS2	6.33	242	8.08	238	M	M	M	NA	NA	1002.9	NA	NA		M	NA	NA	NA	NA
2019/08/11 13:33:00	AWS2	6.56	241	8.08	238	M	M	M	NA	NA	1003.0	NA	NA		M	NA	NA	NA	NA
2019/08/11 13:34:00	AWS2	5.91	238	8.08	238	M	M	M	NA	NA	1002.9	NA	NA		M	NA	NA	NA	NA
2019/08/11 13:35:00	AWS2	6.35	235	8.18	233	M	M	M	NA	NA	1003.0	NA	NA		M	NA	NA	NA	NA
2019/08/11 13:36:00	AWS2	7.01	236	8.18	233	M	M	M	NA	NA	1002.7	NA	NA		M	NA	NA	NA	NA
2019/08/11 13:37:00	AWS2	6.56	236	8.18	233	M	M	M	NA	NA	1002.6	NA	NA		M	NA	NA	NA	NA
2019/08/11 13:38:00	AWS2	5.58	239	8.18	233	M	M	M	NA	NA	1003.1	NA	NA		M	NA	NA	NA	NA
2019/08/11 13:39:00	AWS2	4.15	247	8.18	233	M	M	M	NA	NA	1003.3	NA	NA		M	NA	NA	NA	NA
2019/08/11 13:40:00	AWS2	3.42	247	8.18	233	M	M	M	NA	NA	1002.9	NA	NA		M	NA	NA	NA	NA
2019/08/11 13:41:00	AWS2	3.94	239	8.18	233	M	M	M	NA	NA	1003.0	NA	NA		M	NA	NA	NA	NA
2019/08/11 13:42:00	AWS2	5.04	232	8.18	233	M	M	M	NA	NA	1003.0	NA	NA		M	NA	NA	NA	NA
2019/08/11 13:43:00	AWS2	6.18	232	8.18	233	M	M	M	NA	NA	1003.0	NA	NA		M	NA	NA	NA	NA
2019/08/11 13:44:00	AWS2	6.79	234	8.18	233	M	M	M	NA	NA	1002.8	NA	NA		M	NA	NA	NA	NA
2019/08/11 13:45:00	AWS2	6.65	233	8.13	244	M	M	M	NA	NA	1002.9	NA	NA		M	NA	NA	NA	NA
2019/08/11 13:46:00	AWS2	6.23	230	8.13	244	M	M	M	NA	NA	1002.8	NA	NA		M	NA	NA	NA	NA
2019/08/11 13:47:00	AWS2	5.82	225	8.13	244	M	M	M	NA	NA	1002.6	NA	NA		M	NA	NA	NA	NA
2019/08/11 13:48:00	AWS2	5.61	223	8.13	244	M	M	M	NA	NA	1002.8	NA	NA		M	NA	NA	NA	NA
2019/08/11 13:49:00	AWS2	5.49	222	8.13	244	M	M	M	NA	NA	1002.9	NA	NA		M	NA	NA	NA	NA
2019/08/11 13:50:00	AWS2	5.34	225	8.13	244	M	M	M	NA	NA	1003.0	NA	NA		M	NA	NA	NA	NA
2019/08/11 13:51:00	AWS2	6.02	231	8.13	244	M	M	M	NA	NA	1003.0	NA	NA		M	NA	NA	NA	NA
2019/08/11 13:52:00	AWS2	6.09	235	8.13	244	M	M	M	NA	NA	1002.7	NA	NA		M	NA	NA	NA	NA
2019/08/11 13:53:00	AWS2	4.95	245	8.13	244	M	M	M	NA	NA	1002.7	NA	NA		M	NA	NA	NA	NA
2019/08/11 13:54:00	AWS2	4.36	252	7.67	232	M	M	M	NA	NA	1002.9	NA	NA		M	NA	NA	NA	NA
2019/08/11 13:55:00	AWS2	4.58	249	7.67	232	M	M	M	NA	NA	1002.6	NA	NA		M	NA	NA	NA	NA
2019/08/11 13:56:00	AWS2	5.84	253	8.23	262	M	M	M	NA	NA	1002.7	NA	NA		M	NA	NA	NA	NA
2019/08/11 13:57:00	AWS2	6.61	250	8.23	262	M	M	M	NA	NA	1002.4	NA	NA		M	NA	NA	NA	NA
2019/08/11 13:58:00	AWS2	5.86	241	8.23	262	M	M	M	NA	NA	1002.8	NA	NA		M	NA	NA	NA	NA
2019/08/11 13:59:00	AWS2	5.13	230	8.23	262	M	M	M	NA	NA	1002.7	NA	NA		M	NA	NA	NA	NA
2019/08/11 14:00:00	AWS2	5.83	219	8.39	226	M	M	M	NA	NA	1002.8	NA	NA		M	NA	NA	NA	NA
2019/08/11 14:01:00	AWS2	6.70	220	8.39	226	M	M	M	NA	NA	1002.6	NA	NA		M	NA	NA	NA	NA
2019/08/11 14:02:00	AWS2	6.88	225	8.39	226	M	M	M	NA	NA	1002.6	NA	NA		M	NA	NA	NA	NA
2019/08/11 14:03:00	AWS2	6.28	238	8.39	226	M	M	M	NA	NA	1002.9	NA	NA		M	NA	NA	NA	NA
2019/08/11 14:04:00	AWS2	5.61	245	8.39	226	M	M	M	NA	NA	1002.6	NA	NA		M	NA	NA	NA	NA
2019/08/11 14:05:00	AWS2	6.46	241	8.39	226	M	M	M	NA	NA	1002.8	NA	NA		M	NA	NA	NA	NA
2019/08/11 14:06:00	AWS2	6.26	238	8.39	226	M	M	M	NA	NA	1002.5	NA	NA		M	NA	NA	NA	NA
2019/08/11 14:07:00	AWS2	6.00	240	8.39	226	M	M	M	NA	NA	1002.7	NA	NA		M	NA	NA	NA	NA
2019/08/11 14:08:00	AWS2	6.82	237	8.39	226	M	M	M	NA	NA	1002.8	NA	NA		M	NA	NA	NA	NA
2019/08/11 14:09:00	AWS2	6.91	234	8.39	226	M	M	M	NA	NA	1002.5	NA	NA		M	NA	NA	NA	NA
2019/08/11 14:10:00	AWS2	6.60	233	7.97	230	M	M	M	NA	NA	1002.8	NA	NA		M	NA	NA	NA	NA
2019/08/11 14:11:00	AWS2	6.45	233	7.97	230	M	M	M	NA	NA	1002.6	NA	NA		M	NA	NA	NA	NA
2019/08/11 14:12:00	AWS2	6.87	231	7.92	235	M	M	M	NA	NA	1002.4	NA	NA		M	NA	NA	NA	NA
2019/08/11 14:13:00	AWS2	6.82	225	7.92	235	M	M	M	NA	NA	1002.7	NA	NA		M	NA	NA	NA	NA
2019/08/11 14:14:00	AWS2	6.27	225	7.87	234	M	M	M	NA	NA	1002.9	NA	NA		M	NA	NA	NA	NA
2019/08/11 14:15:00	AWS2	6.12	224	7.87	234	M	M	M	NA	NA	1002.9	NA	NA		M	NA	NA	NA	NA
2019/08/11 14:16:00	AWS2	6.64	226	8.44	233	M	M	M	NA	NA	1002.5	NA	NA		M	NA	NA	NA	NA
2019/08/11 14:17:00	AWS2	6.66	230	8.44	233	M	M	M	NA	NA	1002.5	NA	NA		M	NA	NA	NA	NA
2019/08/11 14:18:00	AWS2	6.46	233	8.44	234	M	M	M	NA	NA	1002.6	NA	NA		M	NA	NA	NA	NA
2019/08/11 14:19:00	AWS2	7.13	238	8.49	234	M	M	M	NA	NA	1002.7	NA	NA		M	NA	NA	NA	NA
2019/08/11 14:20:00	AWS2	7.33	239	8.49	234	M	M	M	NA	NA	1002.4	NA	NA		M	NA	NA	NA	NA
2019/08/11 14:21:00	AWS2	7.79	241	9.77	239	M	M	M	NA	NA	1002.3	NA	NA		M	NA	NA	NA	NA
2019/08/11 14:22:00	AWS2	7.72	247	9.77	239	M	M	M	NA	NA	1002.5	NA	NA		M	NA	NA	NA	NA
2019/08/11 14:23:00	AWS2	7.14	252	9.77	239	M	M	M	NA	NA	1002.4	NA	NA		M	NA	NA	NA	NA
2019/08/11 14:24:00	AWS2	6.92	250	9.77	239	M	M	M	NA	NA	1002.5	NA	NA		M	NA	NA	NA	NA
2019/08/11 14:25:00	AWS2	6.84	247	9.77	239	M	M	M	NA	NA	1002.2	NA	NA		M	NA	NA	NA	NA
2019/08/11 14:26:00	AWS2	7.02	243	9.77	239	M	M	M	NA	NA	1002.6	NA	NA		M	NA	NA	NA	NA
2019/08/11 14:27:00	AWS2	7.69	241	9.77	239	M	M	M	NA	NA	1002.2	NA	NA		M	NA	NA	NA	NA
2019/08/11 14:28:00	AWS2	8.15	240	9.77	239	M	M	M	NA	NA	1002.6	NA	NA		M	NA	NA	NA	NA
2019/08/11 14:29:00	AWS2	7.28	238	9.77	239	M	M	M	NA	NA	1002.5	NA	NA		M	NA	NA	NA	NA
2019/08/11 14:30:00	AWS2	7.37	236	9.77	239	M	M	M	NA	NA	1002.3	NA	NA		M	NA	NA	NA	NA
2019/08/11 14:31:00	AWS2	7.45	235	9.31	242	M	M	M	NA	NA	1002.3	NA	NA		M	NA	NA	NA	NA
2019/08/11 14:32:00	AWS2	6.35	242	9.31	242	M	M	M	NA	NA	1002.5	NA	NA		M	NA	NA	NA	NA
2019/08/11 14:33:00	AWS2	6.00	242	9.31	242	M	M	M	NA	NA	1002.3	NA	NA		M	NA	NA	NA	NA
2019/08/11 14:34:00	AWS2	6.44	237	9.31	242	M	M	M	NA	NA	1002.6	NA	NA		M	NA	NA	NA	NA
2019/08/11 14:35:00	AWS2	6.20	234	9.31	242	M	M	M	NA	NA	1002.4	NA	NA		M	NA	NA	NA	NA
2019/08/11 14:36:00	AWS2	6.12	229	9.31	242	M	M	M	NA	NA	1002.6	NA	NA		M	NA	NA	NA	NA
2019/08/11 14:37:01	AWS2	7.19	230	8.90	238	M	M	M	NA	NA	1002.3	NA	NA		M	NA	NA	NA	NA
2019/08/11 14:38:00	AWS2	8.03	236	9.26	240	M	M	M	NA	NA	1002.3	NA	NA		M	NA	NA	NA	NA
2019/08/11 14:39:00	AWS2	8.03	236	9.26	240	M	M	M	NA	NA	1002.4	NA	NA		M	NA	NA	NA	NA
2019/08/11 14:40:00	AWS2	7.44	235	9.26	240	M	M	M	NA	NA	1002.3	NA	NA		M	NA	NA	NA	NA
2019/08/11 14:41:00	AWS2	6.66	237	9.26	240	M	M	M	NA	NA	1002.6	NA	NA		M	NA	NA	NA	NA
2019/08/11 14:42:00	AWS2	6.38	244	9.26	240	M	M	M	NA	NA	1002.4	NA	NA		M	NA	NA	NA	NA
2019/08/11 14:43:00	AWS2	7.33	244	9.31	230	M	M	M	NA	NA	1002.4	NA	NA		M	NA	NA	NA	NA
2019/08/11 14:44:00	AWS2	7.96	239	9.31	230	M	M	M	NA	NA	1002.7	NA	NA		M	NA	NA	NA	NA
2019/08/11 14:45:00	AWS2	7.64	238	9.31	230	M	M	M	NA	NA	1002.5	NA	NA		M	NA	NA	NA	NA
2019/08/11 14:46:00	AWS2	7.05	236	9.31	230	M	M	M	NA	NA	1002.5	NA	NA		M	NA	NA	NA	NA
2019/08/11 14:47:00	AWS2	7.00	234	9.31	230	M	M	M	NA	NA	1002.8	NA	NA		M	NA	NA	NA	NA
2019/08/11 14:48:00	AWS2	7.57	231	9.31	230	M	M	M	NA	NA	1002.9	NA	NA		M	NA	NA	NA	NA
2019/08/11 14:49:00	AWS2	8.10	235	9.67	240	M	M	M	NA	NA	1002.6	NA	NA		M	NA	NA	NA	NA
2019/08/11 14:50:00	AWS2	8.56	243	10.55	243	M	M	M	NA	NA	1002.4	NA	NA		M	NA	NA	NA	NA
2019/08/11 14:51:00	AWS2	8.25	243	10.55	243	M	M	M	NA	NA	1002.6	NA	NA		M	NA	NA	NA	NA
2019/08/11 14:52:00	AWS2	7.42	238	10.55	243	M	M	M	NA	NA	1002.5	NA	NA		M	NA	NA	NA	NA
2019/08/11 14:53:00	AWS2	7.80	233	10.55	243	M	M	M	NA	NA	1002.7	NA	NA		M	NA	NA	NA	NA
2019/08/11 14:54:00	AWS2	7.95	228	10.55	243	M	M	M	NA	NA	1002.7	NA	NA		M	NA	NA	NA	NA
2019/08/11 14:55:00	AWS2	7.01	227	10.55	243	M	M	M	NA	NA	1002.9	NA	NA		M	NA	NA	NA	NA
2019/08/11 14:56:00	AWS2	7.44	228	10.55	243	M	M	M	NA	NA	1002.7	NA	NA		M	NA	NA	NA	NA
2019/08/11 14:57:00	AWS2	8.25	224	10.55	243	M	M	M	NA	NA	1002.6	NA	NA		M	NA	NA	NA	NA
2019/08/11 14:58:00	AWS2	8.27	227	10.55	243	M	M	M	NA	NA	1002.6	NA	NA		M	NA	NA	NA	NA
2019/08/11 14:59:00	AWS2	7.79	231	10.55	243	M	M	M	NA	NA	1002.8	NA	NA		M	NA	NA	NA	NA
2019/08/11 15:00:00	AWS2	7.40	230	10.08	233	M	M	M	NA	NA	1002.9	NA	NA		M	NA	NA	NA	NA
2019/08/11 15:01:00	AWS2	7.81	233	9.88	227	M	M	M	NA	NA	1002.7	NA	NA		M	NA	NA	NA	NA
2019/08/11 15:02:00	AWS2	8.21	230	9.88	227	M	M	M	NA	NA	1002.5	NA	NA		M	NA	NA	NA	NA
2019/08/11 15:03:00	AWS2	8.26	229	9.88	227	M	M	M	NA	NA	1002.7	NA	NA		M	NA	NA	NA	NA
2019/08/11 15:04:00	AWS2	7.25	227	9.88	227	M	M	M	NA	NA	1002.8	NA	NA		M	NA	NA	NA	NA
2019/08/11 15:05:00	AWS2	6.52	226	9.88	227	M	M	M	NA	NA	1002.7	NA	NA		M	NA	NA	NA	NA
2019/08/11 15:06:00	AWS2	6.98	228	9.88	227	M	M	M	NA	NA	1002.7	NA	NA		M	NA	NA	NA	NA
2019/08/11 15:07:00	AWS2	7.74	233	9.88	227	M	M	M	NA	NA	1002.7	NA	NA		M	NA	NA	NA	NA
2019/08/11 15:08:00	AWS2	7.99	238	9.88	227	M	M	M	NA	NA	1002.7	NA	NA		M	NA	NA	NA	NA
2019/08/11 15:09:00	AWS2	7.95	239	9.88	227	M	M	M	NA	NA	1002.7	NA	NA		M	NA	NA	NA	NA
2019/08/11 15:10:00	AWS2	8.07	237	9.88	227	M	M	M	NA	NA	1002.9	NA	NA		M	NA	NA	NA	NA
2019/08/11 15:11:00	AWS2	7.27	227	9.83	238	M	M	M	NA	NA	1002.9	NA	NA		M	NA	NA	NA	NA
2019/08/11 15:12:00	AWS2	7.33	227	9.83	238	M	M	M	NA	NA	1002.8	NA	NA		M	NA	NA	NA	NA
2019/08/11 15:13:00	AWS2	7.67	231	9.83	238	M	M	M	NA	NA	1002.8	NA	NA		M	NA	NA	NA	NA
2019/08/11 15:14:00	AWS2	7.73	234	9.83	238	M	M	M	NA	NA	1002.9	NA	NA		M	NA	NA	NA	NA
2019/08/11 15:15:00	AWS2	8.35	235	9.83	238	M	M	M	NA	NA	1002.8	NA	NA		M	NA	NA	NA	NA
2019/08/11 15:16:00	AWS2	8.77	232	10.44	216	M	M	M	NA	NA	1002.8	NA	NA		M	NA	NA	NA	NA
2019/08/11 15:17:00	AWS2	8.04	227	10.44	216	M	M	M	NA	NA	1002.6	NA	NA		M	NA	NA	NA	NA
2019/08/11 15:18:00	AWS2	7.14	229	10.44	216	M	M	M	NA	NA	1003.1	NA	NA		M	NA	NA	NA	NA
2019/08/11 15:19:00	AWS2	7.88	229	10.44	216	M	M	M	NA	NA	1002.7	NA	NA		M	NA	NA	NA	NA
2019/08/11 15:20:00	AWS2	8.50	223	10.44	216	M	M	M	NA	NA	1002.8	NA	NA		M	NA	NA	NA	NA
2019/08/11 15:21:00	AWS2	7.97	220	10.44	216	M	M	M	NA	NA	1002.8	NA	NA		M	NA	NA	NA	NA
2019/08/11 15:22:00	AWS2	7.77	217	10.44	216	M	M	M	NA	NA	1002.7	NA	NA		M	NA	NA	NA	NA
2019/08/11 15:23:00	AWS2	8.29	221	10.44	216	M	M	M	NA	NA	1002.6	NA	NA		M	NA	NA	NA	NA
2019/08/11 15:24:00	AWS2	8.76	225	10.44	216	M	M	M	NA	NA	1002.7	NA	NA		M	NA	NA	NA	NA
2019/08/11 15:25:00	AWS2	7.75	224	10.44	216	M	M	M	NA	NA	1002.4	NA	NA		M	NA	NA	NA	NA
2019/08/11 15:26:00	AWS2	6.78	221	10.34	229	M	M	M	NA	NA	1002.7	NA	NA		M	NA	NA	NA	NA
2019/08/11 15:27:00	AWS2	6.92	215	10.34	229	M	M	M	NA	NA	1002.9	NA	NA		M	NA	NA	NA	NA
2019/08/11 15:28:00	AWS2	7.46	215	10.34	229	M	M	M	NA	NA	1002.7	NA	NA		M	NA	NA	NA	NA
2019/08/11 15:29:00	AWS2	7.38	217	9.98	226	M	M	M	NA	NA	1002.5	NA	NA		M	NA	NA	NA	NA
2019/08/11 15:30:00	AWS2	7.27	213	9.77	226	M	M	M	NA	NA	1002.5	NA	NA		M	NA	NA	NA	NA
2019/08/11 15:31:00	AWS2	7.67	213	9.77	226	M	M	M	NA	NA	1002.7	NA	NA		M	NA	NA	NA	NA
2019/08/11 15:32:00	AWS2	7.38	219	9.77	226	M	M	M	NA	NA	1002.8	NA	NA		M	NA	NA	NA	NA
2019/08/11 15:33:00	AWS2	7.18	225	9.77	226	M	M	M	NA	NA	1002.9	NA	NA		M	NA	NA	NA	NA
2019/08/11 15:34:00	AWS2	6.52	225	9.00	212	M	M	M	NA	NA	1002.9	NA	NA		M	NA	NA	NA	NA
2019/08/11 15:35:00	AWS2	7.26	228	9.21	238	M	M	M	NA	NA	1002.7	NA	NA		M	NA	NA	NA	NA
2019/08/11 15:36:00	AWS2	8.83	229	10.24	236	M	M	M	NA	NA	1002.7	NA	NA		M	NA	NA	NA	NA
2019/08/11 15:37:00	AWS2	8.80	223	10.24	236	M	M	M	NA	NA	1002.6	NA	NA		M	NA	NA	NA	NA
2019/08/11 15:38:00	AWS2	8.21	220	10.24	236	M	M	M	NA	NA	1002.8	NA	NA		M	NA	NA	NA	NA
2019/08/11 15:39:00	AWS2	7.98	221	10.24	236	M	M	M	NA	NA	1002.6	NA	NA		M	NA	NA	NA	NA
2019/08/11 15:40:00	AWS2	7.86	220	10.24	236	M	M	M	NA	NA	1002.8	NA	NA		M	NA	NA	NA	NA
2019/08/11 15:41:00	AWS2	7.09	222	10.24	236	M	M	M	NA	NA	1003.0	NA	NA		M	NA	NA	NA	NA
2019/08/11 15:42:00	AWS2	7.30	217	10.24	236	M	M	M	NA	NA	1002.8	NA	NA		M	NA	NA	NA	NA
2019/08/11 15:43:00	AWS2	7.40	208	10.24	236	M	M	M	NA	NA	1002.7	NA	NA		M	NA	NA	NA	NA
2019/08/11 15:44:00	AWS2	6.71	205	10.24	236	M	M	M	NA	NA	1002.6	NA	NA		M	NA	NA	NA	NA
2019/08/11 15:45:00	AWS2	6.67	210	10.24	236	M	M	M	NA	NA	1002.9	NA	NA		M	NA	NA	NA	NA
2019/08/11 15:46:00	AWS2	7.41	217	9.47	222	M	M	M	NA	NA	1002.6	NA	NA		M	NA	NA	NA	NA
2019/08/11 15:47:00	AWS2	8.43	220	9.41	218	M	M	M	NA	NA	1002.6	NA	NA		M	NA	NA	NA	NA
2019/08/11 15:48:00	AWS2	8.18	224	9.41	218	M	M	M	NA	NA	1002.5	NA	NA		M	NA	NA	NA	NA
2019/08/11 15:49:00	AWS2	7.92	224	9.41	218	M	M	M	NA	NA	1002.6	NA	NA		M	NA	NA	NA	NA
2019/08/11 15:50:00	AWS2	7.69	216	9.41	218	M	M	M	NA	NA	1002.9	NA	NA		M	NA	NA	NA	NA
2019/08/11 15:51:00	AWS2	6.50	213	9.41	218	M	M	M	NA	NA	1003.0	NA	NA		M	NA	NA	NA	NA
2019/08/11 15:52:00	AWS2	5.97	218	9.41	218	M	M	M	NA	NA	1002.8	NA	NA		M	NA	NA	NA	NA
2019/08/11 15:53:00	AWS2	6.25	216	9.41	218	M	M	M	NA	NA	1002.6	NA	NA		M	NA	NA	NA	NA
2019/08/11 15:54:00	AWS2	6.74	209	9.41	218	M	M	M	NA	NA	1002.7	NA	NA		M	NA	NA	NA	NA
2019/08/11 15:55:00	AWS2	6.73	208	9.41	218	M	M	M	NA	NA	1002.5	NA	NA		M	NA	NA	NA	NA
2019/08/11 15:56:00	AWS2	6.43	213	9.41	218	M	M	M	NA	NA	1002.7	NA	NA		M	NA	NA	NA	NA
2019/08/11 15:57:00	AWS2	6.82	220	8.85	227	M	M	M	NA	NA	1002.3	NA	NA		M	NA	NA	NA	NA
2019/08/11 15:58:00	AWS2	7.36	223	8.85	227	M	M	M	NA	NA	1002.4	NA	NA		M	NA	NA	NA	NA
2019/08/11 15:59:00	AWS2	8.16	217	9.31	212	M	M	M	NA	NA	1002.1	NA	NA		M	NA	NA	NA	NA
2019/08/11 16:00:00	AWS2	8.41	214	9.31	212	M	M	M	NA	NA	1002.3	NA	NA		M	NA	NA	NA	NA
2019/08/11 16:01:00	AWS2	7.51	214	9.31	212	M	M	M	NA	NA	1002.2	NA	NA		M	NA	NA	NA	NA
2019/08/11 16:02:00	AWS2	7.06	212	9.31	212	M	M	M	NA	NA	1002.4	NA	NA		M	NA	NA	NA	NA
2019/08/11 16:03:00	AWS2	7.17	210	9.31	212	M	M	M	NA	NA	1002.4	NA	NA		M	NA	NA	NA	NA
2019/08/11 16:04:00	AWS2	7.42	208	9.31	212	M	M	M	NA	NA	1002.2	NA	NA		M	NA	NA	NA	NA
2019/08/11 16:05:00	AWS2	7.42	205	9.31	212	M	M	M	NA	NA	1002.3	NA	NA		M	NA	NA	NA	NA
2019/08/11 16:06:00	AWS2	6.91	204	9.31	212	M	M	M	NA	NA	1002.6	NA	NA		M	NA	NA	NA	NA
2019/08/11 16:07:00	AWS2	6.60	201	9.31	212	M	M	M	NA	NA	1002.3	NA	NA		M	NA	NA	NA	NA
2019/08/11 16:08:00	AWS2	6.43	200	9.31	212	M	M	M	NA	NA	1002.7	NA	NA		M	NA	NA	NA	NA
2019/08/11 16:09:00	AWS2	6.44	202	8.85	214	M	M	M	NA	NA	1002.5	NA	NA		M	NA	NA	NA	NA
2019/08/11 16:10:00	AWS2	6.93	205	8.64	209	M	M	M	NA	NA	1002.4	NA	NA		M	NA	NA	NA	NA
2019/08/11 16:11:00	AWS2	7.44	212	8.85	211	M	M	M	NA	NA	1002.3	NA	NA		M	NA	NA	NA	NA
2019/08/11 16:12:00	AWS2	7.35	218	8.85	211	M	M	M	NA	NA	1002.3	NA	NA		M	NA	NA	NA	NA
2019/08/11 16:13:00	AWS2	7.38	220	8.85	211	M	M	M	NA	NA	1002.3	NA	NA		M	NA	NA	NA	NA
2019/08/11 16:14:00	AWS2	7.67	226	8.85	211	M	M	M	NA	NA	1002.2	NA	NA		M	NA	NA	NA	NA
2019/08/11 16:15:00	AWS2	7.81	226	9.36	217	M	M	M	NA	NA	1002.2	NA	NA		M	NA	NA	NA	NA
2019/08/11 16:16:00	AWS2	7.96	221	9.36	217	M	M	M	NA	NA	1002.3	NA	NA		M	NA	NA	NA	NA
2019/08/11 16:17:00	AWS2	7.95	220	9.36	217	M	M	M	NA	NA	1002.1	NA	NA		M	NA	NA	NA	NA
2019/08/11 16:18:00	AWS2	7.59	222	9.36	217	M	M	M	NA	NA	1002.1	NA	NA		M	NA	NA	NA	NA
2019/08/11 16:19:00	AWS2	7.72	223	9.62	209	M	M	M	NA	NA	1001.9	NA	NA		M	NA	NA	NA	NA
2019/08/11 16:20:00	AWS2	8.22	214	9.62	209	M	M	M	NA	NA	1002.2	NA	NA		M	NA	NA	NA	NA
2019/08/11 16:21:00	AWS2	7.96	208	9.62	209	M	M	M	NA	NA	1002.2	NA	NA		M	NA	NA	NA	NA
2019/08/11 16:22:00	AWS2	7.76	210	9.62	209	M	M	M	NA	NA	1002.3	NA	NA		M	NA	NA	NA	NA
2019/08/11 16:23:00	AWS2	7.62	213	9.62	209	M	M	M	NA	NA	1002.3	NA	NA		M	NA	NA	NA	NA
2019/08/11 16:24:00	AWS2	7.07	212	9.62	209	M	M	M	NA	NA	1002.2	NA	NA		M	NA	NA	NA	NA
2019/08/11 16:25:00	AWS2	6.39	204	9.62	209	M	M	M	NA	NA	1002.4	NA	NA		M	NA	NA	NA	NA
2019/08/11 16:26:00	AWS2	6.13	206	9.62	209	M	M	M	NA	NA	1002.2	NA	NA		M	NA	NA	NA	NA
2019/08/11 16:27:00	AWS2	5.98	208	9.62	209	M	M	M	NA	NA	1002.2	NA	NA		M	NA	NA	NA	NA
2019/08/11 16:28:00	AWS2	5.79	206	9.62	209	M	M	M	NA	NA	1002.1	NA	NA		M	NA	NA	NA	NA
2019/08/11 16:29:00	AWS2	5.86	210	9.52	210	M	M	M	NA	NA	1002.2	NA	NA		M	NA	NA	NA	NA
2019/08/11 16:30:00	AWS2	6.30	214	9.41	214	M	M	M	NA	NA	1002.4	NA	NA		M	NA	NA	NA	NA
2019/08/11 16:31:00	AWS2	6.74	210	9.41	214	M	M	M	NA	NA	1002.2	NA	NA		M	NA	NA	NA	NA
2019/08/11 16:32:00	AWS2	6.96	209	9.41	214	M	M	M	NA	NA	1002.0	NA	NA		M	NA	NA	NA	NA
2019/08/11 16:33:00	AWS2	7.04	209	7.97	206	M	M	M	NA	NA	1002.2	NA	NA		M	NA	NA	NA	NA
2019/08/11 16:34:00	AWS2	6.46	207	7.72	214	M	M	M	NA	NA	1002.3	NA	NA		M	NA	NA	NA	NA
2019/08/11 16:35:00	AWS2	6.07	205	7.72	214	M	M	M	NA	NA	1002.3	NA	NA		M	NA	NA	NA	NA
2019/08/11 16:36:00	AWS2	5.76	202	7.72	214	M	M	M	NA	NA	1002.1	NA	NA		M	NA	NA	NA	NA
2019/08/11 16:37:00	AWS2	5.57	207	7.72	214	M	M	M	NA	NA	1002.0	NA	NA		M	NA	NA	NA	NA
2019/08/11 16:38:00	AWS2	5.72	208	7.72	214	M	M	M	NA	NA	1001.9	NA	NA		M	NA	NA	NA	NA
2019/08/11 16:39:00	AWS2	5.91	204	7.72	214	M	M	M	NA	NA	1001.8	NA	NA		M	NA	NA	NA	NA
2019/08/11 16:40:00	AWS2	6.20	208	7.72	214	M	M	M	NA	NA	1001.7	NA	NA		M	NA	NA	NA	NA
2019/08/11 16:41:00	AWS2	6.63	214	7.92	204	M	M	M	NA	NA	1001.8	NA	NA		M	NA	NA	NA	NA
2019/08/11 16:42:00	AWS2	7.69	211	9.67	205	M	M	M	NA	NA	1001.8	NA	NA		M	NA	NA	NA	NA
2019/08/11 16:43:00	AWS2	7.55	204	9.67	205	M	M	M	NA	NA	1002.1	NA	NA		M	NA	NA	NA	NA
2019/08/11 16:44:00	AWS2	6.09	201	9.67	205	M	M	M	NA	NA	1002.2	NA	NA		M	NA	NA	NA	NA
2019/08/11 16:45:00	AWS2	5.89	204	9.67	205	M	M	M	NA	NA	1002.2	NA	NA		M	NA	NA	NA	NA
2019/08/11 16:46:00	AWS2	5.91	209	9.67	205	M	M	M	NA	NA	1002.2	NA	NA		M	NA	NA	NA	NA
2019/08/11 16:47:00	AWS2	6.21	210	9.67	205	M	M	M	NA	NA	1001.9	NA	NA		M	NA	NA	NA	NA
2019/08/11 16:48:00	AWS2	7.06	209	9.67	205	M	M	M	NA	NA	1002.0	NA	NA		M	NA	NA	NA	NA
2019/08/11 16:49:00	AWS2	6.99	212	9.67	205	M	M	M	NA	NA	1002.0	NA	NA		M	NA	NA	NA	NA
2019/08/11 16:50:00	AWS2	6.43	213	9.67	205	M	M	M	NA	NA	1002.0	NA	NA		M	NA	NA	NA	NA
2019/08/11 16:51:00	AWS2	5.94	212	9.67	205	M	M	M	NA	NA	1002.1	NA	NA		M	NA	NA	NA	NA
2019/08/11 16:52:00	AWS2	5.77	206	8.18	211	M	M	M	NA	NA	1002.1	NA	NA		M	NA	NA	NA	NA
2019/08/11 16:53:00	AWS2	6.28	200	8.18	211	M	M	M	NA	NA	1002.1	NA	NA		M	NA	NA	NA	NA
2019/08/11 16:54:00	AWS2	7.21	206	8.39	207	M	M	M	NA	NA	1002.0	NA	NA		M	NA	NA	NA	NA
2019/08/11 16:55:00	AWS2	7.77	213	8.54	223	M	M	M	NA	NA	1001.8	NA	NA		M	NA	NA	NA	NA
2019/08/11 16:56:00	AWS2	7.35	213	8.54	223	M	M	M	NA	NA	1002.2	NA	NA		M	NA	NA	NA	NA
2019/08/11 16:57:00	AWS2	6.15	209	8.54	223	M	M	M	NA	NA	1001.9	NA	NA		M	NA	NA	NA	NA
2019/08/11 16:58:00	AWS2	5.50	206	8.54	223	M	M	M	NA	NA	1002.0	NA	NA		M	NA	NA	NA	NA
2019/08/11 16:59:00	AWS2	5.44	206	8.54	223	M	M	M	NA	NA	1002.2	NA	NA		M	NA	NA	NA	NA
2019/08/11 17:00:00	AWS2	5.72	209	8.54	223	M	M	M	NA	NA	1002.0	NA	NA		M	NA	NA	NA	NA
2019/08/11 17:01:00	AWS2	6.16	209	8.54	223	M	M	M	NA	NA	1002.1	NA	NA		M	NA	NA	NA	NA
2019/08/11 17:02:00	AWS2	6.79	199	8.54	223	M	M	M	NA	NA	1002.1	NA	NA		M	NA	NA	NA	NA
2019/08/11 17:03:00	AWS2	6.82	196	8.54	223	M	M	M	NA	NA	1002.1	NA	NA		M	NA	NA	NA	NA
2019/08/11 17:04:00	AWS2	6.02	197	8.54	223	M	M	M	NA	NA	1002.3	NA	NA		M	NA	NA	NA	NA
2019/08/11 17:05:00	AWS2	5.48	197	8.08	197	M	M	M	NA	NA	1002.1	NA	NA		M	NA	NA	NA	NA
2019/08/11 17:06:00	AWS2	5.86	200	8.08	197	M	M	M	NA	NA	1002.0	NA	NA		M	NA	NA	NA	NA
2019/08/11 17:07:00	AWS2	6.51	204	8.08	197	M	M	M	NA	NA	1002.0	NA	NA		M	NA	NA	NA	NA
2019/08/11 17:08:00	AWS2	6.69	202	8.08	197	M	M	M	NA	NA	1001.8	NA	NA		M	NA	NA	NA	NA
2019/08/11 17:09:00	AWS2	6.61	199	8.08	197	M	M	M	NA	NA	1001.9	NA	NA		M	NA	NA	NA	NA
2019/08/11 17:10:00	AWS2	5.95	197	8.08	197	M	M	M	NA	NA	1001.7	NA	NA		M	NA	NA	NA	NA
2019/08/11 17:11:00	AWS2	5.05	195	8.08	197	M	M	M	NA	NA	1001.7	NA	NA		M	NA	NA	NA	NA
2019/08/11 17:12:00	AWS2	5.23	197	8.03	190	M	M	M	NA	NA	1002.2	NA	NA		M	NA	NA	NA	NA
2019/08/11 17:13:00	AWS2	6.68	201	8.54	206	M	M	M	NA	NA	1001.9	NA	NA		M	NA	NA	NA	NA
2019/08/11 17:14:00	AWS2	7.51	201	8.54	206	M	M	M	NA	NA	1001.8	NA	NA		M	NA	NA	NA	NA
2019/08/11 17:15:00	AWS2	6.64	197	8.54	206	M	M	M	NA	NA	1002.2	NA	NA		M	NA	NA	NA	NA
2019/08/11 17:16:00	AWS2	5.74	196	8.54	206	M	M	M	NA	NA	1001.9	NA	NA		M	NA	NA	NA	NA
2019/08/11 17:17:00	AWS2	6.06	200	8.54	206	M	M	M	NA	NA	1002.1	NA	NA		M	NA	NA	NA	NA
2019/08/11 17:18:00	AWS2	6.32	200	8.54	206	M	M	M	NA	NA	1002.1	NA	NA		M	NA	NA	NA	NA
2019/08/11 17:19:00	AWS2	6.60	196	8.54	206	M	M	M	NA	NA	1002.0	NA	NA		M	NA	NA	NA	NA
2019/08/11 17:20:00	AWS2	6.48	199	8.54	206	M	M	M	NA	NA	1001.9	NA	NA		M	NA	NA	NA	NA
2019/08/11 17:21:00	AWS2	5.80	204	8.54	206	M	M	M	NA	NA	1001.8	NA	NA		M	NA	NA	NA	NA
2019/08/11 17:22:00	AWS2	5.30	201	8.54	206	M	M	M	NA	NA	1002.0	NA	NA		M	NA	NA	NA	NA
2019/08/11 17:23:00	AWS2	4.95	198	8.33	189	M	M	M	NA	NA	1002.1	NA	NA		M	NA	NA	NA	NA
2019/08/11 17:24:00	AWS2	5.72	200	8.33	189	M	M	M	NA	NA	1002.1	NA	NA		M	NA	NA	NA	NA
2019/08/11 17:25:00	AWS2	6.70	202	8.33	189	M	M	M	NA	NA	1002.1	NA	NA		M	NA	NA	NA	NA
2019/08/11 17:26:00	AWS2	6.94	202	8.33	189	M	M	M	NA	NA	1002.0	NA	NA		M	NA	NA	NA	NA
2019/08/11 17:27:00	AWS2	7.28	194	8.33	189	M	M	M	NA	NA	1002.1	NA	NA		M	NA	NA	NA	NA
2019/08/11 17:28:00	AWS2	7.02	187	8.18	189	M	M	M	NA	NA	1002.3	NA	NA		M	NA	NA	NA	NA
2019/08/11 17:29:00	AWS2	6.82	186	8.18	189	M	M	M	NA	NA	1002.3	NA	NA		M	NA	NA	NA	NA
2019/08/11 17:30:00	AWS2	6.87	192	8.18	189	M	M	M	NA	NA	1002.5	NA	NA		M	NA	NA	NA	NA
2019/08/11 17:31:00	AWS2	6.40	196	8.18	189	M	M	M	NA	NA	1002.1	NA	NA		M	NA	NA	NA	NA
2019/08/11 17:32:00	AWS2	6.26	197	8.18	189	M	M	M	NA	NA	1002.3	NA	NA		M	NA	NA	NA	NA
2019/08/11 17:33:00	AWS2	6.06	200	8.18	189	M	M	M	NA	NA	1002.2	NA	NA		M	NA	NA	NA	NA
2019/08/11 17:34:00	AWS2	5.77	199	8.18	189	M	M	M	NA	NA	1002.1	NA	NA		M	NA	NA	NA	NA
2019/08/11 17:35:00	AWS2	6.09	198	8.95	208	M	M	M	NA	NA	1002.4	NA	NA		M	NA	NA	NA	NA
2019/08/11 17:36:00	AWS2	7.58	202	9.31	205	M	M	M	NA	NA	1002.2	NA	NA		M	NA	NA	NA	NA
2019/08/11 17:37:00	AWS2	8.12	205	9.31	205	M	M	M	NA	NA	1002.2	NA	NA		M	NA	NA	NA	NA
2019/08/11 17:38:00	AWS2	7.64	202	9.31	205	M	M	M	NA	NA	1002.2	NA	NA		M	NA	NA	NA	NA
2019/08/11 17:39:00	AWS2	7.73	202	9.31	205	M	M	M	NA	NA	1002.4	NA	NA		M	NA	NA	NA	NA
2019/08/11 17:40:00	AWS2	7.83	203	9.31	205	M	M	M	NA	NA	1002.2	NA	NA		M	NA	NA	NA	NA
2019/08/11 17:41:00	AWS2	7.86	206	9.31	205	M	M	M	NA	NA	1002.1	NA	NA		M	NA	NA	NA	NA
2019/08/11 17:42:00	AWS2	7.46	207	9.31	205	M	M	M	NA	NA	1002.3	NA	NA		M	NA	NA	NA	NA
2019/08/11 17:43:00	AWS2	6.54	206	9.31	205	M	M	M	NA	NA	1002.4	NA	NA		M	NA	NA	NA	NA
2019/08/11 17:44:00	AWS2	5.57	205	9.31	205	M	M	M	NA	NA	1002.3	NA	NA		M	NA	NA	NA	NA
2019/08/11 17:45:00	AWS2	5.04	201	9.31	205	M	M	M	NA	NA	1002.3	NA	NA		M	NA	NA	NA	NA
2019/08/11 17:46:00	AWS2	5.42	198	8.54	200	M	M	M	NA	NA	1002.2	NA	NA		M	NA	NA	NA	NA
2019/08/11 17:47:00	AWS2	6.30	196	8.54	200	M	M	M	NA	NA	1002.4	NA	NA		M	NA	NA	NA	NA
2019/08/11 17:48:00	AWS2	6.38	195	8.49	201	M	M	M	NA	NA	1002.2	NA	NA		M	NA	NA	NA	NA
2019/08/11 17:49:00	AWS2	6.01	201	8.49	201	M	M	M	NA	NA	1002.3	NA	NA		M	NA	NA	NA	NA
2019/08/11 17:50:00	AWS2	5.83	205	8.49	201	M	M	M	NA	NA	1002.7	NA	NA		M	NA	NA	NA	NA
2019/08/11 17:51:00	AWS2	5.59	200	7.97	209	M	M	M	NA	NA	1002.6	NA	NA		M	NA	NA	NA	NA
2019/08/11 17:52:00	AWS2	5.69	195	7.67	192	M	M	M	NA	NA	1002.4	NA	NA		M	NA	NA	NA	NA
2019/08/11 17:53:00	AWS2	6.02	190	7.67	192	M	M	M	NA	NA	1002.3	NA	NA		M	NA	NA	NA	NA
2019/08/11 17:54:00	AWS2	6.11	187	7.67	192	M	M	M	NA	NA	1002.5	NA	NA		M	NA	NA	NA	NA
2019/08/11 17:55:00	AWS2	5.71	187	7.67	192	M	M	M	NA	NA	1002.5	NA	NA		M	NA	NA	NA	NA
2019/08/11 17:56:00	AWS2	5.54	189	7.67	192	M	M	M	NA	NA	1002.5	NA	NA		M	NA	NA	NA	NA
2019/08/11 17:57:00	AWS2	5.76	191	7.67	192	M	M	M	NA	NA	1002.4	NA	NA		M	NA	NA	NA	NA
2019/08/11 17:58:00	AWS2	5.31	193	6.94	187	M	M	M	NA	NA	1002.5	NA	NA		M	NA	NA	NA	NA
2019/08/11 17:59:00	AWS2	4.86	198	6.94	187	M	M	M	NA	NA	1002.3	NA	NA		M	NA	NA	NA	NA
2019/08/11 18:00:00	AWS2	4.67	203	6.94	187	M	M	M	NA	NA	1002.2	NA	NA		M	NA	NA	NA	NA
2019/08/11 18:01:00	AWS2	4.41	202	6.94	187	M	M	M	NA	NA	1002.5	NA	NA		M	NA	NA	NA	NA
2019/08/11 18:02:00	AWS2	4.53	199	6.94	187	M	M	M	NA	NA	1002.5	NA	NA		M	NA	NA	NA	NA
2019/08/11 18:03:00	AWS2	5.02	198	6.94	187	M	M	M	NA	NA	1002.3	NA	NA		M	NA	NA	NA	NA
2019/08/11 18:04:00	AWS2	5.11	197	6.58	194	M	M	M	NA	NA	1002.7	NA	NA		M	NA	NA	NA	NA
2019/08/11 18:05:00	AWS2	4.91	197	6.58	194	M	M	M	NA	NA	1002.7	NA	NA		M	NA	NA	NA	NA
2019/08/11 18:06:00	AWS2	4.81	197	6.22	201	M	M	M	NA	NA	1002.6	NA	NA		M	NA	NA	NA	NA
2019/08/11 18:07:00	AWS2	5.29	195	6.74	193	M	M	M	NA	NA	1002.5	NA	NA		M	NA	NA	NA	NA
2019/08/11 18:08:00	AWS2	5.62	192	6.74	193	M	M	M	NA	NA	1002.6	NA	NA		M	NA	NA	NA	NA
2019/08/11 18:09:00	AWS2	5.34	192	6.74	193	M	M	M	NA	NA	1002.2	NA	NA		M	NA	NA	NA	NA
2019/08/11 18:10:00	AWS2	5.14	198	6.74	193	M	M	M	NA	NA	1002.5	NA	NA		M	NA	NA	NA	NA
2019/08/11 18:11:00	AWS2	5.25	199	6.74	193	M	M	M	NA	NA	1002.3	NA	NA		M	NA	NA	NA	NA
2019/08/11 18:12:00	AWS2	5.34	195	6.74	193	M	M	M	NA	NA	1002.4	NA	NA		M	NA	NA	NA	NA
2019/08/11 18:13:00	AWS2	5.09	196	6.74	193	M	M	M	NA	NA	1002.3	NA	NA		M	NA	NA	NA	NA
2019/08/11 18:14:00	AWS2	5.24	194	6.74	193	M	M	M	NA	NA	1002.3	NA	NA		M	NA	NA	NA	NA
2019/08/11 18:15:00	AWS2	5.77	189	6.74	194	M	M	M	NA	NA	1002.4	NA	NA		M	NA	NA	NA	NA
2019/08/11 18:16:00	AWS2	6.28	192	7.05	200	M	M	M	NA	NA	1002.1	NA	NA		M	NA	NA	NA	NA
2019/08/11 18:17:00	AWS2	6.39	196	7.05	200	M	M	M	NA	NA	1002.3	NA	NA		M	NA	NA	NA	NA
2019/08/11 18:18:00	AWS2	6.31	197	7.25	191	M	M	M	NA	NA	1002.2	NA	NA		M	NA	NA	NA	NA
2019/08/11 18:19:00	AWS2	6.29	202	7.25	191	M	M	M	NA	NA	1002.3	NA	NA		M	NA	NA	NA	NA
2019/08/11 18:20:00	AWS2	6.23	204	7.92	203	M	M	M	NA	NA	1002.1	NA	NA		M	NA	NA	NA	NA
2019/08/11 18:21:00	AWS2	6.54	202	7.92	203	M	M	M	NA	NA	1002.2	NA	NA		M	NA	NA	NA	NA
2019/08/11 18:22:00	AWS2	6.96	206	8.13	196	M	M	M	NA	NA	1002.0	NA	NA		M	NA	NA	NA	NA
2019/08/11 18:23:00	AWS2	6.51	205	8.13	196	M	M	M	NA	NA	1002.2	NA	NA		M	NA	NA	NA	NA
2019/08/11 18:24:00	AWS2	6.60	202	8.13	196	M	M	M	NA	NA	1002.1	NA	NA		M	NA	NA	NA	NA
2019/08/11 18:25:00	AWS2	7.43	200	8.49	194	M	M	M	NA	NA	1002.3	NA	NA		M	NA	NA	NA	NA
2019/08/11 18:26:00	AWS2	7.87	201	8.95	199	M	M	M	NA	NA	1002.3	NA	NA		M	NA	NA	NA	NA
2019/08/11 18:27:01	AWS2	8.49	204	10.39	216	M	M	M	NA	NA	1001.9	NA	NA		M	NA	NA	NA	NA
2019/08/11 18:28:00	AWS2	8.92	203	10.65	202	M	M	M	NA	NA	1001.8	NA	NA		M	NA	NA	NA	NA
2019/08/11 18:29:00	AWS2	9.25	204	10.65	202	M	M	M	NA	NA	1002.2	NA	NA		M	NA	NA	NA	NA
2019/08/11 18:30:00	AWS2	9.22	204	10.65	202	M	M	M	NA	NA	1002.2	NA	NA		M	NA	NA	NA	NA
2019/08/11 18:31:00	AWS2	8.17	205	10.65	202	M	M	M	NA	NA	1002.2	NA	NA		M	NA	NA	NA	NA
2019/08/11 18:32:00	AWS2	8.15	207	10.65	202	M	M	M	NA	NA	1002.2	NA	NA		M	NA	NA	NA	NA
2019/08/11 18:33:00	AWS2	8.97	206	10.65	202	M	M	M	NA	NA	1002.0	NA	NA		M	NA	NA	NA	NA
2019/08/11 18:34:00	AWS2	9.37	204	10.65	202	M	M	M	NA	NA	1001.8	NA	NA		M	NA	NA	NA	NA
2019/08/11 18:35:00	AWS2	10.16	208	12.09	218	M	M	M	NA	NA	1001.9	NA	NA		M	NA	NA	NA	NA
2019/08/11 18:36:00	AWS2	10.21	211	12.09	218	M	M	M	NA	NA	1001.9	NA	NA		M	NA	NA	NA	NA
2019/08/11 18:37:00	AWS2	9.30	213	12.09	218	M	M	M	NA	NA	1002.0	NA	NA		M	NA	NA	NA	NA
2019/08/11 18:38:00	AWS2	9.26	212	12.09	218	M	M	M	NA	NA	1001.8	NA	NA		M	NA	NA	NA	NA
2019/08/11 18:39:00	AWS2	9.55	209	12.09	218	M	M	M	NA	NA	1001.7	NA	NA		M	NA	NA	NA	NA
2019/08/11 18:40:00	AWS2	9.90	211	12.09	218	M	M	M	NA	NA	1001.6	NA	NA		M	NA	NA	NA	NA
2019/08/11 18:41:00	AWS2	10.23	212	12.09	218	M	M	M	NA	NA	1001.6	NA	NA		M	NA	NA	NA	NA
2019/08/11 18:42:00	AWS2	9.76	209	12.09	218	M	M	M	NA	NA	1001.8	NA	NA		M	NA	NA	NA	NA
2019/08/11 18:43:00	AWS2	9.60	208	12.09	218	M	M	M	NA	NA	1001.9	NA	NA		M	NA	NA	NA	NA
2019/08/11 18:44:00	AWS2	9.86	211	12.09	218	M	M	M	NA	NA	1001.7	NA	NA		M	NA	NA	NA	NA
2019/08/11 18:45:00	AWS2	10.40	215	12.55	215	M	M	M	NA	NA	1001.6	NA	NA		M	NA	NA	NA	NA
2019/08/11 18:46:00	AWS2	10.33	213	12.55	215	M	M	M	NA	NA	1001.8	NA	NA		M	NA	NA	NA	NA
2019/08/11 18:47:00	AWS2	10.50	209	12.55	215	M	M	M	NA	NA	1001.5	NA	NA		M	NA	NA	NA	NA
2019/08/11 18:48:00	AWS2	10.95	208	12.55	215	M	M	M	NA	NA	1001.8	NA	NA		M	NA	NA	NA	NA
2019/08/11 18:49:00	AWS2	11.18	210	12.55	215	M	M	M	NA	NA	1001.5	NA	NA		M	NA	NA	NA	NA
2019/08/11 18:50:00	AWS2	10.57	212	12.55	215	M	M	M	NA	NA	1002.1	NA	NA		M	NA	NA	NA	NA
2019/08/11 18:51:00	AWS2	9.24	211	12.55	215	M	M	M	NA	NA	1002.3	NA	NA		M	NA	NA	NA	NA
2019/08/11 18:52:00	AWS2	9.40	207	12.55	215	M	M	M	NA	NA	1001.9	NA	NA		M	NA	NA	NA	NA
2019/08/11 18:53:00	AWS2	10.12	204	12.55	215	M	M	M	NA	NA	1001.9	NA	NA		M	NA	NA	NA	NA
2019/08/11 18:54:00	AWS2	10.32	210	12.55	215	M	M	M	NA	NA	1001.9	NA	NA		M	NA	NA	NA	NA
2019/08/11 18:55:00	AWS2	11.14	212	13.17	200	M	M	M	NA	NA	1001.6	NA	NA		M	NA	NA	NA	NA
2019/08/11 18:56:01	AWS2	11.48	210	13.17	200	M	M	M	NA	NA	1001.7	NA	NA		M	NA	NA	NA	NA
2019/08/11 18:57:01	AWS2	10.97	210	13.17	200	M	M	M	NA	NA	1001.9	NA	NA		M	NA	NA	NA	NA
2019/08/11 18:58:01	AWS2	11.06	207	13.17	200	M	M	M	NA	NA	1001.8	NA	NA		M	NA	NA	NA	NA
2019/08/11 18:59:01	AWS2	10.92	206	13.17	200	M	M	M	NA	NA	1001.7	NA	NA		M	NA	NA	NA	NA
2019/08/11 19:00:01	AWS2	10.48	207	13.17	200	M	M	M	NA	NA	1001.8	NA	NA		M	NA	NA	NA	NA
2019/08/11 19:01:01	AWS2	10.07	208	13.17	200	M	M	M	NA	NA	1001.9	NA	NA		M	NA	NA	NA	NA
2019/08/11 19:02:01	AWS2	10.08	208	13.17	200	M	M	M	NA	NA	1002.1	NA	NA		M	NA	NA	NA	NA
2019/08/11 19:03:01	AWS2	10.60	206	13.17	200	M	M	M	NA	NA	1002.0	NA	NA		M	NA	NA	NA	NA
2019/08/11 19:04:01	AWS2	10.99	204	13.17	200	M	M	M	NA	NA	1002.0	NA	NA		M	NA	NA	NA	NA
2019/08/11 19:05:01	AWS2	10.80	204	12.71	214	M	M	M	NA	NA	1002.1	NA	NA		M	NA	NA	NA	NA
2019/08/11 19:06:01	AWS2	10.25	201	12.35	208	M	M	M	NA	NA	1002.0	NA	NA		M	NA	NA	NA	NA
2019/08/11 19:07:01	AWS2	9.41	198	12.35	208	M	M	M	NA	NA	1002.4	NA	NA		M	NA	NA	NA	NA
2019/08/11 19:08:01	AWS2	9.14	197	12.35	208	M	M	M	NA	NA	1002.3	NA	NA		M	NA	NA	NA	NA
2019/08/11 19:09:01	AWS2	10.01	195	12.35	208	M	M	M	NA	NA	1002.1	NA	NA		M	NA	NA	NA	NA
2019/08/11 19:10:01	AWS2	9.85	198	12.35	208	M	M	M	NA	NA	1002.2	NA	NA		M	NA	NA	NA	NA
2019/08/11 19:11:01	AWS2	9.30	200	12.35	208	M	M	M	NA	NA	1002.1	NA	NA		M	NA	NA	NA	NA
2019/08/11 19:12:01	AWS2	9.87	201	12.35	208	M	M	M	NA	NA	1001.9	NA	NA		M	NA	NA	NA	NA
2019/08/11 19:13:01	AWS2	10.47	202	12.35	208	M	M	M	NA	NA	1001.7	NA	NA		M	NA	NA	NA	NA
2019/08/11 19:14:01	AWS2	10.34	203	12.14	192	M	M	M	NA	NA	1002.2	NA	NA		M	NA	NA	NA	NA
2019/08/11 19:15:01	AWS2	10.61	203	12.35	204	M	M	M	NA	NA	1001.8	NA	NA		M	NA	NA	NA	NA
2019/08/11 19:16:01	AWS2	11.33	204	13.22	206	M	M	M	NA	NA	1001.8	NA	NA		M	NA	NA	NA	NA
2019/08/11 19:17:01	AWS2	11.57	203	13.22	206	M	M	M	NA	NA	1001.8	NA	NA		M	NA	NA	NA	NA
2019/08/11 19:18:01	AWS2	11.51	202	13.22	206	M	M	M	NA	NA	1001.9	NA	NA		M	NA	NA	NA	NA
2019/08/11 19:19:01	AWS2	11.13	203	13.22	206	M	M	M	NA	NA	1001.8	NA	NA		M	NA	NA	NA	NA
2019/08/11 19:20:01	AWS2	10.67	201	13.22	206	M	M	M	NA	NA	1001.9	NA	NA		M	NA	NA	NA	NA
2019/08/11 19:21:01	AWS2	9.65	199	13.22	206	M	M	M	NA	NA	1002.2	NA	NA		M	NA	NA	NA	NA
2019/08/11 19:22:01	AWS2	9.98	201	13.22	206	M	M	M	NA	NA	1001.8	NA	NA		M	NA	NA	NA	NA
2019/08/11 19:23:01	AWS2	11.01	203	13.22	206	M	M	M	NA	NA	1002.2	NA	NA		M	NA	NA	NA	NA
2019/08/11 19:24:01	AWS2	10.37	201	13.22	206	M	M	M	NA	NA	1002.1	NA	NA		M	NA	NA	NA	NA
2019/08/11 19:25:01	AWS2	10.71	199	13.27	200	M	M	M	NA	NA	1002.1	NA	NA		M	NA	NA	NA	NA
2019/08/11 19:26:01	AWS2	12.03	198	13.27	200	M	M	M	NA	NA	1002.1	NA	NA		M	NA	NA	NA	NA
2019/08/11 19:27:01	AWS2	12.21	197	13.27	200	M	M	M	NA	NA	1002.1	NA	NA		M	NA	NA	NA	NA
2019/08/11 19:28:01	AWS2	11.74	198	13.27	200	M	M	M	NA	NA	1002.1	NA	NA		M	NA	NA	NA	NA
2019/08/11 19:29:01	AWS2	11.19	198	13.27	200	M	M	M	NA	NA	1002.4	NA	NA		M	NA	NA	NA	NA
2019/08/11 19:30:01	AWS2	11.44	198	13.38	201	M	M	M	NA	NA	1002.1	NA	NA		M	NA	NA	NA	NA
2019/08/11 19:31:01	AWS2	10.91	201	13.38	201	M	M	M	NA	NA	1002.2	NA	NA		M	NA	NA	NA	NA
2019/08/11 19:32:01	AWS2	9.95	201	13.38	201	M	M	M	NA	NA	1002.2	NA	NA		M	NA	NA	NA	NA
2019/08/11 19:33:01	AWS2	10.49	199	13.38	201	M	M	M	NA	NA	1002.2	NA	NA		M	NA	NA	NA	NA
2019/08/11 19:34:01	AWS2	11.51	202	13.38	201	M	M	M	NA	NA	1001.8	NA	NA		M	NA	NA	NA	NA
2019/08/11 19:35:01	AWS2	11.55	204	13.38	201	M	M	M	NA	NA	1001.9	NA	NA		M	NA	NA	NA	NA
2019/08/11 19:36:01	AWS2	10.70	204	13.38	201	M	M	M	NA	NA	1002.0	NA	NA		M	NA	NA	NA	NA
2019/08/11 19:37:01	AWS2	10.50	204	13.38	201	M	M	M	NA	NA	1002.2	NA	NA		M	NA	NA	NA	NA
2019/08/11 19:38:01	AWS2	10.53	202	13.38	201	M	M	M	NA	NA	1002.2	NA	NA		M	NA	NA	NA	NA
2019/08/11 19:39:01	AWS2	10.73	199	13.38	201	M	M	M	NA	NA	1002.4	NA	NA		M	NA	NA	NA	NA
2019/08/11 19:40:01	AWS2	11.14	196	13.12	199	M	M	M	NA	NA	1002.3	NA	NA		M	NA	NA	NA	NA
2019/08/11 19:41:01	AWS2	11.26	199	13.12	199	M	M	M	NA	NA	1002.1	NA	NA		M	NA	NA	NA	NA
2019/08/11 19:42:01	AWS2	10.63	203	13.12	199	M	M	M	NA	NA	1002.0	NA	NA		M	NA	NA	NA	NA
2019/08/11 19:43:01	AWS2	11.00	201	13.32	205	M	M	M	NA	NA	1002.0	NA	NA		M	NA	NA	NA	NA
2019/08/11 19:44:01	AWS2	11.48	199	13.32	205	M	M	M	NA	NA	1002.0	NA	NA		M	NA	NA	NA	NA
2019/08/11 19:45:01	AWS2	11.19	198	13.32	205	M	M	M	NA	NA	1001.8	NA	NA		M	NA	NA	NA	NA
2019/08/11 19:46:01	AWS2	11.82	199	13.32	205	M	M	M	NA	NA	1001.8	NA	NA		M	NA	NA	NA	NA
2019/08/11 19:47:01	AWS2	12.70	203	14.92	206	M	M	M	NA	NA	1001.5	NA	NA		M	NA	NA	NA	NA
2019/08/11 19:48:01	AWS2	13.06	205	14.92	206	M	M	M	NA	NA	1001.3	NA	NA		M	NA	NA	NA	NA
2019/08/11 19:49:01	AWS2	12.75	205	14.92	206	M	M	M	NA	NA	1001.6	NA	NA		M	NA	NA	NA	NA
2019/08/11 19:50:01	AWS2	12.17	207	14.92	206	M	M	M	NA	NA	1001.5	NA	NA		M	NA	NA	NA	NA
2019/08/11 19:51:01	AWS2	11.69	208	14.92	206	M	M	M	NA	NA	1001.6	NA	NA		M	NA	NA	NA	NA
2019/08/11 19:52:01	AWS2	12.10	206	14.92	206	M	M	M	NA	NA	1001.5	NA	NA		M	NA	NA	NA	NA
2019/08/11 19:53:01	AWS2	12.28	207	14.92	206	M	M	M	NA	NA	1001.9	NA	NA		M	NA	NA	NA	NA
2019/08/11 19:54:01	AWS2	11.85	209	14.92	206	M	M	M	NA	NA	1001.8	NA	NA		M	NA	NA	NA	NA
2019/08/11 19:55:01	AWS2	11.92	207	14.92	206	M	M	M	NA	NA	1001.7	NA	NA		M	NA	NA	NA	NA
2019/08/11 19:56:01	AWS2	11.63	204	14.92	206	M	M	M	NA	NA	1001.9	NA	NA		M	NA	NA	NA	NA
2019/08/11 19:57:01	AWS2	11.29	203	14.04	205	M	M	M	NA	NA	1002.1	NA	NA		M	NA	NA	NA	NA
2019/08/11 19:58:01	AWS2	11.78	202	14.04	205	M	M	M	NA	NA	1001.8	NA	NA		M	NA	NA	NA	NA
2019/08/11 19:59:01	AWS2	11.66	204	13.89	201	M	M	M	NA	NA	1002.0	NA	NA		M	NA	NA	NA	NA
2019/08/11 20:00:01	AWS2	11.76	209	13.89	201	M	M	M	NA	NA	1001.8	NA	NA		M	NA	NA	NA	NA
2019/08/11 20:01:01	AWS2	12.01	212	13.89	201	M	M	M	NA	NA	1001.7	NA	NA		M	NA	NA	NA	NA
2019/08/11 20:02:01	AWS2	11.60	214	13.89	201	M	M	M	NA	NA	1001.6	NA	NA		M	NA	NA	NA	NA
2019/08/11 20:03:01	AWS2	11.42	215	13.89	201	M	M	M	NA	NA	1002.0	NA	NA		M	NA	NA	NA	NA
2019/08/11 20:04:01	AWS2	10.88	213	13.89	201	M	M	M	NA	NA	1002.2	NA	NA		M	NA	NA	NA	NA
2019/08/11 20:05:01	AWS2	10.26	209	13.89	201	M	M	M	NA	NA	1002.1	NA	NA		M	NA	NA	NA	NA
2019/08/11 20:06:01	AWS2	10.91	207	13.89	201	M	M	M	NA	NA	1001.9	NA	NA		M	NA	NA	NA	NA
2019/08/11 20:07:01	AWS2	12.23	209	14.20	207	M	M	M	NA	NA	1001.9	NA	NA		M	NA	NA	NA	NA
2019/08/11 20:08:01	AWS2	12.12	209	14.20	207	M	M	M	NA	NA	1002.1	NA	NA		M	NA	NA	NA	NA
2019/08/11 20:09:00	AWS2	11.39	209	14.20	207	M	M	M	NA	NA	1001.9	NA	NA		M	NA	NA	NA	NA
2019/08/11 20:10:00	AWS2	11.08	209	14.20	207	M	M	M	NA	NA	1001.9	NA	NA		M	NA	NA	NA	NA
2019/08/11 20:11:00	AWS2	10.20	207	14.20	207	M	M	M	NA	NA	1002.0	NA	NA		M	NA	NA	NA	NA
2019/08/11 20:12:00	AWS2	9.44	205	14.20	207	M	M	M	NA	NA	1002.3	NA	NA		M	NA	NA	NA	NA
2019/08/11 20:13:00	AWS2	9.86	202	14.20	207	M	M	M	NA	NA	1002.4	NA	NA		M	NA	NA	NA	NA
2019/08/11 20:14:00	AWS2	10.36	203	14.20	207	M	M	M	NA	NA	1002.2	NA	NA		M	NA	NA	NA	NA
2019/08/11 20:15:00	AWS2	10.43	205	14.20	207	M	M	M	NA	NA	1002.2	NA	NA		M	NA	NA	NA	NA
2019/08/11 20:16:00	AWS2	10.13	204	14.20	207	M	M	M	NA	NA	1002.5	NA	NA		M	NA	NA	NA	NA
2019/08/11 20:17:00	AWS2	9.95	206	13.12	205	M	M	M	NA	NA	1002.3	NA	NA		M	NA	NA	NA	NA
2019/08/11 20:18:00	AWS2	10.38	209	12.09	205	M	M	M	NA	NA	1002.4	NA	NA		M	NA	NA	NA	NA
2019/08/11 20:19:00	AWS2	10.20	210	12.09	205	M	M	M	NA	NA	1002.5	NA	NA		M	NA	NA	NA	NA
2019/08/11 20:20:00	AWS2	9.99	206	12.09	205	M	M	M	NA	NA	1002.2	NA	NA		M	NA	NA	NA	NA
2019/08/11 20:21:00	AWS2	9.86	205	12.09	205	M	M	M	NA	NA	1002.2	NA	NA		M	NA	NA	NA	NA
2019/08/11 20:22:00	AWS2	9.58	204	12.09	205	M	M	M	NA	NA	1002.3	NA	NA		M	NA	NA	NA	NA
2019/08/11 20:23:00	AWS2	10.37	203	12.19	205	M	M	M	NA	NA	1002.2	NA	NA		M	NA	NA	NA	NA
2019/08/11 20:24:00	AWS2	11.37	202	13.22	206	M	M	M	NA	NA	1002.3	NA	NA		M	NA	NA	NA	NA
2019/08/11 20:25:00	AWS2	11.55	205	13.22	206	M	M	M	NA	NA	1002.0	NA	NA		M	NA	NA	NA	NA
2019/08/11 20:26:00	AWS2	11.84	209	13.32	214	M	M	M	NA	NA	1002.3	NA	NA		M	NA	NA	NA	NA
2019/08/11 20:27:00	AWS2	12.13	206	13.32	214	M	M	M	NA	NA	1002.2	NA	NA		M	NA	NA	NA	NA
2019/08/11 20:28:00	AWS2	11.99	206	13.32	214	M	M	M	NA	NA	1002.0	NA	NA		M	NA	NA	NA	NA
2019/08/11 20:29:00	AWS2	11.23	206	13.32	214	M	M	M	NA	NA	1002.2	NA	NA		M	NA	NA	NA	NA
2019/08/11 20:30:00	AWS2	10.12	201	13.32	214	M	M	M	NA	NA	1002.5	NA	NA		M	NA	NA	NA	NA
2019/08/11 20:31:00	AWS2	9.81	200	13.32	214	M	M	M	NA	NA	1002.7	NA	NA		M	NA	NA	NA	NA
2019/08/11 20:32:00	AWS2	10.10	204	13.32	214	M	M	M	NA	NA	1002.6	NA	NA		M	NA	NA	NA	NA
2019/08/11 20:33:00	AWS2	10.65	205	13.32	214	M	M	M	NA	NA	1002.3	NA	NA		M	NA	NA	NA	NA
2019/08/11 20:34:00	AWS2	10.95	204	13.32	214	M	M	M	NA	NA	1002.1	NA	NA		M	NA	NA	NA	NA
2019/08/11 20:35:00	AWS2	11.13	205	13.32	214	M	M	M	NA	NA	1001.9	NA	NA		M	NA	NA	NA	NA
2019/08/11 20:36:00	AWS2	10.98	202	12.71	208	M	M	M	NA	NA	1002.2	NA	NA		M	NA	NA	NA	NA
2019/08/11 20:37:00	AWS2	10.35	201	12.45	210	M	M	M	NA	NA	1002.4	NA	NA		M	NA	NA	NA	NA
2019/08/11 20:38:00	AWS2	10.77	205	12.35	206	M	M	M	NA	NA	1002.0	NA	NA		M	NA	NA	NA	NA
2019/08/11 20:39:00	AWS2	11.39	207	12.35	206	M	M	M	NA	NA	1002.0	NA	NA		M	NA	NA	NA	NA
2019/08/11 20:40:00	AWS2	11.09	202	12.35	206	M	M	M	NA	NA	1002.4	NA	NA		M	NA	NA	NA	NA
2019/08/11 20:41:00	AWS2	10.33	199	12.35	206	M	M	M	NA	NA	1002.4	NA	NA		M	NA	NA	NA	NA
2019/08/11 20:42:00	AWS2	9.93	201	12.35	206	M	M	M	NA	NA	1002.4	NA	NA		M	NA	NA	NA	NA
2019/08/11 20:43:00	AWS2	10.50	204	12.35	206	M	M	M	NA	NA	1002.0	NA	NA		M	NA	NA	NA	NA
2019/08/11 20:44:00	AWS2	10.76	205	12.35	206	M	M	M	NA	NA	1002.4	NA	NA		M	NA	NA	NA	NA
2019/08/11 20:45:00	AWS2	10.42	205	12.35	206	M	M	M	NA	NA	1002.5	NA	NA		M	NA	NA	NA	NA
2019/08/11 20:46:00	AWS2	10.22	207	12.35	206	M	M	M	NA	NA	1002.5	NA	NA		M	NA	NA	NA	NA
2019/08/11 20:47:00	AWS2	10.31	203	12.86	197	M	M	M	NA	NA	1002.5	NA	NA		M	NA	NA	NA	NA
2019/08/11 20:48:00	AWS2	10.40	200	12.86	197	M	M	M	NA	NA	1002.6	NA	NA		M	NA	NA	NA	NA
2019/08/11 20:49:00	AWS2	10.73	204	12.86	197	M	M	M	NA	NA	1002.3	NA	NA		M	NA	NA	NA	NA
2019/08/11 20:50:00	AWS2	11.37	205	12.91	201	M	M	M	NA	NA	1002.3	NA	NA		M	NA	NA	NA	NA
2019/08/11 20:51:00	AWS2	10.99	203	12.91	201	M	M	M	NA	NA	1002.5	NA	NA		M	NA	NA	NA	NA
2019/08/11 20:52:00	AWS2	10.35	204	12.91	201	M	M	M	NA	NA	1002.5	NA	NA		M	NA	NA	NA	NA
2019/08/11 20:53:00	AWS2	10.19	204	12.91	201	M	M	M	NA	NA	1002.5	NA	NA		M	NA	NA	NA	NA
2019/08/11 20:54:00	AWS2	10.12	203	12.91	201	M	M	M	NA	NA	1002.4	NA	NA		M	NA	NA	NA	NA
2019/08/11 20:55:00	AWS2	9.85	205	12.91	201	M	M	M	NA	NA	1002.4	NA	NA		M	NA	NA	NA	NA
2019/08/11 20:56:00	AWS2	9.89	207	12.91	201	M	M	M	NA	NA	1002.4	NA	NA		M	NA	NA	NA	NA
2019/08/11 20:57:00	AWS2	10.13	206	12.91	201	M	M	M	NA	NA	1002.7	NA	NA		M	NA	NA	NA	NA
2019/08/11 20:58:00	AWS2	9.63	199	12.91	201	M	M	M	NA	NA	1002.6	NA	NA		M	NA	NA	NA	NA
2019/08/11 20:59:00	AWS2	9.12	194	12.91	201	M	M	M	NA	NA	1002.8	NA	NA		M	NA	NA	NA	NA
2019/08/11 21:00:00	AWS2	8.84	193	12.04	204	M	M	M	NA	NA	1002.6	NA	NA		M	NA	NA	NA	NA
2019/08/11 21:01:00	AWS2	9.05	198	12.04	204	M	M	M	NA	NA	1002.4	NA	NA		M	NA	NA	NA	NA
2019/08/11 21:02:00	AWS2	9.41	199	12.04	204	M	M	M	NA	NA	1002.4	NA	NA		M	NA	NA	NA	NA
2019/08/11 21:03:00	AWS2	9.26	199	12.04	204	M	M	M	NA	NA	1002.5	NA	NA		M	NA	NA	NA	NA
2019/08/11 21:04:00	AWS2	9.24	200	11.06	206	M	M	M	NA	NA	1002.4	NA	NA		M	NA	NA	NA	NA
2019/08/11 21:05:00	AWS2	9.47	201	11.06	206	M	M	M	NA	NA	1002.3	NA	NA		M	NA	NA	NA	NA
2019/08/11 21:06:00	AWS2	9.66	204	10.75	199	M	M	M	NA	NA	1002.5	NA	NA		M	NA	NA	NA	NA
2019/08/11 21:07:00	AWS2	9.67	204	10.75	199	M	M	M	NA	NA	1002.5	NA	NA		M	NA	NA	NA	NA
2019/08/11 21:08:00	AWS2	9.18	205	10.75	199	M	M	M	NA	NA	1002.4	NA	NA		M	NA	NA	NA	NA
2019/08/11 21:09:00	AWS2	8.90	205	10.75	199	M	M	M	NA	NA	1002.6	NA	NA		M	NA	NA	NA	NA
2019/08/11 21:10:00	AWS2	8.78	203	10.75	199	M	M	M	NA	NA	1002.7	NA	NA		M	NA	NA	NA	NA
2019/08/11 21:11:00	AWS2	8.22	201	10.75	199	M	M	M	NA	NA	1002.6	NA	NA		M	NA	NA	NA	NA
2019/08/11 21:12:00	AWS2	7.97	198	10.80	197	M	M	M	NA	NA	1002.5	NA	NA		M	NA	NA	NA	NA
2019/08/11 21:13:00	AWS2	8.35	198	10.80	197	M	M	M	NA	NA	1002.7	NA	NA		M	NA	NA	NA	NA
2019/08/11 21:14:00	AWS2	8.51	201	10.80	197	M	M	M	NA	NA	1002.6	NA	NA		M	NA	NA	NA	NA
2019/08/11 21:15:00	AWS2	8.87	202	10.80	197	M	M	M	NA	NA	1002.6	NA	NA		M	NA	NA	NA	NA
2019/08/11 21:16:00	AWS2	9.82	203	10.91	203	M	M	M	NA	NA	1002.3	NA	NA		M	NA	NA	NA	NA
2019/08/11 21:17:00	AWS2	10.06	203	10.91	203	M	M	M	NA	NA	1002.4	NA	NA		M	NA	NA	NA	NA
2019/08/11 21:18:00	AWS2	10.13	204	11.32	205	M	M	M	NA	NA	1002.1	NA	NA		M	NA	NA	NA	NA
2019/08/11 21:19:00	AWS2	10.01	204	11.32	205	M	M	M	NA	NA	1002.0	NA	NA		M	NA	NA	NA	NA
2019/08/11 21:20:00	AWS2	9.98	203	11.57	204	M	M	M	NA	NA	1002.5	NA	NA		M	NA	NA	NA	NA
2019/08/11 21:21:00	AWS2	9.89	203	11.57	204	M	M	M	NA	NA	1002.6	NA	NA		M	NA	NA	NA	NA
2019/08/11 21:22:00	AWS2	10.08	206	11.57	204	M	M	M	NA	NA	1002.3	NA	NA		M	NA	NA	NA	NA
2019/08/11 21:23:00	AWS2	10.95	206	12.14	209	M	M	M	NA	NA	1002.4	NA	NA		M	NA	NA	NA	NA
2019/08/11 21:24:00	AWS2	10.92	205	12.14	209	M	M	M	NA	NA	1002.3	NA	NA		M	NA	NA	NA	NA
2019/08/11 21:25:00	AWS2	10.45	202	12.14	209	M	M	M	NA	NA	1002.1	NA	NA		M	NA	NA	NA	NA
2019/08/11 21:26:00	AWS2	9.48	199	12.14	209	M	M	M	NA	NA	1002.7	NA	NA		M	NA	NA	NA	NA
2019/08/11 21:27:01	AWS2	9.33	200	12.14	209	M	M	M	NA	NA	1002.4	NA	NA		M	NA	NA	NA	NA
2019/08/11 21:28:01	AWS2	10.39	203	12.14	209	M	M	M	NA	NA	1002.3	NA	NA		M	NA	NA	NA	NA
2019/08/11 21:29:01	AWS2	10.54	202	12.14	209	M	M	M	NA	NA	1002.6	NA	NA		M	NA	NA	NA	NA
2019/08/11 21:30:01	AWS2	10.24	203	12.14	209	M	M	M	NA	NA	1002.2	NA	NA		M	NA	NA	NA	NA
2019/08/11 21:31:01	AWS2	10.44	202	12.14	209	M	M	M	NA	NA	1002.4	NA	NA		M	NA	NA	NA	NA
2019/08/11 21:32:01	AWS2	10.03	197	12.14	209	M	M	M	NA	NA	1002.5	NA	NA		M	NA	NA	NA	NA
2019/08/11 21:33:01	AWS2	9.78	200	11.78	206	M	M	M	NA	NA	1002.5	NA	NA		M	NA	NA	NA	NA
2019/08/11 21:34:01	AWS2	9.65	204	11.78	206	M	M	M	NA	NA	1002.5	NA	NA		M	NA	NA	NA	NA
2019/08/11 21:35:01	AWS2	9.40	205	11.78	206	M	M	M	NA	NA	1002.5	NA	NA		M	NA	NA	NA	NA
2019/08/11 21:36:01	AWS2	9.78	206	11.78	206	M	M	M	NA	NA	1002.4	NA	NA		M	NA	NA	NA	NA
2019/08/11 21:37:01	AWS2	10.06	208	11.78	206	M	M	M	NA	NA	1002.2	NA	NA		M	NA	NA	NA	NA
2019/08/11 21:38:01	AWS2	9.97	211	11.68	203	M	M	M	NA	NA	1002.3	NA	NA		M	NA	NA	NA	NA
2019/08/11 21:39:01	AWS2	9.92	210	11.68	203	M	M	M	NA	NA	1002.4	NA	NA		M	NA	NA	NA	NA
2019/08/11 21:40:01	AWS2	10.47	209	12.50	220	M	M	M	NA	NA	1002.1	NA	NA		M	NA	NA	NA	NA
2019/08/11 21:41:01	AWS2	10.57	205	12.50	220	M	M	M	NA	NA	1002.1	NA	NA		M	NA	NA	NA	NA
2019/08/11 21:42:01	AWS2	10.40	203	12.50	220	M	M	M	NA	NA	1002.5	NA	NA		M	NA	NA	NA	NA
2019/08/11 21:43:01	AWS2	10.70	204	12.50	220	M	M	M	NA	NA	1002.3	NA	NA		M	NA	NA	NA	NA
2019/08/11 21:44:01	AWS2	10.86	202	12.60	203	M	M	M	NA	NA	1002.3	NA	NA		M	NA	NA	NA	NA
2019/08/11 21:45:01	AWS2	10.85	203	12.81	208	M	M	M	NA	NA	1002.7	NA	NA		M	NA	NA	NA	NA
2019/08/11 21:46:01	AWS2	10.58	205	12.81	208	M	M	M	NA	NA	1002.5	NA	NA		M	NA	NA	NA	NA
2019/08/11 21:47:01	AWS2	10.40	204	12.81	208	M	M	M	NA	NA	1002.6	NA	NA		M	NA	NA	NA	NA
2019/08/11 21:48:01	AWS2	10.61	200	12.81	208	M	M	M	NA	NA	1002.7	NA	NA		M	NA	NA	NA	NA
2019/08/11 21:49:01	AWS2	11.30	200	13.07	204	M	M	M	NA	NA	1002.5	NA	NA		M	NA	NA	NA	NA
2019/08/11 21:50:01	AWS2	11.55	200	13.07	204	M	M	M	NA	NA	1002.6	NA	NA		M	NA	NA	NA	NA
2019/08/11 21:51:01	AWS2	11.20	198	13.07	204	M	M	M	NA	NA	1002.7	NA	NA		M	NA	NA	NA	NA
2019/08/11 21:52:01	AWS2	11.27	198	13.07	204	M	M	M	NA	NA	1002.5	NA	NA		M	NA	NA	NA	NA
2019/08/11 21:53:01	AWS2	11.28	202	13.07	204	M	M	M	NA	NA	1002.6	NA	NA		M	NA	NA	NA	NA
2019/08/11 21:54:01	AWS2	10.53	201	13.07	204	M	M	M	NA	NA	1002.8	NA	NA		M	NA	NA	NA	NA
2019/08/11 21:55:01	AWS2	10.18	201	13.07	204	M	M	M	NA	NA	1002.6	NA	NA		M	NA	NA	NA	NA
2019/08/11 21:56:01	AWS2	10.73	204	13.07	204	M	M	M	NA	NA	1002.6	NA	NA		M	NA	NA	NA	NA
2019/08/11 21:57:01	AWS2	10.47	202	13.07	204	M	M	M	NA	NA	1002.6	NA	NA		M	NA	NA	NA	NA
2019/08/11 21:58:01	AWS2	10.10	199	13.07	204	M	M	M	NA	NA	1002.6	NA	NA		M	NA	NA	NA	NA
2019/08/11 21:59:01	AWS2	10.03	200	12.66	196	M	M	M	NA	NA	1002.5	NA	NA		M	NA	NA	NA	NA
2019/08/11 22:00:01	AWS2	10.17	202	12.66	196	M	M	M	NA	NA	1002.4	NA	NA		M	NA	NA	NA	NA
2019/08/11 22:01:01	AWS2	10.10	199	12.24	209	M	M	M	NA	NA	1002.6	NA	NA		M	NA	NA	NA	NA
2019/08/11 22:02:01	AWS2	9.75	197	12.04	204	M	M	M	NA	NA	1002.7	NA	NA		M	NA	NA	NA	NA
2019/08/11 22:03:01	AWS2	9.47	199	11.99	195	M	M	M	NA	NA	1002.9	NA	NA		M	NA	NA	NA	NA
2019/08/11 22:04:01	AWS2	9.32	201	11.99	195	M	M	M	NA	NA	1002.7	NA	NA		M	NA	NA	NA	NA
2019/08/11 22:05:01	AWS2	9.02	200	11.99	195	M	M	M	NA	NA	1002.8	NA	NA		M	NA	NA	NA	NA
2019/08/11 22:06:01	AWS2	8.65	196	11.99	195	M	M	M	NA	NA	1002.7	NA	NA		M	NA	NA	NA	NA
2019/08/11 22:07:01	AWS2	8.51	196	11.37	204	M	M	M	NA	NA	1002.8	NA	NA		M	NA	NA	NA	NA
2019/08/11 22:08:01	AWS2	8.71	195	11.32	207	M	M	M	NA	NA	1002.7	NA	NA		M	NA	NA	NA	NA
2019/08/11 22:09:01	AWS2	9.20	195	11.06	205	M	M	M	NA	NA	1003.1	NA	NA		M	NA	NA	NA	NA
2019/08/11 22:10:01	AWS2	8.78	198	10.80	192	M	M	M	NA	NA	1002.9	NA	NA		M	NA	NA	NA	NA
2019/08/11 22:11:01	AWS2	8.16	200	10.80	192	M	M	M	NA	NA	1003.0	NA	NA		M	NA	NA	NA	NA
2019/08/11 22:12:01	AWS2	7.66	201	10.70	202	M	M	M	NA	NA	1002.9	NA	NA		M	NA	NA	NA	NA
2019/08/11 22:13:01	AWS2	7.39	203	10.70	202	M	M	M	NA	NA	1002.7	NA	NA		M	NA	NA	NA	NA
2019/08/11 22:14:01	AWS2	7.57	204	10.70	202	M	M	M	NA	NA	1002.9	NA	NA		M	NA	NA	NA	NA
2019/08/11 22:15:01	AWS2	8.15	202	10.70	202	M	M	M	NA	NA	1002.7	NA	NA		M	NA	NA	NA	NA
2019/08/11 22:16:01	AWS2	8.84	201	10.70	202	M	M	M	NA	NA	1002.6	NA	NA		M	NA	NA	NA	NA
2019/08/11 22:17:01	AWS2	8.79	202	10.70	202	M	M	M	NA	NA	1002.7	NA	NA		M	NA	NA	NA	NA
2019/08/11 22:18:01	AWS2	8.40	202	10.70	202	M	M	M	NA	NA	1002.9	NA	NA		M	NA	NA	NA	NA
2019/08/11 22:19:01	AWS2	8.79	201	10.29	202	M	M	M	NA	NA	1002.7	NA	NA		M	NA	NA	NA	NA
2019/08/11 22:20:01	AWS2	9.06	204	10.29	202	M	M	M	NA	NA	1002.7	NA	NA		M	NA	NA	NA	NA
2019/08/11 22:21:01	AWS2	8.60	202	10.29	202	M	M	M	NA	NA	1002.8	NA	NA		M	NA	NA	NA	NA
2019/08/11 22:22:02	AWS2	8.40	200	10.29	202	M	M	M	NA	NA	1002.9	NA	NA		M	NA	NA	NA	NA
2019/08/11 22:23:01	AWS2	8.11	199	10.29	202	M	M	M	NA	NA	1003.3	NA	NA		M	NA	NA	NA	NA
2019/08/11 22:24:01	AWS2	7.73	196	10.29	202	M	M	M	NA	NA	1003.0	NA	NA		M	NA	NA	NA	NA
2019/08/11 22:25:01	AWS2	7.75	195	10.19	207	M	M	M	NA	NA	1003.3	NA	NA		M	NA	NA	NA	NA
2019/08/11 22:26:01	AWS2	7.92	195	10.19	207	M	M	M	NA	NA	1003.2	NA	NA		M	NA	NA	NA	NA
2019/08/11 22:27:01	AWS2	7.59	199	10.19	207	M	M	M	NA	NA	1003.3	NA	NA		M	NA	NA	NA	NA
2019/08/11 22:28:01	AWS2	7.18	198	10.19	207	M	M	M	NA	NA	1003.5	NA	NA		M	NA	NA	NA	NA
2019/08/11 22:29:01	AWS2	7.41	196	9.67	206	M	M	M	NA	NA	1003.1	NA	NA		M	NA	NA	NA	NA
2019/08/11 22:30:01	AWS2	7.44	198	9.41	197	M	M	M	NA	NA	1003.2	NA	NA		M	NA	NA	NA	NA
2019/08/11 22:31:01	AWS2	6.94	198	9.41	197	M	M	M	NA	NA	1003.4	NA	NA		M	NA	NA	NA	NA
2019/08/11 22:32:01	AWS2	6.51	195	9.41	197	M	M	M	NA	NA	1003.3	NA	NA		M	NA	NA	NA	NA
2019/08/11 22:33:01	AWS2	6.86	193	9.41	197	M	M	M	NA	NA	1003.4	NA	NA		M	NA	NA	NA	NA
2019/08/11 22:34:01	AWS2	7.66	192	9.41	197	M	M	M	NA	NA	1003.2	NA	NA		M	NA	NA	NA	NA
2019/08/11 22:35:01	AWS2	7.70	191	8.85	197	M	M	M	NA	NA	1003.2	NA	NA		M	NA	NA	NA	NA
2019/08/11 22:36:01	AWS2	7.83	189	9.31	182	M	M	M	NA	NA	1003.1	NA	NA		M	NA	NA	NA	NA
2019/08/11 22:37:01	AWS2	8.44	186	9.31	178	M	M	M	NA	NA	1003.4	NA	NA		M	NA	NA	NA	NA
2019/08/11 22:38:01	AWS2	8.27	189	9.31	178	M	M	M	NA	NA	1003.5	NA	NA		M	NA	NA	NA	NA
2019/08/11 22:39:01	AWS2	8.07	191	9.31	178	M	M	M	NA	NA	1003.2	NA	NA		M	NA	NA	NA	NA
2019/08/11 22:40:01	AWS2	8.12	192	9.31	178	M	M	M	NA	NA	1003.2	NA	NA		M	NA	NA	NA	NA
2019/08/11 22:41:01	AWS2	7.80	197	9.31	178	M	M	M	NA	NA	1003.2	NA	NA		M	NA	NA	NA	NA
2019/08/11 22:42:01	AWS2	7.79	201	9.31	178	M	M	M	NA	NA	1003.3	NA	NA		M	NA	NA	NA	NA
2019/08/11 22:43:01	AWS2	8.02	197	9.31	178	M	M	M	NA	NA	1003.4	NA	NA		M	NA	NA	NA	NA
2019/08/11 22:44:01	AWS2	8.74	193	11.11	196	M	M	M	NA	NA	1003.5	NA	NA		M	NA	NA	NA	NA
2019/08/11 22:45:01	AWS2	9.18	197	11.11	196	M	M	M	NA	NA	1003.2	NA	NA		M	NA	NA	NA	NA
2019/08/11 22:46:01	AWS2	8.77	199	11.11	196	M	M	M	NA	NA	1003.4	NA	NA		M	NA	NA	NA	NA
2019/08/11 22:47:01	AWS2	8.63	195	11.11	196	M	M	M	NA	NA	1003.3	NA	NA		M	NA	NA	NA	NA
2019/08/11 22:48:01	AWS2	9.09	193	11.11	196	M	M	M	NA	NA	1003.1	NA	NA		M	NA	NA	NA	NA
2019/08/11 22:49:01	AWS2	9.36	194	11.11	196	M	M	M	NA	NA	1003.3	NA	NA		M	NA	NA	NA	NA
2019/08/11 22:50:01	AWS2	8.87	194	11.11	196	M	M	M	NA	NA	1003.2	NA	NA		M	NA	NA	NA	NA
2019/08/11 22:51:01	AWS2	8.95	194	11.11	196	M	M	M	NA	NA	1003.1	NA	NA		M	NA	NA	NA	NA
2019/08/11 22:52:01	AWS2	9.85	197	11.37	203	M	M	M	NA	NA	1003.1	NA	NA		M	NA	NA	NA	NA
2019/08/11 22:53:01	AWS2	9.75	199	11.37	203	M	M	M	NA	NA	1003.3	NA	NA		M	NA	NA	NA	NA
2019/08/11 22:54:01	AWS2	9.10	200	11.37	203	M	M	M	NA	NA	1003.3	NA	NA		M	NA	NA	NA	NA
2019/08/11 22:55:01	AWS2	8.85	205	11.37	203	M	M	M	NA	NA	1003.1	NA	NA		M	NA	NA	NA	NA
2019/08/11 22:56:01	AWS2	9.10	200	11.37	203	M	M	M	NA	NA	1003.0	NA	NA		M	NA	NA	NA	NA
2019/08/11 22:57:01	AWS2	9.23	194	11.37	203	M	M	M	NA	NA	1003.1	NA	NA		M	NA	NA	NA	NA
2019/08/11 22:58:01	AWS2	9.09	195	11.37	203	M	M	M	NA	NA	1003.4	NA	NA		M	NA	NA	NA	NA
2019/08/11 22:59:01	AWS2	8.86	200	11.37	203	M	M	M	NA	NA	1003.3	NA	NA		M	NA	NA	NA	NA
2019/08/11 23:00:00	AWS2	8.88	205	11.37	203	M	M	M	NA	NA	1003.1	NA	NA		M	NA	NA	NA	NA
2019/08/11 23:01:00	AWS2	9.20	207	11.37	203	M	M	M	NA	NA	1003.1	NA	NA		M	NA	NA	NA	NA
2019/08/11 23:02:00	AWS2	8.75	204	10.80	201	M	M	M	NA	NA	1003.5	NA	NA		M	NA	NA	NA	NA
2019/08/11 23:03:01	AWS2	8.05	198	10.80	201	M	M	M	NA	NA	1003.4	NA	NA		M	NA	NA	NA	NA
2019/08/11 23:04:01	AWS2	8.12	199	10.80	201	M	M	M	NA	NA	1003.1	NA	NA		M	NA	NA	NA	NA
2019/08/11 23:05:00	AWS2	8.89	200	10.80	201	M	M	M	NA	NA	1003.3	NA	NA		M	NA	NA	NA	NA
2019/08/11 23:06:00	AWS2	9.31	200	10.80	201	M	M	M	NA	NA	1003.0	NA	NA		M	NA	NA	NA	NA
2019/08/11 23:07:01	AWS2	8.81	201	10.80	201	M	M	M	NA	NA	1003.4	NA	NA		M	NA	NA	NA	NA
2019/08/11 23:08:01	AWS2	8.35	201	10.80	201	M	M	M	NA	NA	1003.3	NA	NA		M	NA	NA	NA	NA
2019/08/11 23:09:01	AWS2	7.54	200	10.80	201	M	M	M	NA	NA	1003.7	NA	NA		M	NA	NA	NA	NA
2019/08/11 23:10:00	AWS2	7.44	201	10.75	196	M	M	M	NA	NA	1003.2	NA	NA		M	NA	NA	NA	NA
2019/08/11 23:11:01	AWS2	7.63	208	10.75	196	M	M	M	NA	NA	1003.3	NA	NA		M	NA	NA	NA	NA
2019/08/11 23:12:00	AWS2	7.10	210	10.75	196	M	M	M	NA	NA	1003.3	NA	NA		M	NA	NA	NA	NA
2019/08/11 23:13:00	AWS2	7.15	204	10.75	196	M	M	M	NA	NA	1003.2	NA	NA		M	NA	NA	NA	NA
2019/08/11 23:14:01	AWS2	6.90	199	10.75	196	M	M	M	NA	NA	1003.3	NA	NA		M	NA	NA	NA	NA
2019/08/11 23:15:00	AWS2	7.41	195	10.19	203	M	M	M	NA	NA	1003.3	NA	NA		M	NA	NA	NA	NA
2019/08/11 23:16:00	AWS2	8.26	194	9.77	208	M	M	M	NA	NA	1003.2	NA	NA		M	NA	NA	NA	NA
2019/08/11 23:17:00	AWS2	8.13	200	9.41	189	M	M	M	NA	NA	1003.3	NA	NA		M	NA	NA	NA	NA
2019/08/11 23:18:00	AWS2	7.90	200	9.41	189	M	M	M	NA	NA	1003.2	NA	NA		M	NA	NA	NA	NA
2019/08/11 23:19:00	AWS2	7.90	198	9.41	189	M	M	M	NA	NA	1003.2	NA	NA		M	NA	NA	NA	NA
2019/08/11 23:20:00	AWS2	7.83	201	9.41	189	M	M	M	NA	NA	1003.0	NA	NA		M	NA	NA	NA	NA
2019/08/11 23:21:00	AWS2	8.67	197	11.21	191	M	M	M	NA	NA	1002.9	NA	NA		M	NA	NA	NA	NA
2019/08/11 23:22:00	AWS2	9.76	200	11.57	203	M	M	M	NA	NA	1003.0	NA	NA		M	NA	NA	NA	NA
2019/08/11 23:23:00	AWS2	8.80	205	11.57	203	M	M	M	NA	NA	1003.1	NA	NA		M	NA	NA	NA	NA
2019/08/11 23:24:00	AWS2	8.14	203	11.57	203	M	M	M	NA	NA	1003.0	NA	NA		M	NA	NA	NA	NA
2019/08/11 23:25:00	AWS2	8.92	200	11.57	203	M	M	M	NA	NA	1003.0	NA	NA		M	NA	NA	NA	NA
2019/08/11 23:26:00	AWS2	9.10	199	11.57	203	M	M	M	NA	NA	1003.0	NA	NA		M	NA	NA	NA	NA
2019/08/11 23:27:00	AWS2	9.03	200	11.57	203	M	M	M	NA	NA	1002.8	NA	NA		M	NA	NA	NA	NA
2019/08/11 23:28:00	AWS2	8.96	204	11.57	203	M	M	M	NA	NA	1003.0	NA	NA		M	NA	NA	NA	NA
2019/08/11 23:29:00	AWS2	8.85	204	11.57	203	M	M	M	NA	NA	1002.9	NA	NA		M	NA	NA	NA	NA
2019/08/11 23:30:00	AWS2	8.45	202	11.57	203	M	M	M	NA	NA	1003.2	NA	NA		M	NA	NA	NA	NA
2019/08/11 23:31:00	AWS2	8.49	203	11.57	203	M	M	M	NA	NA	1003.1	NA	NA		M	NA	NA	NA	NA
2019/08/11 23:32:00	AWS2	9.21	203	10.39	203	M	M	M	NA	NA	1003.0	NA	NA		M	NA	NA	NA	NA
2019/08/11 23:33:00	AWS2	9.23	202	10.39	203	M	M	M	NA	NA	1003.1	NA	NA		M	NA	NA	NA	NA
2019/08/11 23:34:00	AWS2	8.94	201	10.39	203	M	M	M	NA	NA	1003.0	NA	NA		M	NA	NA	NA	NA
2019/08/11 23:35:00	AWS2	9.24	197	10.49	198	M	M	M	NA	NA	1003.0	NA	NA		M	NA	NA	NA	NA
2019/08/11 23:36:00	AWS2	9.40	194	10.49	198	M	M	M	NA	NA	1003.0	NA	NA		M	NA	NA	NA	NA
2019/08/11 23:37:00	AWS2	9.04	194	10.49	198	M	M	M	NA	NA	1003.3	NA	NA		M	NA	NA	NA	NA
2019/08/11 23:38:00	AWS2	8.81	199	10.49	198	M	M	M	NA	NA	1003.2	NA	NA		M	NA	NA	NA	NA
2019/08/11 23:39:00	AWS2	8.69	199	10.49	198	M	M	M	NA	NA	1003.2	NA	NA		M	NA	NA	NA	NA
2019/08/11 23:40:00	AWS2	9.20	197	10.96	195	M	M	M	NA	NA	1002.8	NA	NA		M	NA	NA	NA	NA
2019/08/11 23:41:00	AWS2	9.59	200	10.96	195	M	M	M	NA	NA	1003.1	NA	NA		M	NA	NA	NA	NA
2019/08/11 23:42:00	AWS2	9.44	201	10.96	195	M	M	M	NA	NA	1003.0	NA	NA		M	NA	NA	NA	NA
2019/08/11 23:43:00	AWS2	9.96	201	11.21	198	M	M	M	NA	NA	1002.8	NA	NA		M	NA	NA	NA	NA
2019/08/11 23:44:00	AWS2	10.22	201	11.21	198	M	M	M	NA	NA	1002.8	NA	NA		M	NA	NA	NA	NA
2019/08/11 23:45:00	AWS2	9.25	199	11.21	198	M	M	M	NA	NA	1003.0	NA	NA		M	NA	NA	NA	NA
2019/08/11 23:46:00	AWS2	8.72	197	11.21	198	M	M	M	NA	NA	1003.0	NA	NA		M	NA	NA	NA	NA
2019/08/11 23:47:00	AWS2	8.76	199	11.21	198	M	M	M	NA	NA	1003.0	NA	NA		M	NA	NA	NA	NA
2019/08/11 23:48:00	AWS2	9.14	201	11.21	198	M	M	M	NA	NA	1002.8	NA	NA		M	NA	NA	NA	NA
2019/08/11 23:49:00	AWS2	9.41	205	11.21	198	M	M	M	NA	NA	1002.8	NA	NA		M	NA	NA	NA	NA
2019/08/11 23:50:00	AWS2	8.38	205	11.21	198	M	M	M	NA	NA	1003.0	NA	NA		M	NA	NA	NA	NA
2019/08/11 23:51:00	AWS2	7.82	202	11.21	198	M	M	M	NA	NA	1003.0	NA	NA		M	NA	NA	NA	NA
2019/08/11 23:52:00	AWS2	7.90	203	11.21	198	M	M	M	NA	NA	1003.1	NA	NA		M	NA	NA	NA	NA
2019/08/11 23:53:00	AWS2	7.74	204	10.70	215	M	M	M	NA	NA	1003.2	NA	NA		M	NA	NA	NA	NA
2019/08/11 23:54:00	AWS2	7.79	200	10.70	215	M	M	M	NA	NA	1003.0	NA	NA		M	NA	NA	NA	NA
2019/08/11 23:55:00	AWS2	8.02	203	10.70	215	M	M	M	NA	NA	1003.3	NA	NA		M	NA	NA	NA	NA
2019/08/11 23:56:00	AWS2	8.31	211	10.70	215	M	M	M	NA	NA	1003.0	NA	NA		M	NA	NA	NA	NA
2019/08/11 23:57:00	AWS2	8.17	215	10.70	215	M	M	M	NA	NA	1003.1	NA	NA		M	NA	NA	NA	NA
2019/08/11 23:58:00	AWS2	8.61	211	10.96	212	M	M	M	NA	NA	1002.8	NA	NA		M	NA	NA	NA	NA
2019/08/11 23:59:00	AWS2	8.70	205	10.96	212	M	M	M	NA	NA	1003.0	NA	NA		M	NA	NA	NA	NA